<?xml version="1.0" encoding="UTF-8" standalone="no" ?>
<gpx xmlns="http://www.topografix.com/GPX/1/1" xmlns:xsi="http://www.w3.org/2001/XMLSchema-instance" xsi:schemaLocation="http://www.topografix.com/GPX/1/1 http://www.topografix.com/GPX/1/1/gpx.xsd" version="1.1" creator="VisuGPX - https://www.visugpx.com">
  <metadata>
    <name>9567011-2019 J4 transfert expert</name>
  </metadata>
  <trk>
    <name><![CDATA[9567011-2019 J4 transfert expert]]></name>
    <trkseg>
      <trkpt lat="46.07826" lon="6.72633">
        <ele>706</ele>
        <time>2019-06-11T15:33:48Z</time>
      </trkpt>
      <trkpt lat="46.07863" lon="6.72539">
        <ele>703</ele>
        <time>2019-06-11T15:34:01Z</time>
      </trkpt>
      <trkpt lat="46.0788" lon="6.72552">
        <ele>703</ele>
        <time>2019-06-11T15:34:05Z</time>
      </trkpt>
      <trkpt lat="46.07907" lon="6.72566">
        <ele>703</ele>
        <time>2019-06-11T15:34:10Z</time>
      </trkpt>
      <trkpt lat="46.08016" lon="6.72647">
        <ele>704</ele>
        <time>2019-06-11T15:34:32Z</time>
      </trkpt>
      <trkpt lat="46.08031" lon="6.72661">
        <ele>704</ele>
        <time>2019-06-11T15:34:35Z</time>
      </trkpt>
      <trkpt lat="46.08046" lon="6.72683">
        <ele>705</ele>
        <time>2019-06-11T15:34:39Z</time>
      </trkpt>
      <trkpt lat="46.08053" lon="6.72697">
        <ele>705</ele>
        <time>2019-06-11T15:34:41Z</time>
      </trkpt>
      <trkpt lat="46.08047" lon="6.72705">
        <ele>706</ele>
        <time>2019-06-11T15:34:42Z</time>
      </trkpt>
      <trkpt lat="46.08046" lon="6.72717">
        <ele>706</ele>
        <time>2019-06-11T15:34:44Z</time>
      </trkpt>
      <trkpt lat="46.08051" lon="6.72727">
        <ele>707</ele>
        <time>2019-06-11T15:34:45Z</time>
      </trkpt>
      <trkpt lat="46.0806" lon="6.72729">
        <ele>707</ele>
        <time>2019-06-11T15:34:47Z</time>
      </trkpt>
      <trkpt lat="46.08067" lon="6.72724">
        <ele>706</ele>
        <time>2019-06-11T15:34:48Z</time>
      </trkpt>
      <trkpt lat="46.0807" lon="6.72712">
        <ele>706</ele>
        <time>2019-06-11T15:34:50Z</time>
      </trkpt>
      <trkpt lat="46.08069" lon="6.72705">
        <ele>706</ele>
        <time>2019-06-11T15:34:51Z</time>
      </trkpt>
      <trkpt lat="46.08065" lon="6.72698">
        <ele>705</ele>
        <time>2019-06-11T15:34:52Z</time>
      </trkpt>
      <trkpt lat="46.08226" lon="6.72404">
        <ele>701</ele>
        <time>2019-06-11T15:35:38Z</time>
      </trkpt>
      <trkpt lat="46.08228" lon="6.72401">
        <ele>700</ele>
        <time>2019-06-11T15:35:39Z</time>
      </trkpt>
      <trkpt lat="46.08234" lon="6.72408">
        <ele>700</ele>
        <time>2019-06-11T15:35:40Z</time>
      </trkpt>
      <trkpt lat="46.08238" lon="6.7241">
        <ele>700</ele>
        <time>2019-06-11T15:35:41Z</time>
      </trkpt>
      <trkpt lat="46.08243" lon="6.72409">
        <ele>700</ele>
        <time>2019-06-11T15:35:42Z</time>
      </trkpt>
      <trkpt lat="46.08247" lon="6.72405">
        <ele>700</ele>
        <time>2019-06-11T15:35:42Z</time>
      </trkpt>
      <trkpt lat="46.08251" lon="6.72396">
        <ele>700</ele>
        <time>2019-06-11T15:35:44Z</time>
      </trkpt>
      <trkpt lat="46.0825" lon="6.72384">
        <ele>700</ele>
        <time>2019-06-11T15:35:45Z</time>
      </trkpt>
      <trkpt lat="46.08254" lon="6.72379">
        <ele>700</ele>
        <time>2019-06-11T15:35:46Z</time>
      </trkpt>
      <trkpt lat="46.08278" lon="6.72336">
        <ele>700</ele>
        <time>2019-06-11T15:35:53Z</time>
      </trkpt>
      <trkpt lat="46.08302" lon="6.72328">
        <ele>699</ele>
        <time>2019-06-11T15:35:57Z</time>
      </trkpt>
      <trkpt lat="46.08307" lon="6.7233">
        <ele>699</ele>
        <time>2019-06-11T15:35:58Z</time>
      </trkpt>
      <trkpt lat="46.08413" lon="6.72417">
        <ele>707</ele>
        <time>2019-06-11T15:36:20Z</time>
      </trkpt>
      <trkpt lat="46.0842" lon="6.72416">
        <ele>707</ele>
        <time>2019-06-11T15:36:21Z</time>
      </trkpt>
      <trkpt lat="46.08421" lon="6.72414">
        <ele>707</ele>
        <time>2019-06-11T15:36:22Z</time>
      </trkpt>
      <trkpt lat="46.08427" lon="6.72394">
        <ele>707</ele>
        <time>2019-06-11T15:36:24Z</time>
      </trkpt>
      <trkpt lat="46.08428" lon="6.72384">
        <ele>706</ele>
        <time>2019-06-11T15:36:26Z</time>
      </trkpt>
      <trkpt lat="46.08429" lon="6.72249">
        <ele>702</ele>
        <time>2019-06-11T15:36:42Z</time>
      </trkpt>
      <trkpt lat="46.08435" lon="6.72188">
        <ele>701</ele>
        <time>2019-06-11T15:36:50Z</time>
      </trkpt>
      <trkpt lat="46.08475" lon="6.72012">
        <ele>695</ele>
        <time>2019-06-11T15:37:13Z</time>
      </trkpt>
      <trkpt lat="46.08539" lon="6.71745">
        <ele>700</ele>
        <time>2019-06-11T15:37:48Z</time>
      </trkpt>
      <trkpt lat="46.08541" lon="6.71724">
        <ele>700</ele>
        <time>2019-06-11T15:37:50Z</time>
      </trkpt>
      <trkpt lat="46.08538" lon="6.71688">
        <ele>701</ele>
        <time>2019-06-11T15:37:55Z</time>
      </trkpt>
      <trkpt lat="46.08533" lon="6.7167">
        <ele>701</ele>
        <time>2019-06-11T15:37:57Z</time>
      </trkpt>
      <trkpt lat="46.08522" lon="6.71645">
        <ele>701</ele>
        <time>2019-06-11T15:38:01Z</time>
      </trkpt>
      <trkpt lat="46.08474" lon="6.71553">
        <ele>698</ele>
        <time>2019-06-11T15:38:15Z</time>
      </trkpt>
      <trkpt lat="46.08465" lon="6.71528">
        <ele>698</ele>
        <time>2019-06-11T15:38:18Z</time>
      </trkpt>
      <trkpt lat="46.0846" lon="6.71504">
        <ele>697</ele>
        <time>2019-06-11T15:38:21Z</time>
      </trkpt>
      <trkpt lat="46.08452" lon="6.71425">
        <ele>700</ele>
        <time>2019-06-11T15:38:31Z</time>
      </trkpt>
      <trkpt lat="46.08445" lon="6.71331">
        <ele>699</ele>
        <time>2019-06-11T15:38:43Z</time>
      </trkpt>
      <trkpt lat="46.08442" lon="6.71266">
        <ele>697</ele>
        <time>2019-06-11T15:38:51Z</time>
      </trkpt>
      <trkpt lat="46.08441" lon="6.71196">
        <ele>695</ele>
        <time>2019-06-11T15:39:00Z</time>
      </trkpt>
      <trkpt lat="46.08443" lon="6.7111">
        <ele>691</ele>
        <time>2019-06-11T15:39:10Z</time>
      </trkpt>
      <trkpt lat="46.08448" lon="6.7101">
        <ele>689</ele>
        <time>2019-06-11T15:39:23Z</time>
      </trkpt>
      <trkpt lat="46.08452" lon="6.70971">
        <ele>688</ele>
        <time>2019-06-11T15:39:28Z</time>
      </trkpt>
      <trkpt lat="46.0846" lon="6.709">
        <ele>688</ele>
        <time>2019-06-11T15:39:36Z</time>
      </trkpt>
      <trkpt lat="46.08468" lon="6.70847">
        <ele>688</ele>
        <time>2019-06-11T15:39:43Z</time>
      </trkpt>
      <trkpt lat="46.085" lon="6.70673">
        <ele>684</ele>
        <time>2019-06-11T15:40:05Z</time>
      </trkpt>
      <trkpt lat="46.08519" lon="6.70578">
        <ele>684</ele>
        <time>2019-06-11T15:40:18Z</time>
      </trkpt>
      <trkpt lat="46.08585" lon="6.70218">
        <ele>685</ele>
        <time>2019-06-11T15:41:03Z</time>
      </trkpt>
      <trkpt lat="46.08725" lon="6.69396">
        <ele>685</ele>
        <time>2019-06-11T15:42:48Z</time>
      </trkpt>
      <trkpt lat="46.08776" lon="6.69102">
        <ele>681</ele>
        <time>2019-06-11T15:43:25Z</time>
      </trkpt>
      <trkpt lat="46.08794" lon="6.69032">
        <ele>681</ele>
        <time>2019-06-11T15:43:35Z</time>
      </trkpt>
      <trkpt lat="46.08837" lon="6.68877">
        <ele>681</ele>
        <time>2019-06-11T15:43:55Z</time>
      </trkpt>
      <trkpt lat="46.08843" lon="6.68843">
        <ele>681</ele>
        <time>2019-06-11T15:43:59Z</time>
      </trkpt>
      <trkpt lat="46.0885" lon="6.68788">
        <ele>681</ele>
        <time>2019-06-11T15:44:06Z</time>
      </trkpt>
      <trkpt lat="46.08882" lon="6.68453">
        <ele>685</ele>
        <time>2019-06-11T15:44:48Z</time>
      </trkpt>
      <trkpt lat="46.08927" lon="6.6795">
        <ele>672</ele>
        <time>2019-06-11T15:45:51Z</time>
      </trkpt>
      <trkpt lat="46.0893" lon="6.67951">
        <ele>672</ele>
        <time>2019-06-11T15:45:51Z</time>
      </trkpt>
      <trkpt lat="46.08936" lon="6.67948">
        <ele>672</ele>
        <time>2019-06-11T15:45:52Z</time>
      </trkpt>
      <trkpt lat="46.08939" lon="6.6794">
        <ele>672</ele>
        <time>2019-06-11T15:45:53Z</time>
      </trkpt>
      <trkpt lat="46.08936" lon="6.67928">
        <ele>671</ele>
        <time>2019-06-11T15:45:55Z</time>
      </trkpt>
      <trkpt lat="46.08929" lon="6.67924">
        <ele>671</ele>
        <time>2019-06-11T15:45:56Z</time>
      </trkpt>
      <trkpt lat="46.08951" lon="6.67845">
        <ele>668</ele>
        <time>2019-06-11T15:46:07Z</time>
      </trkpt>
      <trkpt lat="46.09025" lon="6.67605">
        <ele>665</ele>
        <time>2019-06-11T15:46:39Z</time>
      </trkpt>
      <trkpt lat="46.09128" lon="6.67286">
        <ele>666</ele>
        <time>2019-06-11T15:47:23Z</time>
      </trkpt>
      <trkpt lat="46.09169" lon="6.67174">
        <ele>664</ele>
        <time>2019-06-11T15:47:38Z</time>
      </trkpt>
      <trkpt lat="46.09324" lon="6.66778">
        <ele>659</ele>
        <time>2019-06-11T15:48:34Z</time>
      </trkpt>
      <trkpt lat="46.09345" lon="6.66728">
        <ele>661</ele>
        <time>2019-06-11T15:48:42Z</time>
      </trkpt>
      <trkpt lat="46.09438" lon="6.66577">
        <ele>660</ele>
        <time>2019-06-11T15:49:07Z</time>
      </trkpt>
      <trkpt lat="46.09467" lon="6.66527">
        <ele>661</ele>
        <time>2019-06-11T15:49:15Z</time>
      </trkpt>
      <trkpt lat="46.09485" lon="6.6649">
        <ele>661</ele>
        <time>2019-06-11T15:49:20Z</time>
      </trkpt>
      <trkpt lat="46.095" lon="6.66449">
        <ele>663</ele>
        <time>2019-06-11T15:49:26Z</time>
      </trkpt>
      <trkpt lat="46.09511" lon="6.66415">
        <ele>665</ele>
        <time>2019-06-11T15:49:31Z</time>
      </trkpt>
      <trkpt lat="46.096" lon="6.66098">
        <ele>656</ele>
        <time>2019-06-11T15:50:13Z</time>
      </trkpt>
      <trkpt lat="46.09665" lon="6.65893">
        <ele>654</ele>
        <time>2019-06-11T15:50:41Z</time>
      </trkpt>
      <trkpt lat="46.09695" lon="6.65788">
        <ele>654</ele>
        <time>2019-06-11T15:50:55Z</time>
      </trkpt>
      <trkpt lat="46.09859" lon="6.65198">
        <ele>653</ele>
        <time>2019-06-11T15:52:13Z</time>
      </trkpt>
      <trkpt lat="46.09871" lon="6.65141">
        <ele>653</ele>
        <time>2019-06-11T15:52:20Z</time>
      </trkpt>
      <trkpt lat="46.10034" lon="6.64151">
        <ele>644</ele>
        <time>2019-06-11T15:54:26Z</time>
      </trkpt>
      <trkpt lat="46.10108" lon="6.63781">
        <ele>644</ele>
        <time>2019-06-11T15:55:13Z</time>
      </trkpt>
      <trkpt lat="46.10123" lon="6.63702">
        <ele>644</ele>
        <time>2019-06-11T15:55:24Z</time>
      </trkpt>
      <trkpt lat="46.1013" lon="6.63649">
        <ele>643</ele>
        <time>2019-06-11T15:55:30Z</time>
      </trkpt>
      <trkpt lat="46.10139" lon="6.63565">
        <ele>643</ele>
        <time>2019-06-11T15:55:41Z</time>
      </trkpt>
      <trkpt lat="46.10151" lon="6.63343">
        <ele>647</ele>
        <time>2019-06-11T15:56:08Z</time>
      </trkpt>
      <trkpt lat="46.10158" lon="6.63305">
        <ele>646</ele>
        <time>2019-06-11T15:56:13Z</time>
      </trkpt>
      <trkpt lat="46.10168" lon="6.63268">
        <ele>644</ele>
        <time>2019-06-11T15:56:18Z</time>
      </trkpt>
      <trkpt lat="46.10259" lon="6.63005">
        <ele>638</ele>
        <time>2019-06-11T15:56:54Z</time>
      </trkpt>
      <trkpt lat="46.10305" lon="6.62889">
        <ele>639</ele>
        <time>2019-06-11T15:57:11Z</time>
      </trkpt>
      <trkpt lat="46.10359" lon="6.6277">
        <ele>637</ele>
        <time>2019-06-11T15:57:28Z</time>
      </trkpt>
      <trkpt lat="46.10424" lon="6.62588">
        <ele>642</ele>
        <time>2019-06-11T15:57:53Z</time>
      </trkpt>
      <trkpt lat="46.10516" lon="6.62287">
        <ele>642</ele>
        <time>2019-06-11T15:58:34Z</time>
      </trkpt>
      <trkpt lat="46.10536" lon="6.62192">
        <ele>640</ele>
        <time>2019-06-11T15:58:46Z</time>
      </trkpt>
      <trkpt lat="46.10554" lon="6.62077">
        <ele>639</ele>
        <time>2019-06-11T15:59:01Z</time>
      </trkpt>
      <trkpt lat="46.10557" lon="6.6205">
        <ele>638</ele>
        <time>2019-06-11T15:59:04Z</time>
      </trkpt>
      <trkpt lat="46.10559" lon="6.62002">
        <ele>636</ele>
        <time>2019-06-11T15:59:10Z</time>
      </trkpt>
      <trkpt lat="46.10558" lon="6.61628">
        <ele>637</ele>
        <time>2019-06-11T15:59:56Z</time>
      </trkpt>
      <trkpt lat="46.10563" lon="6.61585">
        <ele>637</ele>
        <time>2019-06-11T16:00:02Z</time>
      </trkpt>
      <trkpt lat="46.10577" lon="6.61524">
        <ele>636</ele>
        <time>2019-06-11T16:00:10Z</time>
      </trkpt>
      <trkpt lat="46.10594" lon="6.61419">
        <ele>635</ele>
        <time>2019-06-11T16:00:23Z</time>
      </trkpt>
      <trkpt lat="46.10597" lon="6.61377">
        <ele>634</ele>
        <time>2019-06-11T16:00:28Z</time>
      </trkpt>
      <trkpt lat="46.10606" lon="6.60787">
        <ele>629</ele>
        <time>2019-06-11T16:01:41Z</time>
      </trkpt>
      <trkpt lat="46.10607" lon="6.60757">
        <ele>629</ele>
        <time>2019-06-11T16:01:45Z</time>
      </trkpt>
      <trkpt lat="46.10612" lon="6.60674">
        <ele>630</ele>
        <time>2019-06-11T16:01:55Z</time>
      </trkpt>
      <trkpt lat="46.10625" lon="6.60544">
        <ele>630</ele>
        <time>2019-06-11T16:02:11Z</time>
      </trkpt>
      <trkpt lat="46.1065" lon="6.6043">
        <ele>632</ele>
        <time>2019-06-11T16:02:26Z</time>
      </trkpt>
      <trkpt lat="46.10654" lon="6.604">
        <ele>631</ele>
        <time>2019-06-11T16:02:30Z</time>
      </trkpt>
      <trkpt lat="46.10666" lon="6.60024">
        <ele>631</ele>
        <time>2019-06-11T16:03:16Z</time>
      </trkpt>
      <trkpt lat="46.10669" lon="6.59997">
        <ele>631</ele>
        <time>2019-06-11T16:03:19Z</time>
      </trkpt>
      <trkpt lat="46.10688" lon="6.59883">
        <ele>632</ele>
        <time>2019-06-11T16:03:34Z</time>
      </trkpt>
      <trkpt lat="46.10697" lon="6.59787">
        <ele>633</ele>
        <time>2019-06-11T16:03:46Z</time>
      </trkpt>
      <trkpt lat="46.10722" lon="6.59374">
        <ele>642</ele>
        <time>2019-06-11T16:04:37Z</time>
      </trkpt>
      <trkpt lat="46.10727" lon="6.59341">
        <ele>644</ele>
        <time>2019-06-11T16:04:41Z</time>
      </trkpt>
      <trkpt lat="46.10738" lon="6.59298">
        <ele>645</ele>
        <time>2019-06-11T16:04:47Z</time>
      </trkpt>
      <trkpt lat="46.10741" lon="6.5929">
        <ele>646</ele>
        <time>2019-06-11T16:04:48Z</time>
      </trkpt>
      <trkpt lat="46.10745" lon="6.59301">
        <ele>646</ele>
        <time>2019-06-11T16:04:49Z</time>
      </trkpt>
      <trkpt lat="46.10797" lon="6.59354">
        <ele>656</ele>
        <time>2019-06-11T16:05:01Z</time>
      </trkpt>
      <trkpt lat="46.10809" lon="6.59369">
        <ele>660</ele>
        <time>2019-06-11T16:05:04Z</time>
      </trkpt>
      <trkpt lat="46.10818" lon="6.59384">
        <ele>663</ele>
        <time>2019-06-11T16:05:06Z</time>
      </trkpt>
      <trkpt lat="46.10827" lon="6.59407">
        <ele>667</ele>
        <time>2019-06-11T16:05:09Z</time>
      </trkpt>
      <trkpt lat="46.10832" lon="6.59427">
        <ele>669</ele>
        <time>2019-06-11T16:05:12Z</time>
      </trkpt>
      <trkpt lat="46.10838" lon="6.59503">
        <ele>667</ele>
        <time>2019-06-11T16:05:21Z</time>
      </trkpt>
      <trkpt lat="46.1085" lon="6.5958">
        <ele>669</ele>
        <time>2019-06-11T16:05:31Z</time>
      </trkpt>
      <trkpt lat="46.10851" lon="6.59614">
        <ele>668</ele>
        <time>2019-06-11T16:05:35Z</time>
      </trkpt>
      <trkpt lat="46.10849" lon="6.59678">
        <ele>664</ele>
        <time>2019-06-11T16:05:43Z</time>
      </trkpt>
      <trkpt lat="46.10851" lon="6.59721">
        <ele>664</ele>
        <time>2019-06-11T16:05:48Z</time>
      </trkpt>
      <trkpt lat="46.10872" lon="6.59874">
        <ele>670</ele>
        <time>2019-06-11T16:06:08Z</time>
      </trkpt>
      <trkpt lat="46.10892" lon="6.5997">
        <ele>676</ele>
        <time>2019-06-11T16:06:20Z</time>
      </trkpt>
      <trkpt lat="46.10915" lon="6.60057">
        <ele>678</ele>
        <time>2019-06-11T16:06:32Z</time>
      </trkpt>
      <trkpt lat="46.10998" lon="6.60358">
        <ele>692</ele>
        <time>2019-06-11T16:07:12Z</time>
      </trkpt>
      <trkpt lat="46.11013" lon="6.60403">
        <ele>695</ele>
        <time>2019-06-11T16:07:18Z</time>
      </trkpt>
      <trkpt lat="46.11018" lon="6.60424">
        <ele>696</ele>
        <time>2019-06-11T16:07:20Z</time>
      </trkpt>
      <trkpt lat="46.11023" lon="6.60465">
        <ele>699</ele>
        <time>2019-06-11T16:07:26Z</time>
      </trkpt>
      <trkpt lat="46.11025" lon="6.60576">
        <ele>705</ele>
        <time>2019-06-11T16:07:39Z</time>
      </trkpt>
      <trkpt lat="46.11021" lon="6.60604">
        <ele>707</ele>
        <time>2019-06-11T16:07:43Z</time>
      </trkpt>
      <trkpt lat="46.11003" lon="6.60651">
        <ele>706</ele>
        <time>2019-06-11T16:07:49Z</time>
      </trkpt>
      <trkpt lat="46.11" lon="6.60667">
        <ele>707</ele>
        <time>2019-06-11T16:07:51Z</time>
      </trkpt>
      <trkpt lat="46.10998" lon="6.6069">
        <ele>707</ele>
        <time>2019-06-11T16:07:54Z</time>
      </trkpt>
      <trkpt lat="46.10999" lon="6.60707">
        <ele>708</ele>
        <time>2019-06-11T16:07:56Z</time>
      </trkpt>
      <trkpt lat="46.11012" lon="6.60794">
        <ele>713</ele>
        <time>2019-06-11T16:08:07Z</time>
      </trkpt>
      <trkpt lat="46.11016" lon="6.60837">
        <ele>713</ele>
        <time>2019-06-11T16:08:13Z</time>
      </trkpt>
      <trkpt lat="46.11018" lon="6.60877">
        <ele>717</ele>
        <time>2019-06-11T16:08:18Z</time>
      </trkpt>
      <trkpt lat="46.11017" lon="6.609">
        <ele>719</ele>
        <time>2019-06-11T16:08:21Z</time>
      </trkpt>
      <trkpt lat="46.1101" lon="6.60975">
        <ele>719</ele>
        <time>2019-06-11T16:08:30Z</time>
      </trkpt>
      <trkpt lat="46.11009" lon="6.61012">
        <ele>721</ele>
        <time>2019-06-11T16:08:34Z</time>
      </trkpt>
      <trkpt lat="46.11011" lon="6.61036">
        <ele>723</ele>
        <time>2019-06-11T16:08:37Z</time>
      </trkpt>
      <trkpt lat="46.1102" lon="6.61097">
        <ele>732</ele>
        <time>2019-06-11T16:08:45Z</time>
      </trkpt>
      <trkpt lat="46.11022" lon="6.61128">
        <ele>735</ele>
        <time>2019-06-11T16:08:49Z</time>
      </trkpt>
      <trkpt lat="46.1102" lon="6.61147">
        <ele>736</ele>
        <time>2019-06-11T16:08:51Z</time>
      </trkpt>
      <trkpt lat="46.11013" lon="6.61178">
        <ele>736</ele>
        <time>2019-06-11T16:08:55Z</time>
      </trkpt>
      <trkpt lat="46.10984" lon="6.61255">
        <ele>735</ele>
        <time>2019-06-11T16:09:06Z</time>
      </trkpt>
      <trkpt lat="46.10973" lon="6.61295">
        <ele>736</ele>
        <time>2019-06-11T16:09:11Z</time>
      </trkpt>
      <trkpt lat="46.10967" lon="6.6133">
        <ele>738</ele>
        <time>2019-06-11T16:09:16Z</time>
      </trkpt>
      <trkpt lat="46.10945" lon="6.61473">
        <ele>742</ele>
        <time>2019-06-11T16:09:34Z</time>
      </trkpt>
      <trkpt lat="46.10942" lon="6.61511">
        <ele>743</ele>
        <time>2019-06-11T16:09:39Z</time>
      </trkpt>
      <trkpt lat="46.10942" lon="6.61538">
        <ele>744</ele>
        <time>2019-06-11T16:09:42Z</time>
      </trkpt>
      <trkpt lat="46.1094" lon="6.61571">
        <ele>745</ele>
        <time>2019-06-11T16:09:46Z</time>
      </trkpt>
      <trkpt lat="46.10923" lon="6.61664">
        <ele>740</ele>
        <time>2019-06-11T16:09:58Z</time>
      </trkpt>
      <trkpt lat="46.10922" lon="6.61682">
        <ele>740</ele>
        <time>2019-06-11T16:10:00Z</time>
      </trkpt>
      <trkpt lat="46.10925" lon="6.61697">
        <ele>742</ele>
        <time>2019-06-11T16:10:02Z</time>
      </trkpt>
      <trkpt lat="46.10931" lon="6.61709">
        <ele>744</ele>
        <time>2019-06-11T16:10:04Z</time>
      </trkpt>
      <trkpt lat="46.10942" lon="6.61716">
        <ele>749</ele>
        <time>2019-06-11T16:10:06Z</time>
      </trkpt>
      <trkpt lat="46.10958" lon="6.61715">
        <ele>755</ele>
        <time>2019-06-11T16:10:09Z</time>
      </trkpt>
      <trkpt lat="46.10968" lon="6.61705">
        <ele>759</ele>
        <time>2019-06-11T16:10:11Z</time>
      </trkpt>
      <trkpt lat="46.10972" lon="6.61693">
        <ele>761</ele>
        <time>2019-06-11T16:10:13Z</time>
      </trkpt>
      <trkpt lat="46.10974" lon="6.61676">
        <ele>762</ele>
        <time>2019-06-11T16:10:15Z</time>
      </trkpt>
      <trkpt lat="46.10976" lon="6.61567">
        <ele>760</ele>
        <time>2019-06-11T16:10:28Z</time>
      </trkpt>
      <trkpt lat="46.10977" lon="6.61548">
        <ele>759</ele>
        <time>2019-06-11T16:10:31Z</time>
      </trkpt>
      <trkpt lat="46.10981" lon="6.61526">
        <ele>760</ele>
        <time>2019-06-11T16:10:33Z</time>
      </trkpt>
      <trkpt lat="46.1104" lon="6.61356">
        <ele>770</ele>
        <time>2019-06-11T16:10:57Z</time>
      </trkpt>
      <trkpt lat="46.11087" lon="6.6123">
        <ele>775</ele>
        <time>2019-06-11T16:11:15Z</time>
      </trkpt>
      <trkpt lat="46.11103" lon="6.6117">
        <ele>777</ele>
        <time>2019-06-11T16:11:23Z</time>
      </trkpt>
      <trkpt lat="46.11153" lon="6.60957">
        <ele>783</ele>
        <time>2019-06-11T16:11:50Z</time>
      </trkpt>
      <trkpt lat="46.11166" lon="6.60931">
        <ele>786</ele>
        <time>2019-06-11T16:11:54Z</time>
      </trkpt>
      <trkpt lat="46.11186" lon="6.60902">
        <ele>788</ele>
        <time>2019-06-11T16:11:59Z</time>
      </trkpt>
      <trkpt lat="46.11237" lon="6.60857">
        <ele>798</ele>
        <time>2019-06-11T16:12:10Z</time>
      </trkpt>
      <trkpt lat="46.11247" lon="6.60846">
        <ele>801</ele>
        <time>2019-06-11T16:12:12Z</time>
      </trkpt>
      <trkpt lat="46.11265" lon="6.60808">
        <ele>807</ele>
        <time>2019-06-11T16:12:18Z</time>
      </trkpt>
      <trkpt lat="46.11272" lon="6.60777">
        <ele>810</ele>
        <time>2019-06-11T16:12:22Z</time>
      </trkpt>
      <trkpt lat="46.11273" lon="6.60744">
        <ele>809</ele>
        <time>2019-06-11T16:12:26Z</time>
      </trkpt>
      <trkpt lat="46.1127" lon="6.60684">
        <ele>806</ele>
        <time>2019-06-11T16:12:33Z</time>
      </trkpt>
      <trkpt lat="46.11272" lon="6.60646">
        <ele>805</ele>
        <time>2019-06-11T16:12:38Z</time>
      </trkpt>
      <trkpt lat="46.11278" lon="6.60595">
        <ele>805</ele>
        <time>2019-06-11T16:12:44Z</time>
      </trkpt>
      <trkpt lat="46.11288" lon="6.60564">
        <ele>807</ele>
        <time>2019-06-11T16:12:49Z</time>
      </trkpt>
      <trkpt lat="46.11369" lon="6.60392">
        <ele>818</ele>
        <time>2019-06-11T16:13:14Z</time>
      </trkpt>
      <trkpt lat="46.11381" lon="6.6037">
        <ele>819</ele>
        <time>2019-06-11T16:13:18Z</time>
      </trkpt>
      <trkpt lat="46.11418" lon="6.60323">
        <ele>825</ele>
        <time>2019-06-11T16:13:26Z</time>
      </trkpt>
      <trkpt lat="46.1144" lon="6.60305">
        <ele>825</ele>
        <time>2019-06-11T16:13:31Z</time>
      </trkpt>
      <trkpt lat="46.11458" lon="6.60293">
        <ele>825</ele>
        <time>2019-06-11T16:13:35Z</time>
      </trkpt>
      <trkpt lat="46.1147" lon="6.60287">
        <ele>825</ele>
        <time>2019-06-11T16:13:37Z</time>
      </trkpt>
      <trkpt lat="46.11488" lon="6.60285">
        <ele>827</ele>
        <time>2019-06-11T16:13:40Z</time>
      </trkpt>
      <trkpt lat="46.11515" lon="6.60293">
        <ele>833</ele>
        <time>2019-06-11T16:13:45Z</time>
      </trkpt>
      <trkpt lat="46.11569" lon="6.60297">
        <ele>842</ele>
        <time>2019-06-11T16:13:55Z</time>
      </trkpt>
      <trkpt lat="46.11681" lon="6.60279">
        <ele>834</ele>
        <time>2019-06-11T16:14:15Z</time>
      </trkpt>
      <trkpt lat="46.11695" lon="6.60278">
        <ele>832</ele>
        <time>2019-06-11T16:14:17Z</time>
      </trkpt>
      <trkpt lat="46.11707" lon="6.60282">
        <ele>833</ele>
        <time>2019-06-11T16:14:19Z</time>
      </trkpt>
      <trkpt lat="46.11721" lon="6.60289">
        <ele>834</ele>
        <time>2019-06-11T16:14:22Z</time>
      </trkpt>
      <trkpt lat="46.11769" lon="6.60325">
        <ele>839</ele>
        <time>2019-06-11T16:14:32Z</time>
      </trkpt>
      <trkpt lat="46.11779" lon="6.60336">
        <ele>841</ele>
        <time>2019-06-11T16:14:34Z</time>
      </trkpt>
      <trkpt lat="46.11791" lon="6.60357">
        <ele>843</ele>
        <time>2019-06-11T16:14:37Z</time>
      </trkpt>
      <trkpt lat="46.11858" lon="6.60505">
        <ele>858</ele>
        <time>2019-06-11T16:14:59Z</time>
      </trkpt>
      <trkpt lat="46.11873" lon="6.60577">
        <ele>863</ele>
        <time>2019-06-11T16:15:08Z</time>
      </trkpt>
      <trkpt lat="46.11889" lon="6.60621">
        <ele>868</ele>
        <time>2019-06-11T16:15:14Z</time>
      </trkpt>
      <trkpt lat="46.11919" lon="6.60661">
        <ele>866</ele>
        <time>2019-06-11T16:15:22Z</time>
      </trkpt>
      <trkpt lat="46.11925" lon="6.60674">
        <ele>866</ele>
        <time>2019-06-11T16:15:23Z</time>
      </trkpt>
      <trkpt lat="46.1193" lon="6.60691">
        <ele>868</ele>
        <time>2019-06-11T16:15:26Z</time>
      </trkpt>
      <trkpt lat="46.11939" lon="6.6075">
        <ele>880</ele>
        <time>2019-06-11T16:15:33Z</time>
      </trkpt>
      <trkpt lat="46.11943" lon="6.60762">
        <ele>881</ele>
        <time>2019-06-11T16:15:35Z</time>
      </trkpt>
      <trkpt lat="46.11959" lon="6.60797">
        <ele>882</ele>
        <time>2019-06-11T16:15:40Z</time>
      </trkpt>
      <trkpt lat="46.11971" lon="6.60841">
        <ele>887</ele>
        <time>2019-06-11T16:15:46Z</time>
      </trkpt>
      <trkpt lat="46.11992" lon="6.60876">
        <ele>885</ele>
        <time>2019-06-11T16:15:52Z</time>
      </trkpt>
      <trkpt lat="46.12005" lon="6.60905">
        <ele>886</ele>
        <time>2019-06-11T16:15:56Z</time>
      </trkpt>
      <trkpt lat="46.1204" lon="6.60953">
        <ele>881</ele>
        <time>2019-06-11T16:16:04Z</time>
      </trkpt>
      <trkpt lat="46.12048" lon="6.60966">
        <ele>881</ele>
        <time>2019-06-11T16:16:07Z</time>
      </trkpt>
      <trkpt lat="46.12055" lon="6.60986">
        <ele>883</ele>
        <time>2019-06-11T16:16:09Z</time>
      </trkpt>
      <trkpt lat="46.12057" lon="6.61006">
        <ele>886</ele>
        <time>2019-06-11T16:16:12Z</time>
      </trkpt>
      <trkpt lat="46.12056" lon="6.61015">
        <ele>887</ele>
        <time>2019-06-11T16:16:13Z</time>
      </trkpt>
      <trkpt lat="46.12043" lon="6.61087">
        <ele>898</ele>
        <time>2019-06-11T16:16:22Z</time>
      </trkpt>
      <trkpt lat="46.1204" lon="6.61157">
        <ele>900</ele>
        <time>2019-06-11T16:16:31Z</time>
      </trkpt>
      <trkpt lat="46.12028" lon="6.61233">
        <ele>909</ele>
        <time>2019-06-11T16:16:40Z</time>
      </trkpt>
      <trkpt lat="46.12027" lon="6.61276">
        <ele>912</ele>
        <time>2019-06-11T16:16:46Z</time>
      </trkpt>
      <trkpt lat="46.12045" lon="6.61459">
        <ele>921</ele>
        <time>2019-06-11T16:17:08Z</time>
      </trkpt>
      <trkpt lat="46.12048" lon="6.6148">
        <ele>921</ele>
        <time>2019-06-11T16:17:11Z</time>
      </trkpt>
      <trkpt lat="46.12069" lon="6.61559">
        <ele>917</ele>
        <time>2019-06-11T16:17:22Z</time>
      </trkpt>
      <trkpt lat="46.12077" lon="6.61622">
        <ele>926</ele>
        <time>2019-06-11T16:17:29Z</time>
      </trkpt>
      <trkpt lat="46.12083" lon="6.61642">
        <ele>927</ele>
        <time>2019-06-11T16:17:32Z</time>
      </trkpt>
      <trkpt lat="46.12165" lon="6.61776">
        <ele>915</ele>
        <time>2019-06-11T16:17:54Z</time>
      </trkpt>
      <trkpt lat="46.12176" lon="6.61812">
        <ele>921</ele>
        <time>2019-06-11T16:17:59Z</time>
      </trkpt>
      <trkpt lat="46.12182" lon="6.61827">
        <ele>922</ele>
        <time>2019-06-11T16:18:01Z</time>
      </trkpt>
      <trkpt lat="46.12209" lon="6.61858">
        <ele>914</ele>
        <time>2019-06-11T16:18:07Z</time>
      </trkpt>
      <trkpt lat="46.12222" lon="6.61882">
        <ele>914</ele>
        <time>2019-06-11T16:18:11Z</time>
      </trkpt>
      <trkpt lat="46.12241" lon="6.61958">
        <ele>932</ele>
        <time>2019-06-11T16:18:21Z</time>
      </trkpt>
      <trkpt lat="46.12246" lon="6.6197">
        <ele>934</ele>
        <time>2019-06-11T16:18:23Z</time>
      </trkpt>
      <trkpt lat="46.12301" lon="6.62038">
        <ele>931</ele>
        <time>2019-06-11T16:18:36Z</time>
      </trkpt>
      <trkpt lat="46.12317" lon="6.62074">
        <ele>938</ele>
        <time>2019-06-11T16:18:41Z</time>
      </trkpt>
      <trkpt lat="46.12324" lon="6.62084">
        <ele>939</ele>
        <time>2019-06-11T16:18:43Z</time>
      </trkpt>
      <trkpt lat="46.12367" lon="6.62122">
        <ele>932</ele>
        <time>2019-06-11T16:18:52Z</time>
      </trkpt>
      <trkpt lat="46.12383" lon="6.62144">
        <ele>934</ele>
        <time>2019-06-11T16:18:56Z</time>
      </trkpt>
      <trkpt lat="46.12431" lon="6.62204">
        <ele>948</ele>
        <time>2019-06-11T16:19:07Z</time>
      </trkpt>
      <trkpt lat="46.12457" lon="6.62233">
        <ele>955</ele>
        <time>2019-06-11T16:19:13Z</time>
      </trkpt>
      <trkpt lat="46.12469" lon="6.6224">
        <ele>954</ele>
        <time>2019-06-11T16:19:15Z</time>
      </trkpt>
      <trkpt lat="46.12535" lon="6.62269">
        <ele>951</ele>
        <time>2019-06-11T16:19:27Z</time>
      </trkpt>
      <trkpt lat="46.1258" lon="6.62296">
        <ele>958</ele>
        <time>2019-06-11T16:19:36Z</time>
      </trkpt>
      <trkpt lat="46.12598" lon="6.62304">
        <ele>961</ele>
        <time>2019-06-11T16:19:39Z</time>
      </trkpt>
      <trkpt lat="46.12636" lon="6.62307">
        <ele>960</ele>
        <time>2019-06-11T16:19:46Z</time>
      </trkpt>
      <trkpt lat="46.12689" lon="6.62305">
        <ele>956</ele>
        <time>2019-06-11T16:19:56Z</time>
      </trkpt>
      <trkpt lat="46.12721" lon="6.62299">
        <ele>952</ele>
        <time>2019-06-11T16:20:01Z</time>
      </trkpt>
      <trkpt lat="46.12797" lon="6.62302">
        <ele>951</ele>
        <time>2019-06-11T16:20:15Z</time>
      </trkpt>
      <trkpt lat="46.12844" lon="6.62317">
        <ele>954</ele>
        <time>2019-06-11T16:20:23Z</time>
      </trkpt>
      <trkpt lat="46.12869" lon="6.62328">
        <ele>955</ele>
        <time>2019-06-11T16:20:28Z</time>
      </trkpt>
      <trkpt lat="46.12904" lon="6.62332">
        <ele>953</ele>
        <time>2019-06-11T16:20:34Z</time>
      </trkpt>
      <trkpt lat="46.12919" lon="6.62337">
        <ele>954</ele>
        <time>2019-06-11T16:20:37Z</time>
      </trkpt>
      <trkpt lat="46.1296" lon="6.62363">
        <ele>965</ele>
        <time>2019-06-11T16:20:45Z</time>
      </trkpt>
      <trkpt lat="46.13021" lon="6.62394">
        <ele>975</ele>
        <time>2019-06-11T16:20:56Z</time>
      </trkpt>
      <trkpt lat="46.13034" lon="6.62399">
        <ele>975</ele>
        <time>2019-06-11T16:20:59Z</time>
      </trkpt>
      <trkpt lat="46.13131" lon="6.62411">
        <ele>967</ele>
        <time>2019-06-11T16:21:16Z</time>
      </trkpt>
      <trkpt lat="46.1322" lon="6.62445">
        <ele>969</ele>
        <time>2019-06-11T16:21:33Z</time>
      </trkpt>
      <trkpt lat="46.13241" lon="6.62457">
        <ele>970</ele>
        <time>2019-06-11T16:21:37Z</time>
      </trkpt>
      <trkpt lat="46.13307" lon="6.62501">
        <ele>965</ele>
        <time>2019-06-11T16:21:50Z</time>
      </trkpt>
      <trkpt lat="46.13342" lon="6.62533">
        <ele>964</ele>
        <time>2019-06-11T16:21:57Z</time>
      </trkpt>
      <trkpt lat="46.13355" lon="6.62548">
        <ele>965</ele>
        <time>2019-06-11T16:22:00Z</time>
      </trkpt>
      <trkpt lat="46.13365" lon="6.62564">
        <ele>967</ele>
        <time>2019-06-11T16:22:03Z</time>
      </trkpt>
      <trkpt lat="46.13374" lon="6.62585">
        <ele>969</ele>
        <time>2019-06-11T16:22:06Z</time>
      </trkpt>
      <trkpt lat="46.13383" lon="6.62621">
        <ele>970</ele>
        <time>2019-06-11T16:22:10Z</time>
      </trkpt>
      <trkpt lat="46.13385" lon="6.62643">
        <ele>971</ele>
        <time>2019-06-11T16:22:13Z</time>
      </trkpt>
      <trkpt lat="46.1338" lon="6.62752">
        <ele>982</ele>
        <time>2019-06-11T16:22:27Z</time>
      </trkpt>
      <trkpt lat="46.13386" lon="6.628">
        <ele>984</ele>
        <time>2019-06-11T16:22:33Z</time>
      </trkpt>
      <trkpt lat="46.13394" lon="6.62817">
        <ele>983</ele>
        <time>2019-06-11T16:22:35Z</time>
      </trkpt>
      <trkpt lat="46.13399" lon="6.62823">
        <ele>982</ele>
        <time>2019-06-11T16:22:36Z</time>
      </trkpt>
      <trkpt lat="46.13424" lon="6.62844">
        <ele>981</ele>
        <time>2019-06-11T16:22:41Z</time>
      </trkpt>
      <trkpt lat="46.13426" lon="6.62822">
        <ele>980</ele>
        <time>2019-06-11T16:22:44Z</time>
      </trkpt>
      <trkpt lat="46.13426" lon="6.62787">
        <ele>978</ele>
        <time>2019-06-11T16:22:48Z</time>
      </trkpt>
      <trkpt lat="46.13425" lon="6.62771">
        <ele>976</ele>
        <time>2019-06-11T16:22:50Z</time>
      </trkpt>
      <trkpt lat="46.13421" lon="6.62742">
        <ele>973</ele>
        <time>2019-06-11T16:22:54Z</time>
      </trkpt>
      <trkpt lat="46.13421" lon="6.62723">
        <ele>971</ele>
        <time>2019-06-11T16:22:56Z</time>
      </trkpt>
      <trkpt lat="46.13425" lon="6.62701">
        <ele>971</ele>
        <time>2019-06-11T16:22:59Z</time>
      </trkpt>
      <trkpt lat="46.13433" lon="6.62674">
        <ele>970</ele>
        <time>2019-06-11T16:23:03Z</time>
      </trkpt>
      <trkpt lat="46.13441" lon="6.62652">
        <ele>970</ele>
        <time>2019-06-11T16:23:06Z</time>
      </trkpt>
      <trkpt lat="46.13446" lon="6.62642">
        <ele>970</ele>
        <time>2019-06-11T16:23:07Z</time>
      </trkpt>
      <trkpt lat="46.13471" lon="6.62601">
        <ele>969</ele>
        <time>2019-06-11T16:23:14Z</time>
      </trkpt>
      <trkpt lat="46.13489" lon="6.62579">
        <ele>968</ele>
        <time>2019-06-11T16:23:18Z</time>
      </trkpt>
      <trkpt lat="46.13556" lon="6.62523">
        <ele>974</ele>
        <time>2019-06-11T16:23:32Z</time>
      </trkpt>
      <trkpt lat="46.13562" lon="6.62516">
        <ele>973</ele>
        <time>2019-06-11T16:23:33Z</time>
      </trkpt>
      <trkpt lat="46.13567" lon="6.62509">
        <ele>971</ele>
        <time>2019-06-11T16:23:35Z</time>
      </trkpt>
      <trkpt lat="46.13601" lon="6.62446">
        <ele>966</ele>
        <time>2019-06-11T16:23:45Z</time>
      </trkpt>
      <trkpt lat="46.13613" lon="6.62426">
        <ele>965</ele>
        <time>2019-06-11T16:23:48Z</time>
      </trkpt>
      <trkpt lat="46.13634" lon="6.62405">
        <ele>968</ele>
        <time>2019-06-11T16:23:52Z</time>
      </trkpt>
      <trkpt lat="46.13672" lon="6.62372">
        <ele>973</ele>
        <time>2019-06-11T16:24:00Z</time>
      </trkpt>
      <trkpt lat="46.13679" lon="6.6236">
        <ele>974</ele>
        <time>2019-06-11T16:24:02Z</time>
      </trkpt>
      <trkpt lat="46.13681" lon="6.62352">
        <ele>973</ele>
        <time>2019-06-11T16:24:03Z</time>
      </trkpt>
      <trkpt lat="46.13682" lon="6.62337">
        <ele>972</ele>
        <time>2019-06-11T16:24:05Z</time>
      </trkpt>
      <trkpt lat="46.13681" lon="6.62325">
        <ele>972</ele>
        <time>2019-06-11T16:24:07Z</time>
      </trkpt>
      <trkpt lat="46.13669" lon="6.62298">
        <ele>976</ele>
        <time>2019-06-11T16:24:11Z</time>
      </trkpt>
      <trkpt lat="46.13665" lon="6.62295">
        <ele>977</ele>
        <time>2019-06-11T16:24:11Z</time>
      </trkpt>
      <trkpt lat="46.13654" lon="6.62292">
        <ele>978</ele>
        <time>2019-06-11T16:24:13Z</time>
      </trkpt>
      <trkpt lat="46.13647" lon="6.62294">
        <ele>978</ele>
        <time>2019-06-11T16:24:15Z</time>
      </trkpt>
      <trkpt lat="46.13607" lon="6.62328">
        <ele>971</ele>
        <time>2019-06-11T16:24:23Z</time>
      </trkpt>
      <trkpt lat="46.13548" lon="6.62363">
        <ele>967</ele>
        <time>2019-06-11T16:24:34Z</time>
      </trkpt>
      <trkpt lat="46.13536" lon="6.62368">
        <ele>968</ele>
        <time>2019-06-11T16:24:36Z</time>
      </trkpt>
      <trkpt lat="46.13516" lon="6.6237">
        <ele>969</ele>
        <time>2019-06-11T16:24:40Z</time>
      </trkpt>
      <trkpt lat="46.13504" lon="6.62368">
        <ele>970</ele>
        <time>2019-06-11T16:24:42Z</time>
      </trkpt>
      <trkpt lat="46.13489" lon="6.62361">
        <ele>972</ele>
        <time>2019-06-11T16:24:45Z</time>
      </trkpt>
      <trkpt lat="46.13475" lon="6.62349">
        <ele>973</ele>
        <time>2019-06-11T16:24:48Z</time>
      </trkpt>
      <trkpt lat="46.13469" lon="6.62342">
        <ele>974</ele>
        <time>2019-06-11T16:24:49Z</time>
      </trkpt>
      <trkpt lat="46.13468" lon="6.62333">
        <ele>976</ele>
        <time>2019-06-11T16:24:50Z</time>
      </trkpt>
      <trkpt lat="46.13471" lon="6.62326">
        <ele>978</ele>
        <time>2019-06-11T16:24:51Z</time>
      </trkpt>
      <trkpt lat="46.13478" lon="6.6232">
        <ele>981</ele>
        <time>2019-06-11T16:24:53Z</time>
      </trkpt>
      <trkpt lat="46.13499" lon="6.62324">
        <ele>980</ele>
        <time>2019-06-11T16:24:57Z</time>
      </trkpt>
      <trkpt lat="46.13516" lon="6.62319">
        <ele>981</ele>
        <time>2019-06-11T16:25:00Z</time>
      </trkpt>
      <trkpt lat="46.13553" lon="6.62285">
        <ele>988</ele>
        <time>2019-06-11T16:25:07Z</time>
      </trkpt>
      <trkpt lat="46.13617" lon="6.62239">
        <ele>997</ele>
        <time>2019-06-11T16:25:20Z</time>
      </trkpt>
      <trkpt lat="46.13629" lon="6.62226">
        <ele>1000</ele>
        <time>2019-06-11T16:25:23Z</time>
      </trkpt>
      <trkpt lat="46.13709" lon="6.6212">
        <ele>1020</ele>
        <time>2019-06-11T16:25:42Z</time>
      </trkpt>
      <trkpt lat="46.13771" lon="6.62057">
        <ele>1028</ele>
        <time>2019-06-11T16:25:56Z</time>
      </trkpt>
      <trkpt lat="46.13791" lon="6.62012">
        <ele>1040</ele>
        <time>2019-06-11T16:26:02Z</time>
      </trkpt>
      <trkpt lat="46.13806" lon="6.61989">
        <ele>1044</ele>
        <time>2019-06-11T16:26:06Z</time>
      </trkpt>
      <trkpt lat="46.13819" lon="6.61955">
        <ele>1055</ele>
        <time>2019-06-11T16:26:11Z</time>
      </trkpt>
      <trkpt lat="46.13826" lon="6.61943">
        <ele>1058</ele>
        <time>2019-06-11T16:26:13Z</time>
      </trkpt>
      <trkpt lat="46.13835" lon="6.61935">
        <ele>1057</ele>
        <time>2019-06-11T16:26:15Z</time>
      </trkpt>
      <trkpt lat="46.13863" lon="6.61923">
        <ele>1053</ele>
        <time>2019-06-11T16:26:20Z</time>
      </trkpt>
      <trkpt lat="46.13879" lon="6.61908">
        <ele>1054</ele>
        <time>2019-06-11T16:26:23Z</time>
      </trkpt>
      <trkpt lat="46.1393" lon="6.61836">
        <ele>1068</ele>
        <time>2019-06-11T16:26:36Z</time>
      </trkpt>
      <trkpt lat="46.14023" lon="6.61715">
        <ele>1081</ele>
        <time>2019-06-11T16:26:58Z</time>
      </trkpt>
      <trkpt lat="46.1408" lon="6.61645">
        <ele>1082</ele>
        <time>2019-06-11T16:27:12Z</time>
      </trkpt>
      <trkpt lat="46.14115" lon="6.6159">
        <ele>1098</ele>
        <time>2019-06-11T16:27:21Z</time>
      </trkpt>
      <trkpt lat="46.14127" lon="6.61579">
        <ele>1100</ele>
        <time>2019-06-11T16:27:23Z</time>
      </trkpt>
      <trkpt lat="46.14176" lon="6.61552">
        <ele>1103</ele>
        <time>2019-06-11T16:27:33Z</time>
      </trkpt>
      <trkpt lat="46.14203" lon="6.61541">
        <ele>1107</ele>
        <time>2019-06-11T16:27:38Z</time>
      </trkpt>
      <trkpt lat="46.14256" lon="6.61525">
        <ele>1112</ele>
        <time>2019-06-11T16:27:47Z</time>
      </trkpt>
      <trkpt lat="46.14304" lon="6.61516">
        <ele>1112</ele>
        <time>2019-06-11T16:27:56Z</time>
      </trkpt>
      <trkpt lat="46.14345" lon="6.61501">
        <ele>1118</ele>
        <time>2019-06-11T16:28:03Z</time>
      </trkpt>
      <trkpt lat="46.14355" lon="6.61503">
        <ele>1117</ele>
        <time>2019-06-11T16:28:05Z</time>
      </trkpt>
      <trkpt lat="46.14376" lon="6.61517">
        <ele>1112</ele>
        <time>2019-06-11T16:28:09Z</time>
      </trkpt>
      <trkpt lat="46.14386" lon="6.61517">
        <ele>1113</ele>
        <time>2019-06-11T16:28:11Z</time>
      </trkpt>
      <trkpt lat="46.14397" lon="6.61513">
        <ele>1115</ele>
        <time>2019-06-11T16:28:13Z</time>
      </trkpt>
      <trkpt lat="46.14463" lon="6.61474">
        <ele>1131</ele>
        <time>2019-06-11T16:28:26Z</time>
      </trkpt>
      <trkpt lat="46.14478" lon="6.61468">
        <ele>1133</ele>
        <time>2019-06-11T16:28:29Z</time>
      </trkpt>
      <trkpt lat="46.14492" lon="6.61466">
        <ele>1133</ele>
        <time>2019-06-11T16:28:31Z</time>
      </trkpt>
      <trkpt lat="46.14552" lon="6.61471">
        <ele>1131</ele>
        <time>2019-06-11T16:28:42Z</time>
      </trkpt>
      <trkpt lat="46.1457" lon="6.61469">
        <ele>1131</ele>
        <time>2019-06-11T16:28:45Z</time>
      </trkpt>
      <trkpt lat="46.14589" lon="6.61465">
        <ele>1132</ele>
        <time>2019-06-11T16:28:48Z</time>
      </trkpt>
      <trkpt lat="46.14692" lon="6.61418">
        <ele>1141</ele>
        <time>2019-06-11T16:29:08Z</time>
      </trkpt>
      <trkpt lat="46.14746" lon="6.6138">
        <ele>1152</ele>
        <time>2019-06-11T16:29:18Z</time>
      </trkpt>
      <trkpt lat="46.14825" lon="6.61343">
        <ele>1162</ele>
        <time>2019-06-11T16:29:33Z</time>
      </trkpt>
      <trkpt lat="46.14854" lon="6.61323">
        <ele>1168</ele>
        <time>2019-06-11T16:29:39Z</time>
      </trkpt>
      <trkpt lat="46.1487" lon="6.61317">
        <ele>1170</ele>
        <time>2019-06-11T16:29:42Z</time>
      </trkpt>
      <trkpt lat="46.14909" lon="6.61311">
        <ele>1171</ele>
        <time>2019-06-11T16:29:49Z</time>
      </trkpt>
      <trkpt lat="46.14917" lon="6.61304">
        <ele>1174</ele>
        <time>2019-06-11T16:29:50Z</time>
      </trkpt>
      <trkpt lat="46.14919" lon="6.61299">
        <ele>1177</ele>
        <time>2019-06-11T16:29:51Z</time>
      </trkpt>
      <trkpt lat="46.1492" lon="6.61294">
        <ele>1179</ele>
        <time>2019-06-11T16:29:52Z</time>
      </trkpt>
      <trkpt lat="46.14916" lon="6.61286">
        <ele>1183</ele>
        <time>2019-06-11T16:29:53Z</time>
      </trkpt>
      <trkpt lat="46.14913" lon="6.61285">
        <ele>1184</ele>
        <time>2019-06-11T16:29:54Z</time>
      </trkpt>
      <trkpt lat="46.14882" lon="6.61294">
        <ele>1180</ele>
        <time>2019-06-11T16:29:59Z</time>
      </trkpt>
      <trkpt lat="46.14872" lon="6.61294">
        <ele>1181</ele>
        <time>2019-06-11T16:30:01Z</time>
      </trkpt>
      <trkpt lat="46.14793" lon="6.61278">
        <ele>1192</ele>
        <time>2019-06-11T16:30:15Z</time>
      </trkpt>
      <trkpt lat="46.14772" lon="6.61276">
        <ele>1195</ele>
        <time>2019-06-11T16:30:19Z</time>
      </trkpt>
      <trkpt lat="46.14743" lon="6.61276">
        <ele>1197</ele>
        <time>2019-06-11T16:30:24Z</time>
      </trkpt>
      <trkpt lat="46.14648" lon="6.61281">
        <ele>1201</ele>
        <time>2019-06-11T16:30:41Z</time>
      </trkpt>
      <trkpt lat="46.14596" lon="6.61264">
        <ele>1212</ele>
        <time>2019-06-11T16:30:50Z</time>
      </trkpt>
      <trkpt lat="46.14577" lon="6.61259">
        <ele>1215</ele>
        <time>2019-06-11T16:30:54Z</time>
      </trkpt>
      <trkpt lat="46.14481" lon="6.61261">
        <ele>1218</ele>
        <time>2019-06-11T16:31:11Z</time>
      </trkpt>
      <trkpt lat="46.1447" lon="6.61258">
        <ele>1220</ele>
        <time>2019-06-11T16:31:13Z</time>
      </trkpt>
      <trkpt lat="46.14443" lon="6.61245">
        <ele>1226</ele>
        <time>2019-06-11T16:31:18Z</time>
      </trkpt>
      <trkpt lat="46.14428" lon="6.61241">
        <ele>1229</ele>
        <time>2019-06-11T16:31:21Z</time>
      </trkpt>
      <trkpt lat="46.14391" lon="6.61236">
        <ele>1233</ele>
        <time>2019-06-11T16:31:27Z</time>
      </trkpt>
      <trkpt lat="46.1437" lon="6.61242">
        <ele>1231</ele>
        <time>2019-06-11T16:31:31Z</time>
      </trkpt>
      <trkpt lat="46.14359" lon="6.61242">
        <ele>1232</ele>
        <time>2019-06-11T16:31:33Z</time>
      </trkpt>
      <trkpt lat="46.14324" lon="6.61223">
        <ele>1243</ele>
        <time>2019-06-11T16:31:40Z</time>
      </trkpt>
      <trkpt lat="46.14314" lon="6.6122">
        <ele>1245</ele>
        <time>2019-06-11T16:31:42Z</time>
      </trkpt>
      <trkpt lat="46.14302" lon="6.61222">
        <ele>1246</ele>
        <time>2019-06-11T16:31:44Z</time>
      </trkpt>
      <trkpt lat="46.14254" lon="6.61245">
        <ele>1244</ele>
        <time>2019-06-11T16:31:53Z</time>
      </trkpt>
      <trkpt lat="46.1424" lon="6.61245">
        <ele>1245</ele>
        <time>2019-06-11T16:31:55Z</time>
      </trkpt>
      <trkpt lat="46.14222" lon="6.61241">
        <ele>1248</ele>
        <time>2019-06-11T16:31:59Z</time>
      </trkpt>
      <trkpt lat="46.14124" lon="6.61209">
        <ele>1271</ele>
        <time>2019-06-11T16:32:16Z</time>
      </trkpt>
      <trkpt lat="46.14113" lon="6.61209">
        <ele>1273</ele>
        <time>2019-06-11T16:32:18Z</time>
      </trkpt>
      <trkpt lat="46.14101" lon="6.61214">
        <ele>1273</ele>
        <time>2019-06-11T16:32:21Z</time>
      </trkpt>
      <trkpt lat="46.1409" lon="6.61223">
        <ele>1272</ele>
        <time>2019-06-11T16:32:23Z</time>
      </trkpt>
      <trkpt lat="46.14082" lon="6.61223">
        <ele>1273</ele>
        <time>2019-06-11T16:32:24Z</time>
      </trkpt>
      <trkpt lat="46.14079" lon="6.61219">
        <ele>1275</ele>
        <time>2019-06-11T16:32:25Z</time>
      </trkpt>
      <trkpt lat="46.14078" lon="6.61213">
        <ele>1278</ele>
        <time>2019-06-11T16:32:26Z</time>
      </trkpt>
      <trkpt lat="46.14079" lon="6.61206">
        <ele>1280</ele>
        <time>2019-06-11T16:32:27Z</time>
      </trkpt>
      <trkpt lat="46.14082" lon="6.61201">
        <ele>1281</ele>
        <time>2019-06-11T16:32:27Z</time>
      </trkpt>
      <trkpt lat="46.14107" lon="6.61183">
        <ele>1283</ele>
        <time>2019-06-11T16:32:32Z</time>
      </trkpt>
      <trkpt lat="46.14135" lon="6.61171">
        <ele>1282</ele>
        <time>2019-06-11T16:32:38Z</time>
      </trkpt>
      <trkpt lat="46.1427" lon="6.61098">
        <ele>1294</ele>
        <time>2019-06-11T16:33:03Z</time>
      </trkpt>
      <trkpt lat="46.14355" lon="6.61055">
        <ele>1305</ele>
        <time>2019-06-11T16:33:19Z</time>
      </trkpt>
      <trkpt lat="46.14366" lon="6.61053">
        <ele>1305</ele>
        <time>2019-06-11T16:33:21Z</time>
      </trkpt>
      <trkpt lat="46.1439" lon="6.61053">
        <ele>1305</ele>
        <time>2019-06-11T16:33:26Z</time>
      </trkpt>
      <trkpt lat="46.14402" lon="6.6105">
        <ele>1305</ele>
        <time>2019-06-11T16:33:28Z</time>
      </trkpt>
      <trkpt lat="46.14404" lon="6.61046">
        <ele>1307</ele>
        <time>2019-06-11T16:33:28Z</time>
      </trkpt>
      <trkpt lat="46.14405" lon="6.61039">
        <ele>1309</ele>
        <time>2019-06-11T16:33:29Z</time>
      </trkpt>
      <trkpt lat="46.14404" lon="6.61033">
        <ele>1312</ele>
        <time>2019-06-11T16:33:30Z</time>
      </trkpt>
      <trkpt lat="46.14401" lon="6.61028">
        <ele>1314</ele>
        <time>2019-06-11T16:33:31Z</time>
      </trkpt>
      <trkpt lat="46.14397" lon="6.61025">
        <ele>1315</ele>
        <time>2019-06-11T16:33:32Z</time>
      </trkpt>
      <trkpt lat="46.14349" lon="6.61018">
        <ele>1318</ele>
        <time>2019-06-11T16:33:40Z</time>
      </trkpt>
      <trkpt lat="46.14334" lon="6.61019">
        <ele>1318</ele>
        <time>2019-06-11T16:33:43Z</time>
      </trkpt>
      <trkpt lat="46.14286" lon="6.61034">
        <ele>1318</ele>
        <time>2019-06-11T16:33:52Z</time>
      </trkpt>
      <trkpt lat="46.14272" lon="6.61032">
        <ele>1320</ele>
        <time>2019-06-11T16:33:54Z</time>
      </trkpt>
      <trkpt lat="46.14254" lon="6.61023">
        <ele>1325</ele>
        <time>2019-06-11T16:33:57Z</time>
      </trkpt>
      <trkpt lat="46.14245" lon="6.61021">
        <ele>1327</ele>
        <time>2019-06-11T16:33:59Z</time>
      </trkpt>
      <trkpt lat="46.14146" lon="6.61014">
        <ele>1341</ele>
        <time>2019-06-11T16:34:17Z</time>
      </trkpt>
      <trkpt lat="46.14125" lon="6.61019">
        <ele>1341</ele>
        <time>2019-06-11T16:34:20Z</time>
      </trkpt>
      <trkpt lat="46.14111" lon="6.61017">
        <ele>1343</ele>
        <time>2019-06-11T16:34:23Z</time>
      </trkpt>
      <trkpt lat="46.14091" lon="6.61009">
        <ele>1347</ele>
        <time>2019-06-11T16:34:27Z</time>
      </trkpt>
      <trkpt lat="46.14054" lon="6.61015">
        <ele>1350</ele>
        <time>2019-06-11T16:34:33Z</time>
      </trkpt>
      <trkpt lat="46.14004" lon="6.61014">
        <ele>1357</ele>
        <time>2019-06-11T16:34:42Z</time>
      </trkpt>
      <trkpt lat="46.14001" lon="6.6101">
        <ele>1358</ele>
        <time>2019-06-11T16:34:43Z</time>
      </trkpt>
      <trkpt lat="46.14" lon="6.60998">
        <ele>1361</ele>
        <time>2019-06-11T16:34:44Z</time>
      </trkpt>
      <trkpt lat="46.14002" lon="6.60992">
        <ele>1363</ele>
        <time>2019-06-11T16:34:45Z</time>
      </trkpt>
      <trkpt lat="46.14005" lon="6.60987">
        <ele>1365</ele>
        <time>2019-06-11T16:34:46Z</time>
      </trkpt>
      <trkpt lat="46.14106" lon="6.60944">
        <ele>1371</ele>
        <time>2019-06-11T16:35:05Z</time>
      </trkpt>
      <trkpt lat="46.14123" lon="6.60932">
        <ele>1375</ele>
        <time>2019-06-11T16:35:08Z</time>
      </trkpt>
      <trkpt lat="46.14137" lon="6.6091">
        <ele>1382</ele>
        <time>2019-06-11T16:35:12Z</time>
      </trkpt>
      <trkpt lat="46.1415" lon="6.609">
        <ele>1385</ele>
        <time>2019-06-11T16:35:14Z</time>
      </trkpt>
      <trkpt lat="46.14297" lon="6.60855">
        <ele>1383</ele>
        <time>2019-06-11T16:35:41Z</time>
      </trkpt>
      <trkpt lat="46.14325" lon="6.60839">
        <ele>1386</ele>
        <time>2019-06-11T16:35:47Z</time>
      </trkpt>
      <trkpt lat="46.14333" lon="6.60832">
        <ele>1389</ele>
        <time>2019-06-11T16:35:48Z</time>
      </trkpt>
      <trkpt lat="46.14336" lon="6.60826">
        <ele>1394</ele>
        <time>2019-06-11T16:35:49Z</time>
      </trkpt>
      <trkpt lat="46.14336" lon="6.60816">
        <ele>1401</ele>
        <time>2019-06-11T16:35:50Z</time>
      </trkpt>
      <trkpt lat="46.14334" lon="6.60812">
        <ele>1404</ele>
        <time>2019-06-11T16:35:51Z</time>
      </trkpt>
      <trkpt lat="46.14328" lon="6.60807">
        <ele>1407</ele>
        <time>2019-06-11T16:35:52Z</time>
      </trkpt>
      <trkpt lat="46.1429" lon="6.60817">
        <ele>1401</ele>
        <time>2019-06-11T16:35:59Z</time>
      </trkpt>
      <trkpt lat="46.14226" lon="6.60816">
        <ele>1406</ele>
        <time>2019-06-11T16:36:10Z</time>
      </trkpt>
      <trkpt lat="46.1418" lon="6.60804">
        <ele>1417</ele>
        <time>2019-06-11T16:36:19Z</time>
      </trkpt>
      <trkpt lat="46.14117" lon="6.60801">
        <ele>1419</ele>
        <time>2019-06-11T16:36:30Z</time>
      </trkpt>
      <trkpt lat="46.14097" lon="6.60795">
        <ele>1420</ele>
        <time>2019-06-11T16:36:34Z</time>
      </trkpt>
      <trkpt lat="46.14086" lon="6.60788">
        <ele>1421</ele>
        <time>2019-06-11T16:36:36Z</time>
      </trkpt>
      <trkpt lat="46.14077" lon="6.6078">
        <ele>1423</ele>
        <time>2019-06-11T16:36:38Z</time>
      </trkpt>
      <trkpt lat="46.14071" lon="6.60769">
        <ele>1425</ele>
        <time>2019-06-11T16:36:39Z</time>
      </trkpt>
      <trkpt lat="46.14063" lon="6.60739">
        <ele>1428</ele>
        <time>2019-06-11T16:36:43Z</time>
      </trkpt>
      <trkpt lat="46.14062" lon="6.60719">
        <ele>1427</ele>
        <time>2019-06-11T16:36:46Z</time>
      </trkpt>
      <trkpt lat="46.14077" lon="6.60672">
        <ele>1426</ele>
        <time>2019-06-11T16:36:52Z</time>
      </trkpt>
      <trkpt lat="46.14117" lon="6.60597">
        <ele>1428</ele>
        <time>2019-06-11T16:37:04Z</time>
      </trkpt>
      <trkpt lat="46.14131" lon="6.60561">
        <ele>1428</ele>
        <time>2019-06-11T16:37:09Z</time>
      </trkpt>
      <trkpt lat="46.14152" lon="6.60491">
        <ele>1426</ele>
        <time>2019-06-11T16:37:18Z</time>
      </trkpt>
      <trkpt lat="46.14159" lon="6.60473">
        <ele>1427</ele>
        <time>2019-06-11T16:37:21Z</time>
      </trkpt>
      <trkpt lat="46.14173" lon="6.60447">
        <ele>1428</ele>
        <time>2019-06-11T16:37:25Z</time>
      </trkpt>
      <trkpt lat="46.14185" lon="6.60431">
        <ele>1429</ele>
        <time>2019-06-11T16:37:28Z</time>
      </trkpt>
      <trkpt lat="46.14296" lon="6.60312">
        <ele>1431</ele>
        <time>2019-06-11T16:37:52Z</time>
      </trkpt>
      <trkpt lat="46.14303" lon="6.60297">
        <ele>1431</ele>
        <time>2019-06-11T16:37:55Z</time>
      </trkpt>
      <trkpt lat="46.14308" lon="6.60274">
        <ele>1430</ele>
        <time>2019-06-11T16:37:58Z</time>
      </trkpt>
      <trkpt lat="46.14314" lon="6.60153">
        <ele>1432</ele>
        <time>2019-06-11T16:38:13Z</time>
      </trkpt>
      <trkpt lat="46.14314" lon="6.6011">
        <ele>1435</ele>
        <time>2019-06-11T16:38:18Z</time>
      </trkpt>
      <trkpt lat="46.14302" lon="6.59891">
        <ele>1444</ele>
        <time>2019-06-11T16:38:45Z</time>
      </trkpt>
      <trkpt lat="46.14293" lon="6.59796">
        <ele>1449</ele>
        <time>2019-06-11T16:38:57Z</time>
      </trkpt>
      <trkpt lat="46.14293" lon="6.59787">
        <ele>1449</ele>
        <time>2019-06-11T16:38:58Z</time>
      </trkpt>
      <trkpt lat="46.14297" lon="6.59771">
        <ele>1450</ele>
        <time>2019-06-11T16:39:00Z</time>
      </trkpt>
      <trkpt lat="46.14313" lon="6.59751">
        <ele>1451</ele>
        <time>2019-06-11T16:39:04Z</time>
      </trkpt>
      <trkpt lat="46.14368" lon="6.597">
        <ele>1457</ele>
        <time>2019-06-11T16:39:15Z</time>
      </trkpt>
      <trkpt lat="46.14388" lon="6.59687">
        <ele>1459</ele>
        <time>2019-06-11T16:39:19Z</time>
      </trkpt>
      <trkpt lat="46.14412" lon="6.59675">
        <ele>1461</ele>
        <time>2019-06-11T16:39:24Z</time>
      </trkpt>
      <trkpt lat="46.14472" lon="6.59652">
        <ele>1466</ele>
        <time>2019-06-11T16:39:35Z</time>
      </trkpt>
      <trkpt lat="46.14478" lon="6.59647">
        <ele>1467</ele>
        <time>2019-06-11T16:39:36Z</time>
      </trkpt>
      <trkpt lat="46.14489" lon="6.59632">
        <ele>1468</ele>
        <time>2019-06-11T16:39:39Z</time>
      </trkpt>
      <trkpt lat="46.14492" lon="6.59619">
        <ele>1469</ele>
        <time>2019-06-11T16:39:41Z</time>
      </trkpt>
      <trkpt lat="46.14506" lon="6.59554">
        <ele>1471</ele>
        <time>2019-06-11T16:39:49Z</time>
      </trkpt>
      <trkpt lat="46.14515" lon="6.59532">
        <ele>1471</ele>
        <time>2019-06-11T16:39:52Z</time>
      </trkpt>
      <trkpt lat="46.14538" lon="6.5949">
        <ele>1470</ele>
        <time>2019-06-11T16:39:59Z</time>
      </trkpt>
      <trkpt lat="46.14541" lon="6.59483">
        <ele>1470</ele>
        <time>2019-06-11T16:40:00Z</time>
      </trkpt>
      <trkpt lat="46.14541" lon="6.59469">
        <ele>1470</ele>
        <time>2019-06-11T16:40:01Z</time>
      </trkpt>
      <trkpt lat="46.14539" lon="6.59461">
        <ele>1471</ele>
        <time>2019-06-11T16:40:02Z</time>
      </trkpt>
      <trkpt lat="46.14442" lon="6.59218">
        <ele>1491</ele>
        <time>2019-06-11T16:40:37Z</time>
      </trkpt>
      <trkpt lat="46.14431" lon="6.59179">
        <ele>1492</ele>
        <time>2019-06-11T16:40:42Z</time>
      </trkpt>
      <trkpt lat="46.14421" lon="6.59116">
        <ele>1495</ele>
        <time>2019-06-11T16:40:50Z</time>
      </trkpt>
      <trkpt lat="46.14414" lon="6.58955">
        <ele>1498</ele>
        <time>2019-06-11T16:41:10Z</time>
      </trkpt>
      <trkpt lat="46.14415" lon="6.58946">
        <ele>1497</ele>
        <time>2019-06-11T16:41:11Z</time>
      </trkpt>
      <trkpt lat="46.14422" lon="6.58933">
        <ele>1497</ele>
        <time>2019-06-11T16:41:13Z</time>
      </trkpt>
      <trkpt lat="46.14451" lon="6.58902">
        <ele>1495</ele>
        <time>2019-06-11T16:41:20Z</time>
      </trkpt>
      <trkpt lat="46.14478" lon="6.58879">
        <ele>1495</ele>
        <time>2019-06-11T16:41:25Z</time>
      </trkpt>
      <trkpt lat="46.14496" lon="6.58867">
        <ele>1495</ele>
        <time>2019-06-11T16:41:29Z</time>
      </trkpt>
      <trkpt lat="46.14535" lon="6.58856">
        <ele>1492</ele>
        <time>2019-06-11T16:41:36Z</time>
      </trkpt>
      <trkpt lat="46.14545" lon="6.5885">
        <ele>1492</ele>
        <time>2019-06-11T16:41:38Z</time>
      </trkpt>
      <trkpt lat="46.14556" lon="6.58837">
        <ele>1492</ele>
        <time>2019-06-11T16:41:40Z</time>
      </trkpt>
      <trkpt lat="46.14566" lon="6.58822">
        <ele>1492</ele>
        <time>2019-06-11T16:41:43Z</time>
      </trkpt>
      <trkpt lat="46.14588" lon="6.58772">
        <ele>1494</ele>
        <time>2019-06-11T16:41:50Z</time>
      </trkpt>
      <trkpt lat="46.14595" lon="6.58744">
        <ele>1496</ele>
        <time>2019-06-11T16:41:54Z</time>
      </trkpt>
      <trkpt lat="46.14601" lon="6.58732">
        <ele>1496</ele>
        <time>2019-06-11T16:41:56Z</time>
      </trkpt>
      <trkpt lat="46.14611" lon="6.58723">
        <ele>1496</ele>
        <time>2019-06-11T16:41:58Z</time>
      </trkpt>
      <trkpt lat="46.1465" lon="6.58706">
        <ele>1495</ele>
        <time>2019-06-11T16:42:05Z</time>
      </trkpt>
      <trkpt lat="46.14661" lon="6.58698">
        <ele>1495</ele>
        <time>2019-06-11T16:42:07Z</time>
      </trkpt>
      <trkpt lat="46.14679" lon="6.58674">
        <ele>1495</ele>
        <time>2019-06-11T16:42:12Z</time>
      </trkpt>
      <trkpt lat="46.14689" lon="6.58648">
        <ele>1494</ele>
        <time>2019-06-11T16:42:15Z</time>
      </trkpt>
      <trkpt lat="46.14691" lon="6.58636">
        <ele>1494</ele>
        <time>2019-06-11T16:42:17Z</time>
      </trkpt>
      <trkpt lat="46.147" lon="6.58489">
        <ele>1493</ele>
        <time>2019-06-11T16:42:35Z</time>
      </trkpt>
      <trkpt lat="46.14699" lon="6.58465">
        <ele>1494</ele>
        <time>2019-06-11T16:42:38Z</time>
      </trkpt>
      <trkpt lat="46.14695" lon="6.58446">
        <ele>1495</ele>
        <time>2019-06-11T16:42:40Z</time>
      </trkpt>
      <trkpt lat="46.14676" lon="6.58376">
        <ele>1499</ele>
        <time>2019-06-11T16:42:50Z</time>
      </trkpt>
      <trkpt lat="46.14644" lon="6.58295">
        <ele>1501</ele>
        <time>2019-06-11T16:43:01Z</time>
      </trkpt>
      <trkpt lat="46.14635" lon="6.5826">
        <ele>1501</ele>
        <time>2019-06-11T16:43:06Z</time>
      </trkpt>
      <trkpt lat="46.14631" lon="6.58234">
        <ele>1502</ele>
        <time>2019-06-11T16:43:09Z</time>
      </trkpt>
      <trkpt lat="46.1463" lon="6.58173">
        <ele>1502</ele>
        <time>2019-06-11T16:43:16Z</time>
      </trkpt>
      <trkpt lat="46.14631" lon="6.5816">
        <ele>1503</ele>
        <time>2019-06-11T16:43:18Z</time>
      </trkpt>
      <trkpt lat="46.14636" lon="6.58138">
        <ele>1505</ele>
        <time>2019-06-11T16:43:21Z</time>
      </trkpt>
      <trkpt lat="46.14641" lon="6.58126">
        <ele>1506</ele>
        <time>2019-06-11T16:43:23Z</time>
      </trkpt>
      <trkpt lat="46.14667" lon="6.58087">
        <ele>1510</ele>
        <time>2019-06-11T16:43:29Z</time>
      </trkpt>
      <trkpt lat="46.1474" lon="6.57998">
        <ele>1521</ele>
        <time>2019-06-11T16:43:46Z</time>
      </trkpt>
      <trkpt lat="46.14769" lon="6.57973">
        <ele>1522</ele>
        <time>2019-06-11T16:43:52Z</time>
      </trkpt>
      <trkpt lat="46.14788" lon="6.57964">
        <ele>1523</ele>
        <time>2019-06-11T16:43:56Z</time>
      </trkpt>
      <trkpt lat="46.14811" lon="6.57962">
        <ele>1521</ele>
        <time>2019-06-11T16:44:00Z</time>
      </trkpt>
      <trkpt lat="46.14824" lon="6.57964">
        <ele>1520</ele>
        <time>2019-06-11T16:44:02Z</time>
      </trkpt>
      <trkpt lat="46.14883" lon="6.57985">
        <ele>1514</ele>
        <time>2019-06-11T16:44:13Z</time>
      </trkpt>
      <trkpt lat="46.14905" lon="6.57989">
        <ele>1512</ele>
        <time>2019-06-11T16:44:17Z</time>
      </trkpt>
      <trkpt lat="46.14928" lon="6.57987">
        <ele>1512</ele>
        <time>2019-06-11T16:44:21Z</time>
      </trkpt>
      <trkpt lat="46.14956" lon="6.5798">
        <ele>1515</ele>
        <time>2019-06-11T16:44:26Z</time>
      </trkpt>
      <trkpt lat="46.15012" lon="6.57957">
        <ele>1521</ele>
        <time>2019-06-11T16:44:37Z</time>
      </trkpt>
      <trkpt lat="46.15078" lon="6.57927">
        <ele>1527</ele>
        <time>2019-06-11T16:44:49Z</time>
      </trkpt>
      <trkpt lat="46.15103" lon="6.57921">
        <ele>1530</ele>
        <time>2019-06-11T16:44:53Z</time>
      </trkpt>
      <trkpt lat="46.1513" lon="6.57925">
        <ele>1532</ele>
        <time>2019-06-11T16:44:58Z</time>
      </trkpt>
      <trkpt lat="46.15168" lon="6.57941">
        <ele>1533</ele>
        <time>2019-06-11T16:45:05Z</time>
      </trkpt>
      <trkpt lat="46.15181" lon="6.57944">
        <ele>1535</ele>
        <time>2019-06-11T16:45:08Z</time>
      </trkpt>
      <trkpt lat="46.15193" lon="6.57944">
        <ele>1537</ele>
        <time>2019-06-11T16:45:10Z</time>
      </trkpt>
      <trkpt lat="46.15245" lon="6.57933">
        <ele>1552</ele>
        <time>2019-06-11T16:45:19Z</time>
      </trkpt>
      <trkpt lat="46.15264" lon="6.57935">
        <ele>1555</ele>
        <time>2019-06-11T16:45:23Z</time>
      </trkpt>
      <trkpt lat="46.15306" lon="6.57951">
        <ele>1556</ele>
        <time>2019-06-11T16:45:30Z</time>
      </trkpt>
      <trkpt lat="46.15324" lon="6.57953">
        <ele>1559</ele>
        <time>2019-06-11T16:45:33Z</time>
      </trkpt>
      <trkpt lat="46.15385" lon="6.57942">
        <ele>1568</ele>
        <time>2019-06-11T16:45:44Z</time>
      </trkpt>
      <trkpt lat="46.15438" lon="6.57936">
        <ele>1575</ele>
        <time>2019-06-11T16:45:54Z</time>
      </trkpt>
      <trkpt lat="46.15481" lon="6.57946">
        <ele>1575</ele>
        <time>2019-06-11T16:46:02Z</time>
      </trkpt>
      <trkpt lat="46.15515" lon="6.57951">
        <ele>1578</ele>
        <time>2019-06-11T16:46:08Z</time>
      </trkpt>
      <trkpt lat="46.15537" lon="6.57958">
        <ele>1581</ele>
        <time>2019-06-11T16:46:12Z</time>
      </trkpt>
      <trkpt lat="46.15599" lon="6.57989">
        <ele>1583</ele>
        <time>2019-06-11T16:46:23Z</time>
      </trkpt>
      <trkpt lat="46.15666" lon="6.58035">
        <ele>1585</ele>
        <time>2019-06-11T16:46:37Z</time>
      </trkpt>
      <trkpt lat="46.15674" lon="6.58039">
        <ele>1585</ele>
        <time>2019-06-11T16:46:38Z</time>
      </trkpt>
      <trkpt lat="46.15687" lon="6.58039">
        <ele>1587</ele>
        <time>2019-06-11T16:46:40Z</time>
      </trkpt>
      <trkpt lat="46.15725" lon="6.58018">
        <ele>1598</ele>
        <time>2019-06-11T16:46:48Z</time>
      </trkpt>
      <trkpt lat="46.15736" lon="6.58015">
        <ele>1601</ele>
        <time>2019-06-11T16:46:50Z</time>
      </trkpt>
      <trkpt lat="46.15746" lon="6.58015">
        <ele>1602</ele>
        <time>2019-06-11T16:46:51Z</time>
      </trkpt>
      <trkpt lat="46.15868" lon="6.58076">
        <ele>1607</ele>
        <time>2019-06-11T16:47:14Z</time>
      </trkpt>
      <trkpt lat="46.15876" lon="6.58078">
        <ele>1607</ele>
        <time>2019-06-11T16:47:16Z</time>
      </trkpt>
      <trkpt lat="46.15885" lon="6.58079">
        <ele>1608</ele>
        <time>2019-06-11T16:47:17Z</time>
      </trkpt>
      <trkpt lat="46.15906" lon="6.58077">
        <ele>1611</ele>
        <time>2019-06-11T16:47:21Z</time>
      </trkpt>
      <trkpt lat="46.15932" lon="6.58063">
        <ele>1613</ele>
        <time>2019-06-11T16:47:26Z</time>
      </trkpt>
      <trkpt lat="46.15953" lon="6.58046">
        <ele>1612</ele>
        <time>2019-06-11T16:47:30Z</time>
      </trkpt>
      <trkpt lat="46.15963" lon="6.58027">
        <ele>1612</ele>
        <time>2019-06-11T16:47:33Z</time>
      </trkpt>
      <trkpt lat="46.15974" lon="6.57991">
        <ele>1611</ele>
        <time>2019-06-11T16:47:38Z</time>
      </trkpt>
      <trkpt lat="46.15983" lon="6.57925">
        <ele>1614</ele>
        <time>2019-06-11T16:47:46Z</time>
      </trkpt>
      <trkpt lat="46.15988" lon="6.57909">
        <ele>1615</ele>
        <time>2019-06-11T16:47:49Z</time>
      </trkpt>
      <trkpt lat="46.16001" lon="6.57884">
        <ele>1615</ele>
        <time>2019-06-11T16:47:52Z</time>
      </trkpt>
      <trkpt lat="46.16012" lon="6.57875">
        <ele>1615</ele>
        <time>2019-06-11T16:47:55Z</time>
      </trkpt>
      <trkpt lat="46.1603" lon="6.57866">
        <ele>1615</ele>
        <time>2019-06-11T16:47:58Z</time>
      </trkpt>
      <trkpt lat="46.16083" lon="6.57847">
        <ele>1613</ele>
        <time>2019-06-11T16:48:08Z</time>
      </trkpt>
      <trkpt lat="46.16094" lon="6.57847">
        <ele>1612</ele>
        <time>2019-06-11T16:48:10Z</time>
      </trkpt>
      <trkpt lat="46.16103" lon="6.57851">
        <ele>1610</ele>
        <time>2019-06-11T16:48:11Z</time>
      </trkpt>
      <trkpt lat="46.16119" lon="6.57864">
        <ele>1608</ele>
        <time>2019-06-11T16:48:15Z</time>
      </trkpt>
      <trkpt lat="46.16126" lon="6.57865">
        <ele>1607</ele>
        <time>2019-06-11T16:48:16Z</time>
      </trkpt>
      <trkpt lat="46.16131" lon="6.57861">
        <ele>1607</ele>
        <time>2019-06-11T16:48:17Z</time>
      </trkpt>
      <trkpt lat="46.16139" lon="6.57843">
        <ele>1606</ele>
        <time>2019-06-11T16:48:20Z</time>
      </trkpt>
      <trkpt lat="46.16153" lon="6.57787">
        <ele>1607</ele>
        <time>2019-06-11T16:48:27Z</time>
      </trkpt>
      <trkpt lat="46.16158" lon="6.57772">
        <ele>1608</ele>
        <time>2019-06-11T16:48:29Z</time>
      </trkpt>
      <trkpt lat="46.16167" lon="6.57762">
        <ele>1606</ele>
        <time>2019-06-11T16:48:31Z</time>
      </trkpt>
      <trkpt lat="46.16186" lon="6.57749">
        <ele>1602</ele>
        <time>2019-06-11T16:48:35Z</time>
      </trkpt>
      <trkpt lat="46.16195" lon="6.5774">
        <ele>1600</ele>
        <time>2019-06-11T16:48:37Z</time>
      </trkpt>
      <trkpt lat="46.16211" lon="6.57708">
        <ele>1598</ele>
        <time>2019-06-11T16:48:42Z</time>
      </trkpt>
      <trkpt lat="46.1622" lon="6.57699">
        <ele>1596</ele>
        <time>2019-06-11T16:48:44Z</time>
      </trkpt>
      <trkpt lat="46.1625" lon="6.57673">
        <ele>1589</ele>
        <time>2019-06-11T16:48:50Z</time>
      </trkpt>
      <trkpt lat="46.1627" lon="6.57643">
        <ele>1586</ele>
        <time>2019-06-11T16:48:55Z</time>
      </trkpt>
      <trkpt lat="46.16283" lon="6.57615">
        <ele>1583</ele>
        <time>2019-06-11T16:48:59Z</time>
      </trkpt>
      <trkpt lat="46.16289" lon="6.57597">
        <ele>1582</ele>
        <time>2019-06-11T16:49:02Z</time>
      </trkpt>
      <trkpt lat="46.16291" lon="6.57574">
        <ele>1581</ele>
        <time>2019-06-11T16:49:04Z</time>
      </trkpt>
      <trkpt lat="46.16291" lon="6.57561">
        <ele>1580</ele>
        <time>2019-06-11T16:49:06Z</time>
      </trkpt>
      <trkpt lat="46.16285" lon="6.57524">
        <ele>1579</ele>
        <time>2019-06-11T16:49:11Z</time>
      </trkpt>
      <trkpt lat="46.16282" lon="6.57464">
        <ele>1574</ele>
        <time>2019-06-11T16:49:18Z</time>
      </trkpt>
      <trkpt lat="46.16279" lon="6.57444">
        <ele>1573</ele>
        <time>2019-06-11T16:49:21Z</time>
      </trkpt>
      <trkpt lat="46.16274" lon="6.57427">
        <ele>1572</ele>
        <time>2019-06-11T16:49:23Z</time>
      </trkpt>
      <trkpt lat="46.16262" lon="6.574">
        <ele>1571</ele>
        <time>2019-06-11T16:49:27Z</time>
      </trkpt>
      <trkpt lat="46.1621" lon="6.57329">
        <ele>1567</ele>
        <time>2019-06-11T16:49:40Z</time>
      </trkpt>
      <trkpt lat="46.16203" lon="6.57311">
        <ele>1565</ele>
        <time>2019-06-11T16:49:42Z</time>
      </trkpt>
      <trkpt lat="46.16202" lon="6.57305">
        <ele>1564</ele>
        <time>2019-06-11T16:49:43Z</time>
      </trkpt>
      <trkpt lat="46.16201" lon="6.57297">
        <ele>1563</ele>
        <time>2019-06-11T16:49:44Z</time>
      </trkpt>
      <trkpt lat="46.16203" lon="6.57274">
        <ele>1559</ele>
        <time>2019-06-11T16:49:47Z</time>
      </trkpt>
      <trkpt lat="46.16205" lon="6.57266">
        <ele>1558</ele>
        <time>2019-06-11T16:49:48Z</time>
      </trkpt>
      <trkpt lat="46.16212" lon="6.5725">
        <ele>1555</ele>
        <time>2019-06-11T16:49:50Z</time>
      </trkpt>
      <trkpt lat="46.16241" lon="6.57209">
        <ele>1549</ele>
        <time>2019-06-11T16:49:57Z</time>
      </trkpt>
      <trkpt lat="46.16264" lon="6.5717">
        <ele>1551</ele>
        <time>2019-06-11T16:50:04Z</time>
      </trkpt>
      <trkpt lat="46.16274" lon="6.57148">
        <ele>1552</ele>
        <time>2019-06-11T16:50:07Z</time>
      </trkpt>
      <trkpt lat="46.16287" lon="6.57112">
        <ele>1553</ele>
        <time>2019-06-11T16:50:12Z</time>
      </trkpt>
      <trkpt lat="46.16301" lon="6.57066">
        <ele>1553</ele>
        <time>2019-06-11T16:50:18Z</time>
      </trkpt>
      <trkpt lat="46.1631" lon="6.57024">
        <ele>1553</ele>
        <time>2019-06-11T16:50:24Z</time>
      </trkpt>
      <trkpt lat="46.16323" lon="6.56928">
        <ele>1545</ele>
        <time>2019-06-11T16:50:36Z</time>
      </trkpt>
      <trkpt lat="46.16326" lon="6.56912">
        <ele>1544</ele>
        <time>2019-06-11T16:50:38Z</time>
      </trkpt>
      <trkpt lat="46.16339" lon="6.56873">
        <ele>1541</ele>
        <time>2019-06-11T16:50:43Z</time>
      </trkpt>
      <trkpt lat="46.16347" lon="6.56856">
        <ele>1542</ele>
        <time>2019-06-11T16:50:45Z</time>
      </trkpt>
      <trkpt lat="46.16388" lon="6.56775">
        <ele>1538</ele>
        <time>2019-06-11T16:50:58Z</time>
      </trkpt>
      <trkpt lat="46.16431" lon="6.56702">
        <ele>1531</ele>
        <time>2019-06-11T16:51:10Z</time>
      </trkpt>
      <trkpt lat="46.1645" lon="6.56666">
        <ele>1530</ele>
        <time>2019-06-11T16:51:15Z</time>
      </trkpt>
      <trkpt lat="46.16502" lon="6.56522">
        <ele>1513</ele>
        <time>2019-06-11T16:51:35Z</time>
      </trkpt>
      <trkpt lat="46.16506" lon="6.56514">
        <ele>1511</ele>
        <time>2019-06-11T16:51:36Z</time>
      </trkpt>
      <trkpt lat="46.16519" lon="6.56496">
        <ele>1509</ele>
        <time>2019-06-11T16:51:40Z</time>
      </trkpt>
      <trkpt lat="46.16554" lon="6.56464">
        <ele>1509</ele>
        <time>2019-06-11T16:51:47Z</time>
      </trkpt>
      <trkpt lat="46.16581" lon="6.56446">
        <ele>1508</ele>
        <time>2019-06-11T16:51:52Z</time>
      </trkpt>
      <trkpt lat="46.1663" lon="6.56436">
        <ele>1511</ele>
        <time>2019-06-11T16:52:01Z</time>
      </trkpt>
      <trkpt lat="46.16648" lon="6.56423">
        <ele>1509</ele>
        <time>2019-06-11T16:52:05Z</time>
      </trkpt>
      <trkpt lat="46.16667" lon="6.56401">
        <ele>1505</ele>
        <time>2019-06-11T16:52:09Z</time>
      </trkpt>
      <trkpt lat="46.16678" lon="6.56383">
        <ele>1504</ele>
        <time>2019-06-11T16:52:12Z</time>
      </trkpt>
      <trkpt lat="46.16699" lon="6.56341">
        <ele>1498</ele>
        <time>2019-06-11T16:52:18Z</time>
      </trkpt>
      <trkpt lat="46.1673" lon="6.5629">
        <ele>1491</ele>
        <time>2019-06-11T16:52:27Z</time>
      </trkpt>
      <trkpt lat="46.16782" lon="6.56252">
        <ele>1489</ele>
        <time>2019-06-11T16:52:37Z</time>
      </trkpt>
      <trkpt lat="46.16801" lon="6.5623">
        <ele>1487</ele>
        <time>2019-06-11T16:52:41Z</time>
      </trkpt>
      <trkpt lat="46.16818" lon="6.56196">
        <ele>1485</ele>
        <time>2019-06-11T16:52:47Z</time>
      </trkpt>
      <trkpt lat="46.16866" lon="6.56076">
        <ele>1480</ele>
        <time>2019-06-11T16:53:04Z</time>
      </trkpt>
      <trkpt lat="46.16871" lon="6.56059">
        <ele>1481</ele>
        <time>2019-06-11T16:53:06Z</time>
      </trkpt>
      <trkpt lat="46.16876" lon="6.55998">
        <ele>1482</ele>
        <time>2019-06-11T16:53:14Z</time>
      </trkpt>
      <trkpt lat="46.16875" lon="6.55988">
        <ele>1482</ele>
        <time>2019-06-11T16:53:15Z</time>
      </trkpt>
      <trkpt lat="46.16869" lon="6.55963">
        <ele>1481</ele>
        <time>2019-06-11T16:53:18Z</time>
      </trkpt>
      <trkpt lat="46.16845" lon="6.55878">
        <ele>1471</ele>
        <time>2019-06-11T16:53:29Z</time>
      </trkpt>
      <trkpt lat="46.16833" lon="6.55801">
        <ele>1465</ele>
        <time>2019-06-11T16:53:39Z</time>
      </trkpt>
      <trkpt lat="46.16823" lon="6.5577">
        <ele>1464</ele>
        <time>2019-06-11T16:53:43Z</time>
      </trkpt>
      <trkpt lat="46.16703" lon="6.55514">
        <ele>1453</ele>
        <time>2019-06-11T16:54:21Z</time>
      </trkpt>
      <trkpt lat="46.16685" lon="6.55486">
        <ele>1451</ele>
        <time>2019-06-11T16:54:26Z</time>
      </trkpt>
      <trkpt lat="46.16613" lon="6.55383">
        <ele>1444</ele>
        <time>2019-06-11T16:54:44Z</time>
      </trkpt>
      <trkpt lat="46.16579" lon="6.55345">
        <ele>1438</ele>
        <time>2019-06-11T16:54:52Z</time>
      </trkpt>
      <trkpt lat="46.16488" lon="6.55254">
        <ele>1432</ele>
        <time>2019-06-11T16:55:11Z</time>
      </trkpt>
      <trkpt lat="46.16468" lon="6.55247">
        <ele>1432</ele>
        <time>2019-06-11T16:55:15Z</time>
      </trkpt>
      <trkpt lat="46.1636" lon="6.55235">
        <ele>1431</ele>
        <time>2019-06-11T16:55:34Z</time>
      </trkpt>
      <trkpt lat="46.16288" lon="6.5525">
        <ele>1425</ele>
        <time>2019-06-11T16:55:47Z</time>
      </trkpt>
      <trkpt lat="46.16273" lon="6.55244">
        <ele>1424</ele>
        <time>2019-06-11T16:55:50Z</time>
      </trkpt>
      <trkpt lat="46.1617" lon="6.55148">
        <ele>1424</ele>
        <time>2019-06-11T16:56:12Z</time>
      </trkpt>
      <trkpt lat="46.16156" lon="6.55137">
        <ele>1425</ele>
        <time>2019-06-11T16:56:15Z</time>
      </trkpt>
      <trkpt lat="46.16139" lon="6.55133">
        <ele>1425</ele>
        <time>2019-06-11T16:56:18Z</time>
      </trkpt>
      <trkpt lat="46.16121" lon="6.55138">
        <ele>1424</ele>
        <time>2019-06-11T16:56:21Z</time>
      </trkpt>
      <trkpt lat="46.16109" lon="6.55145">
        <ele>1423</ele>
        <time>2019-06-11T16:56:23Z</time>
      </trkpt>
      <trkpt lat="46.16092" lon="6.55148">
        <ele>1422</ele>
        <time>2019-06-11T16:56:26Z</time>
      </trkpt>
      <trkpt lat="46.16084" lon="6.55147">
        <ele>1422</ele>
        <time>2019-06-11T16:56:28Z</time>
      </trkpt>
      <trkpt lat="46.16068" lon="6.55139">
        <ele>1422</ele>
        <time>2019-06-11T16:56:31Z</time>
      </trkpt>
      <trkpt lat="46.16054" lon="6.55129">
        <ele>1422</ele>
        <time>2019-06-11T16:56:34Z</time>
      </trkpt>
      <trkpt lat="46.16042" lon="6.55112">
        <ele>1422</ele>
        <time>2019-06-11T16:56:37Z</time>
      </trkpt>
      <trkpt lat="46.16014" lon="6.55021">
        <ele>1422</ele>
        <time>2019-06-11T16:56:49Z</time>
      </trkpt>
      <trkpt lat="46.16002" lon="6.54999">
        <ele>1421</ele>
        <time>2019-06-11T16:56:52Z</time>
      </trkpt>
      <trkpt lat="46.15987" lon="6.54981">
        <ele>1421</ele>
        <time>2019-06-11T16:56:56Z</time>
      </trkpt>
      <trkpt lat="46.15982" lon="6.54974">
        <ele>1421</ele>
        <time>2019-06-11T16:56:57Z</time>
      </trkpt>
      <trkpt lat="46.15977" lon="6.54958">
        <ele>1421</ele>
        <time>2019-06-11T16:56:59Z</time>
      </trkpt>
      <trkpt lat="46.15975" lon="6.54941">
        <ele>1421</ele>
        <time>2019-06-11T16:57:01Z</time>
      </trkpt>
      <trkpt lat="46.15975" lon="6.54923">
        <ele>1421</ele>
        <time>2019-06-11T16:57:04Z</time>
      </trkpt>
      <trkpt lat="46.1598" lon="6.54886">
        <ele>1420</ele>
        <time>2019-06-11T16:57:08Z</time>
      </trkpt>
      <trkpt lat="46.15996" lon="6.54822">
        <ele>1417</ele>
        <time>2019-06-11T16:57:17Z</time>
      </trkpt>
      <trkpt lat="46.15996" lon="6.54806">
        <ele>1417</ele>
        <time>2019-06-11T16:57:19Z</time>
      </trkpt>
      <trkpt lat="46.15981" lon="6.54761">
        <ele>1416</ele>
        <time>2019-06-11T16:57:25Z</time>
      </trkpt>
      <trkpt lat="46.15973" lon="6.547">
        <ele>1421</ele>
        <time>2019-06-11T16:57:32Z</time>
      </trkpt>
      <trkpt lat="46.15966" lon="6.54675">
        <ele>1422</ele>
        <time>2019-06-11T16:57:36Z</time>
      </trkpt>
      <trkpt lat="46.15959" lon="6.54656">
        <ele>1423</ele>
        <time>2019-06-11T16:57:38Z</time>
      </trkpt>
      <trkpt lat="46.15927" lon="6.54596">
        <ele>1421</ele>
        <time>2019-06-11T16:57:48Z</time>
      </trkpt>
      <trkpt lat="46.15917" lon="6.54564">
        <ele>1421</ele>
        <time>2019-06-11T16:57:52Z</time>
      </trkpt>
      <trkpt lat="46.15906" lon="6.54533">
        <ele>1423</ele>
        <time>2019-06-11T16:57:56Z</time>
      </trkpt>
      <trkpt lat="46.15901" lon="6.54523">
        <ele>1423</ele>
        <time>2019-06-11T16:57:58Z</time>
      </trkpt>
      <trkpt lat="46.15868" lon="6.54477">
        <ele>1411</ele>
        <time>2019-06-11T16:58:06Z</time>
      </trkpt>
      <trkpt lat="46.15855" lon="6.54455">
        <ele>1405</ele>
        <time>2019-06-11T16:58:10Z</time>
      </trkpt>
      <trkpt lat="46.1585" lon="6.54439">
        <ele>1403</ele>
        <time>2019-06-11T16:58:12Z</time>
      </trkpt>
      <trkpt lat="46.15846" lon="6.5442">
        <ele>1401</ele>
        <time>2019-06-11T16:58:14Z</time>
      </trkpt>
      <trkpt lat="46.15846" lon="6.54396">
        <ele>1396</ele>
        <time>2019-06-11T16:58:17Z</time>
      </trkpt>
      <trkpt lat="46.15849" lon="6.54379">
        <ele>1394</ele>
        <time>2019-06-11T16:58:19Z</time>
      </trkpt>
      <trkpt lat="46.15854" lon="6.54363">
        <ele>1393</ele>
        <time>2019-06-11T16:58:21Z</time>
      </trkpt>
      <trkpt lat="46.15907" lon="6.54282">
        <ele>1408</ele>
        <time>2019-06-11T16:58:35Z</time>
      </trkpt>
      <trkpt lat="46.15923" lon="6.54253">
        <ele>1419</ele>
        <time>2019-06-11T16:58:40Z</time>
      </trkpt>
      <trkpt lat="46.15935" lon="6.54218">
        <ele>1417</ele>
        <time>2019-06-11T16:58:45Z</time>
      </trkpt>
      <trkpt lat="46.1596" lon="6.54122">
        <ele>1404</ele>
        <time>2019-06-11T16:58:57Z</time>
      </trkpt>
      <trkpt lat="46.1597" lon="6.54078">
        <ele>1391</ele>
        <time>2019-06-11T16:59:03Z</time>
      </trkpt>
      <trkpt lat="46.15988" lon="6.53909">
        <ele>1331</ele>
        <time>2019-06-11T16:59:24Z</time>
      </trkpt>
      <trkpt lat="46.15992" lon="6.53891">
        <ele>1328</ele>
        <time>2019-06-11T16:59:26Z</time>
      </trkpt>
      <trkpt lat="46.15999" lon="6.53871">
        <ele>1325</ele>
        <time>2019-06-11T16:59:29Z</time>
      </trkpt>
      <trkpt lat="46.16009" lon="6.53829">
        <ele>1317</ele>
        <time>2019-06-11T16:59:35Z</time>
      </trkpt>
      <trkpt lat="46.16021" lon="6.53789">
        <ele>1326</ele>
        <time>2019-06-11T16:59:40Z</time>
      </trkpt>
      <trkpt lat="46.1602" lon="6.5377">
        <ele>1324</ele>
        <time>2019-06-11T16:59:42Z</time>
      </trkpt>
      <trkpt lat="46.16015" lon="6.53751">
        <ele>1319</ele>
        <time>2019-06-11T16:59:45Z</time>
      </trkpt>
      <trkpt lat="46.16005" lon="6.53728">
        <ele>1313</ele>
        <time>2019-06-11T16:59:48Z</time>
      </trkpt>
      <trkpt lat="46.15998" lon="6.53702">
        <ele>1309</ele>
        <time>2019-06-11T16:59:52Z</time>
      </trkpt>
      <trkpt lat="46.15985" lon="6.53642">
        <ele>1302</ele>
        <time>2019-06-11T16:59:59Z</time>
      </trkpt>
      <trkpt lat="46.15983" lon="6.53615">
        <ele>1302</ele>
        <time>2019-06-11T17:00:03Z</time>
      </trkpt>
      <trkpt lat="46.15985" lon="6.53596">
        <ele>1304</ele>
        <time>2019-06-11T17:00:05Z</time>
      </trkpt>
      <trkpt lat="46.15984" lon="6.53579">
        <ele>1304</ele>
        <time>2019-06-11T17:00:07Z</time>
      </trkpt>
      <trkpt lat="46.15975" lon="6.53551">
        <ele>1300</ele>
        <time>2019-06-11T17:00:11Z</time>
      </trkpt>
      <trkpt lat="46.15969" lon="6.53516">
        <ele>1300</ele>
        <time>2019-06-11T17:00:15Z</time>
      </trkpt>
      <trkpt lat="46.15958" lon="6.53482">
        <ele>1297</ele>
        <time>2019-06-11T17:00:20Z</time>
      </trkpt>
      <trkpt lat="46.15935" lon="6.53426">
        <ele>1289</ele>
        <time>2019-06-11T17:00:28Z</time>
      </trkpt>
      <trkpt lat="46.15913" lon="6.53349">
        <ele>1281</ele>
        <time>2019-06-11T17:00:38Z</time>
      </trkpt>
      <trkpt lat="46.15908" lon="6.53337">
        <ele>1279</ele>
        <time>2019-06-11T17:00:40Z</time>
      </trkpt>
      <trkpt lat="46.15893" lon="6.53313">
        <ele>1269</ele>
        <time>2019-06-11T17:00:44Z</time>
      </trkpt>
      <trkpt lat="46.15887" lon="6.53301">
        <ele>1264</ele>
        <time>2019-06-11T17:00:46Z</time>
      </trkpt>
      <trkpt lat="46.15883" lon="6.53284">
        <ele>1261</ele>
        <time>2019-06-11T17:00:48Z</time>
      </trkpt>
      <trkpt lat="46.15884" lon="6.53276">
        <ele>1260</ele>
        <time>2019-06-11T17:00:49Z</time>
      </trkpt>
      <trkpt lat="46.15888" lon="6.53263">
        <ele>1261</ele>
        <time>2019-06-11T17:00:51Z</time>
      </trkpt>
      <trkpt lat="46.15908" lon="6.5324">
        <ele>1265</ele>
        <time>2019-06-11T17:00:55Z</time>
      </trkpt>
      <trkpt lat="46.15922" lon="6.53228">
        <ele>1266</ele>
        <time>2019-06-11T17:00:58Z</time>
      </trkpt>
      <trkpt lat="46.1594" lon="6.53214">
        <ele>1268</ele>
        <time>2019-06-11T17:01:02Z</time>
      </trkpt>
      <trkpt lat="46.15972" lon="6.53206">
        <ele>1281</ele>
        <time>2019-06-11T17:01:08Z</time>
      </trkpt>
      <trkpt lat="46.15976" lon="6.53203">
        <ele>1281</ele>
        <time>2019-06-11T17:01:08Z</time>
      </trkpt>
      <trkpt lat="46.15988" lon="6.53182">
        <ele>1280</ele>
        <time>2019-06-11T17:01:12Z</time>
      </trkpt>
      <trkpt lat="46.1599" lon="6.53164">
        <ele>1275</ele>
        <time>2019-06-11T17:01:14Z</time>
      </trkpt>
      <trkpt lat="46.15988" lon="6.53151">
        <ele>1274</ele>
        <time>2019-06-11T17:01:16Z</time>
      </trkpt>
      <trkpt lat="46.15973" lon="6.53116">
        <ele>1263</ele>
        <time>2019-06-11T17:01:21Z</time>
      </trkpt>
      <trkpt lat="46.15959" lon="6.53077">
        <ele>1253</ele>
        <time>2019-06-11T17:01:26Z</time>
      </trkpt>
      <trkpt lat="46.15949" lon="6.53059">
        <ele>1250</ele>
        <time>2019-06-11T17:01:29Z</time>
      </trkpt>
      <trkpt lat="46.15927" lon="6.53027">
        <ele>1242</ele>
        <time>2019-06-11T17:01:35Z</time>
      </trkpt>
      <trkpt lat="46.15918" lon="6.52994">
        <ele>1240</ele>
        <time>2019-06-11T17:01:39Z</time>
      </trkpt>
      <trkpt lat="46.15915" lon="6.52975">
        <ele>1236</ele>
        <time>2019-06-11T17:01:41Z</time>
      </trkpt>
      <trkpt lat="46.15915" lon="6.52958">
        <ele>1233</ele>
        <time>2019-06-11T17:01:43Z</time>
      </trkpt>
      <trkpt lat="46.15919" lon="6.52938">
        <ele>1233</ele>
        <time>2019-06-11T17:01:46Z</time>
      </trkpt>
      <trkpt lat="46.15929" lon="6.52919">
        <ele>1238</ele>
        <time>2019-06-11T17:01:49Z</time>
      </trkpt>
      <trkpt lat="46.15942" lon="6.52899">
        <ele>1238</ele>
        <time>2019-06-11T17:01:52Z</time>
      </trkpt>
      <trkpt lat="46.15957" lon="6.52864">
        <ele>1233</ele>
        <time>2019-06-11T17:01:57Z</time>
      </trkpt>
      <trkpt lat="46.15975" lon="6.52829">
        <ele>1230</ele>
        <time>2019-06-11T17:02:03Z</time>
      </trkpt>
      <trkpt lat="46.1598" lon="6.52815">
        <ele>1232</ele>
        <time>2019-06-11T17:02:05Z</time>
      </trkpt>
      <trkpt lat="46.15992" lon="6.52765">
        <ele>1231</ele>
        <time>2019-06-11T17:02:11Z</time>
      </trkpt>
      <trkpt lat="46.16003" lon="6.52678">
        <ele>1226</ele>
        <time>2019-06-11T17:02:22Z</time>
      </trkpt>
      <trkpt lat="46.16045" lon="6.52569">
        <ele>1230</ele>
        <time>2019-06-11T17:02:38Z</time>
      </trkpt>
      <trkpt lat="46.16055" lon="6.52534">
        <ele>1226</ele>
        <time>2019-06-11T17:02:42Z</time>
      </trkpt>
      <trkpt lat="46.1606" lon="6.52508">
        <ele>1221</ele>
        <time>2019-06-11T17:02:46Z</time>
      </trkpt>
      <trkpt lat="46.16064" lon="6.52472">
        <ele>1217</ele>
        <time>2019-06-11T17:02:50Z</time>
      </trkpt>
      <trkpt lat="46.16065" lon="6.5236">
        <ele>1206</ele>
        <time>2019-06-11T17:03:04Z</time>
      </trkpt>
      <trkpt lat="46.16064" lon="6.5234">
        <ele>1204</ele>
        <time>2019-06-11T17:03:06Z</time>
      </trkpt>
      <trkpt lat="46.16054" lon="6.52288">
        <ele>1192</ele>
        <time>2019-06-11T17:03:13Z</time>
      </trkpt>
      <trkpt lat="46.16054" lon="6.52253">
        <ele>1189</ele>
        <time>2019-06-11T17:03:17Z</time>
      </trkpt>
      <trkpt lat="46.16049" lon="6.52244">
        <ele>1185</ele>
        <time>2019-06-11T17:03:19Z</time>
      </trkpt>
      <trkpt lat="46.16045" lon="6.52242">
        <ele>1183</ele>
        <time>2019-06-11T17:03:19Z</time>
      </trkpt>
      <trkpt lat="46.16037" lon="6.52243">
        <ele>1179</ele>
        <time>2019-06-11T17:03:21Z</time>
      </trkpt>
      <trkpt lat="46.16029" lon="6.52253">
        <ele>1176</ele>
        <time>2019-06-11T17:03:23Z</time>
      </trkpt>
      <trkpt lat="46.16024" lon="6.52284">
        <ele>1176</ele>
        <time>2019-06-11T17:03:27Z</time>
      </trkpt>
      <trkpt lat="46.16024" lon="6.52304">
        <ele>1177</ele>
        <time>2019-06-11T17:03:29Z</time>
      </trkpt>
      <trkpt lat="46.16034" lon="6.52386">
        <ele>1191</ele>
        <time>2019-06-11T17:03:39Z</time>
      </trkpt>
      <trkpt lat="46.16033" lon="6.52404">
        <ele>1193</ele>
        <time>2019-06-11T17:03:42Z</time>
      </trkpt>
      <trkpt lat="46.16024" lon="6.52431">
        <ele>1192</ele>
        <time>2019-06-11T17:03:45Z</time>
      </trkpt>
      <trkpt lat="46.16018" lon="6.52439">
        <ele>1190</ele>
        <time>2019-06-11T17:03:47Z</time>
      </trkpt>
      <trkpt lat="46.15982" lon="6.52471">
        <ele>1181</ele>
        <time>2019-06-11T17:03:54Z</time>
      </trkpt>
      <trkpt lat="46.15873" lon="6.52551">
        <ele>1153</ele>
        <time>2019-06-11T17:04:16Z</time>
      </trkpt>
      <trkpt lat="46.15858" lon="6.52569">
        <ele>1151</ele>
        <time>2019-06-11T17:04:20Z</time>
      </trkpt>
      <trkpt lat="46.15852" lon="6.52581">
        <ele>1150</ele>
        <time>2019-06-11T17:04:21Z</time>
      </trkpt>
      <trkpt lat="46.15845" lon="6.52599">
        <ele>1150</ele>
        <time>2019-06-11T17:04:24Z</time>
      </trkpt>
      <trkpt lat="46.15841" lon="6.52603">
        <ele>1149</ele>
        <time>2019-06-11T17:04:25Z</time>
      </trkpt>
      <trkpt lat="46.15834" lon="6.52605">
        <ele>1147</ele>
        <time>2019-06-11T17:04:26Z</time>
      </trkpt>
      <trkpt lat="46.1583" lon="6.52604">
        <ele>1145</ele>
        <time>2019-06-11T17:04:27Z</time>
      </trkpt>
      <trkpt lat="46.15824" lon="6.52597">
        <ele>1142</ele>
        <time>2019-06-11T17:04:28Z</time>
      </trkpt>
      <trkpt lat="46.15822" lon="6.52587">
        <ele>1140</ele>
        <time>2019-06-11T17:04:29Z</time>
      </trkpt>
      <trkpt lat="46.15823" lon="6.52573">
        <ele>1139</ele>
        <time>2019-06-11T17:04:31Z</time>
      </trkpt>
      <trkpt lat="46.15864" lon="6.52408">
        <ele>1131</ele>
        <time>2019-06-11T17:04:53Z</time>
      </trkpt>
      <trkpt lat="46.15869" lon="6.52391">
        <ele>1130</ele>
        <time>2019-06-11T17:04:55Z</time>
      </trkpt>
      <trkpt lat="46.15879" lon="6.5237">
        <ele>1129</ele>
        <time>2019-06-11T17:04:58Z</time>
      </trkpt>
      <trkpt lat="46.15892" lon="6.52352">
        <ele>1131</ele>
        <time>2019-06-11T17:05:01Z</time>
      </trkpt>
      <trkpt lat="46.15905" lon="6.52339">
        <ele>1134</ele>
        <time>2019-06-11T17:05:04Z</time>
      </trkpt>
      <trkpt lat="46.15932" lon="6.52319">
        <ele>1140</ele>
        <time>2019-06-11T17:05:10Z</time>
      </trkpt>
      <trkpt lat="46.15935" lon="6.52309">
        <ele>1140</ele>
        <time>2019-06-11T17:05:11Z</time>
      </trkpt>
      <trkpt lat="46.15935" lon="6.52303">
        <ele>1139</ele>
        <time>2019-06-11T17:05:12Z</time>
      </trkpt>
      <trkpt lat="46.15931" lon="6.52293">
        <ele>1135</ele>
        <time>2019-06-11T17:05:13Z</time>
      </trkpt>
      <trkpt lat="46.15918" lon="6.5229">
        <ele>1130</ele>
        <time>2019-06-11T17:05:15Z</time>
      </trkpt>
      <trkpt lat="46.1591" lon="6.52293">
        <ele>1128</ele>
        <time>2019-06-11T17:05:17Z</time>
      </trkpt>
      <trkpt lat="46.15858" lon="6.52323">
        <ele>1116</ele>
        <time>2019-06-11T17:05:27Z</time>
      </trkpt>
      <trkpt lat="46.15784" lon="6.52374">
        <ele>1104</ele>
        <time>2019-06-11T17:05:41Z</time>
      </trkpt>
      <trkpt lat="46.15741" lon="6.52413">
        <ele>1100</ele>
        <time>2019-06-11T17:05:50Z</time>
      </trkpt>
      <trkpt lat="46.15651" lon="6.52515">
        <ele>1089</ele>
        <time>2019-06-11T17:06:11Z</time>
      </trkpt>
      <trkpt lat="46.15645" lon="6.52527">
        <ele>1088</ele>
        <time>2019-06-11T17:06:13Z</time>
      </trkpt>
      <trkpt lat="46.15636" lon="6.52561">
        <ele>1086</ele>
        <time>2019-06-11T17:06:17Z</time>
      </trkpt>
      <trkpt lat="46.15636" lon="6.52579">
        <ele>1086</ele>
        <time>2019-06-11T17:06:19Z</time>
      </trkpt>
      <trkpt lat="46.15644" lon="6.52616">
        <ele>1086</ele>
        <time>2019-06-11T17:06:24Z</time>
      </trkpt>
      <trkpt lat="46.15642" lon="6.52624">
        <ele>1085</ele>
        <time>2019-06-11T17:06:25Z</time>
      </trkpt>
      <trkpt lat="46.15639" lon="6.52631">
        <ele>1084</ele>
        <time>2019-06-11T17:06:26Z</time>
      </trkpt>
      <trkpt lat="46.15631" lon="6.52635">
        <ele>1082</ele>
        <time>2019-06-11T17:06:28Z</time>
      </trkpt>
      <trkpt lat="46.15622" lon="6.52629">
        <ele>1081</ele>
        <time>2019-06-11T17:06:29Z</time>
      </trkpt>
      <trkpt lat="46.15607" lon="6.526">
        <ele>1079</ele>
        <time>2019-06-11T17:06:34Z</time>
      </trkpt>
      <trkpt lat="46.1559" lon="6.52556">
        <ele>1076</ele>
        <time>2019-06-11T17:06:40Z</time>
      </trkpt>
      <trkpt lat="46.15583" lon="6.52521">
        <ele>1075</ele>
        <time>2019-06-11T17:06:45Z</time>
      </trkpt>
      <trkpt lat="46.15575" lon="6.5245">
        <ele>1071</ele>
        <time>2019-06-11T17:06:54Z</time>
      </trkpt>
      <trkpt lat="46.15574" lon="6.52427">
        <ele>1069</ele>
        <time>2019-06-11T17:06:56Z</time>
      </trkpt>
      <trkpt lat="46.15577" lon="6.52403">
        <ele>1069</ele>
        <time>2019-06-11T17:06:59Z</time>
      </trkpt>
      <trkpt lat="46.1559" lon="6.52343">
        <ele>1069</ele>
        <time>2019-06-11T17:07:07Z</time>
      </trkpt>
      <trkpt lat="46.15591" lon="6.52283">
        <ele>1063</ele>
        <time>2019-06-11T17:07:15Z</time>
      </trkpt>
      <trkpt lat="46.15609" lon="6.52186">
        <ele>1054</ele>
        <time>2019-06-11T17:07:27Z</time>
      </trkpt>
      <trkpt lat="46.15614" lon="6.52121">
        <ele>1047</ele>
        <time>2019-06-11T17:07:35Z</time>
      </trkpt>
      <trkpt lat="46.15624" lon="6.52053">
        <ele>1042</ele>
        <time>2019-06-11T17:07:44Z</time>
      </trkpt>
      <trkpt lat="46.15638" lon="6.52004">
        <ele>1041</ele>
        <time>2019-06-11T17:07:50Z</time>
      </trkpt>
      <trkpt lat="46.15658" lon="6.51957">
        <ele>1041</ele>
        <time>2019-06-11T17:07:57Z</time>
      </trkpt>
      <trkpt lat="46.15662" lon="6.5194">
        <ele>1040</ele>
        <time>2019-06-11T17:07:59Z</time>
      </trkpt>
      <trkpt lat="46.15664" lon="6.51914">
        <ele>1038</ele>
        <time>2019-06-11T17:08:02Z</time>
      </trkpt>
      <trkpt lat="46.15665" lon="6.51813">
        <ele>1029</ele>
        <time>2019-06-11T17:08:15Z</time>
      </trkpt>
      <trkpt lat="46.15666" lon="6.51803">
        <ele>1027</ele>
        <time>2019-06-11T17:08:16Z</time>
      </trkpt>
      <trkpt lat="46.15672" lon="6.51785">
        <ele>1025</ele>
        <time>2019-06-11T17:08:18Z</time>
      </trkpt>
      <trkpt lat="46.15696" lon="6.51747">
        <ele>1024</ele>
        <time>2019-06-11T17:08:25Z</time>
      </trkpt>
      <trkpt lat="46.15703" lon="6.51725">
        <ele>1023</ele>
        <time>2019-06-11T17:08:28Z</time>
      </trkpt>
      <trkpt lat="46.15705" lon="6.51709">
        <ele>1023</ele>
        <time>2019-06-11T17:08:30Z</time>
      </trkpt>
      <trkpt lat="46.15696" lon="6.51667">
        <ele>1017</ele>
        <time>2019-06-11T17:08:35Z</time>
      </trkpt>
      <trkpt lat="46.15697" lon="6.51649">
        <ele>1017</ele>
        <time>2019-06-11T17:08:37Z</time>
      </trkpt>
      <trkpt lat="46.15699" lon="6.51639">
        <ele>1017</ele>
        <time>2019-06-11T17:08:39Z</time>
      </trkpt>
      <trkpt lat="46.15726" lon="6.51551">
        <ele>1016</ele>
        <time>2019-06-11T17:08:51Z</time>
      </trkpt>
      <trkpt lat="46.15729" lon="6.51532">
        <ele>1015</ele>
        <time>2019-06-11T17:08:53Z</time>
      </trkpt>
      <trkpt lat="46.15729" lon="6.51522">
        <ele>1014</ele>
        <time>2019-06-11T17:08:54Z</time>
      </trkpt>
      <trkpt lat="46.15714" lon="6.51409">
        <ele>1008</ele>
        <time>2019-06-11T17:09:08Z</time>
      </trkpt>
      <trkpt lat="46.15713" lon="6.51366">
        <ele>1006</ele>
        <time>2019-06-11T17:09:14Z</time>
      </trkpt>
      <trkpt lat="46.15709" lon="6.51351">
        <ele>1005</ele>
        <time>2019-06-11T17:09:16Z</time>
      </trkpt>
      <trkpt lat="46.157" lon="6.51344">
        <ele>1003</ele>
        <time>2019-06-11T17:09:17Z</time>
      </trkpt>
      <trkpt lat="46.15692" lon="6.51348">
        <ele>1001</ele>
        <time>2019-06-11T17:09:19Z</time>
      </trkpt>
      <trkpt lat="46.15688" lon="6.51353">
        <ele>1001</ele>
        <time>2019-06-11T17:09:20Z</time>
      </trkpt>
      <trkpt lat="46.15685" lon="6.51369">
        <ele>1001</ele>
        <time>2019-06-11T17:09:22Z</time>
      </trkpt>
      <trkpt lat="46.15685" lon="6.51407">
        <ele>1004</ele>
        <time>2019-06-11T17:09:27Z</time>
      </trkpt>
      <trkpt lat="46.15683" lon="6.51416">
        <ele>1004</ele>
        <time>2019-06-11T17:09:28Z</time>
      </trkpt>
      <trkpt lat="46.1568" lon="6.51422">
        <ele>1004</ele>
        <time>2019-06-11T17:09:29Z</time>
      </trkpt>
      <trkpt lat="46.15665" lon="6.51436">
        <ele>1002</ele>
        <time>2019-06-11T17:09:32Z</time>
      </trkpt>
      <trkpt lat="46.1566" lon="6.51437">
        <ele>1002</ele>
        <time>2019-06-11T17:09:33Z</time>
      </trkpt>
      <trkpt lat="46.15638" lon="6.51431">
        <ele>998</ele>
        <time>2019-06-11T17:09:37Z</time>
      </trkpt>
      <trkpt lat="46.15629" lon="6.51432">
        <ele>997</ele>
        <time>2019-06-11T17:09:38Z</time>
      </trkpt>
      <trkpt lat="46.15591" lon="6.51456">
        <ele>992</ele>
        <time>2019-06-11T17:09:46Z</time>
      </trkpt>
      <trkpt lat="46.15579" lon="6.51467">
        <ele>990</ele>
        <time>2019-06-11T17:09:48Z</time>
      </trkpt>
      <trkpt lat="46.1557" lon="6.51478">
        <ele>988</ele>
        <time>2019-06-11T17:09:50Z</time>
      </trkpt>
      <trkpt lat="46.15564" lon="6.51492">
        <ele>988</ele>
        <time>2019-06-11T17:09:52Z</time>
      </trkpt>
      <trkpt lat="46.1556" lon="6.51513">
        <ele>987</ele>
        <time>2019-06-11T17:09:55Z</time>
      </trkpt>
      <trkpt lat="46.15558" lon="6.5152">
        <ele>986</ele>
        <time>2019-06-11T17:09:56Z</time>
      </trkpt>
      <trkpt lat="46.15551" lon="6.51527">
        <ele>985</ele>
        <time>2019-06-11T17:09:58Z</time>
      </trkpt>
      <trkpt lat="46.15547" lon="6.51528">
        <ele>984</ele>
        <time>2019-06-11T17:09:58Z</time>
      </trkpt>
      <trkpt lat="46.15542" lon="6.51526">
        <ele>983</ele>
        <time>2019-06-11T17:09:59Z</time>
      </trkpt>
      <trkpt lat="46.15536" lon="6.51517">
        <ele>982</ele>
        <time>2019-06-11T17:10:01Z</time>
      </trkpt>
      <trkpt lat="46.15534" lon="6.51502">
        <ele>983</ele>
        <time>2019-06-11T17:10:03Z</time>
      </trkpt>
      <trkpt lat="46.15545" lon="6.51441">
        <ele>983</ele>
        <time>2019-06-11T17:10:10Z</time>
      </trkpt>
      <trkpt lat="46.15545" lon="6.51416">
        <ele>982</ele>
        <time>2019-06-11T17:10:13Z</time>
      </trkpt>
      <trkpt lat="46.15541" lon="6.51378">
        <ele>979</ele>
        <time>2019-06-11T17:10:18Z</time>
      </trkpt>
      <trkpt lat="46.15541" lon="6.51366">
        <ele>978</ele>
        <time>2019-06-11T17:10:20Z</time>
      </trkpt>
      <trkpt lat="46.15547" lon="6.51328">
        <ele>977</ele>
        <time>2019-06-11T17:10:24Z</time>
      </trkpt>
      <trkpt lat="46.15547" lon="6.51307">
        <ele>976</ele>
        <time>2019-06-11T17:10:27Z</time>
      </trkpt>
      <trkpt lat="46.15544" lon="6.51284">
        <ele>975</ele>
        <time>2019-06-11T17:10:30Z</time>
      </trkpt>
      <trkpt lat="46.15508" lon="6.51155">
        <ele>971</ele>
        <time>2019-06-11T17:10:47Z</time>
      </trkpt>
      <trkpt lat="46.15503" lon="6.51133">
        <ele>969</ele>
        <time>2019-06-11T17:10:50Z</time>
      </trkpt>
      <trkpt lat="46.15491" lon="6.51058">
        <ele>962</ele>
        <time>2019-06-11T17:10:59Z</time>
      </trkpt>
      <trkpt lat="46.1549" lon="6.51044">
        <ele>961</ele>
        <time>2019-06-11T17:11:01Z</time>
      </trkpt>
      <trkpt lat="46.1549" lon="6.51031">
        <ele>959</ele>
        <time>2019-06-11T17:11:03Z</time>
      </trkpt>
      <trkpt lat="46.15494" lon="6.51005">
        <ele>957</ele>
        <time>2019-06-11T17:11:06Z</time>
      </trkpt>
      <trkpt lat="46.15512" lon="6.50959">
        <ele>957</ele>
        <time>2019-06-11T17:11:13Z</time>
      </trkpt>
      <trkpt lat="46.15513" lon="6.50951">
        <ele>957</ele>
        <time>2019-06-11T17:11:14Z</time>
      </trkpt>
      <trkpt lat="46.15509" lon="6.50938">
        <ele>956</ele>
        <time>2019-06-11T17:11:15Z</time>
      </trkpt>
      <trkpt lat="46.155" lon="6.50932">
        <ele>954</ele>
        <time>2019-06-11T17:11:17Z</time>
      </trkpt>
      <trkpt lat="46.15494" lon="6.50933">
        <ele>953</ele>
        <time>2019-06-11T17:11:18Z</time>
      </trkpt>
      <trkpt lat="46.15484" lon="6.50942">
        <ele>952</ele>
        <time>2019-06-11T17:11:20Z</time>
      </trkpt>
      <trkpt lat="46.15432" lon="6.51038">
        <ele>951</ele>
        <time>2019-06-11T17:11:35Z</time>
      </trkpt>
      <trkpt lat="46.15423" lon="6.51051">
        <ele>951</ele>
        <time>2019-06-11T17:11:38Z</time>
      </trkpt>
      <trkpt lat="46.15407" lon="6.51064">
        <ele>950</ele>
        <time>2019-06-11T17:11:41Z</time>
      </trkpt>
      <trkpt lat="46.15389" lon="6.51073">
        <ele>948</ele>
        <time>2019-06-11T17:11:44Z</time>
      </trkpt>
      <trkpt lat="46.15367" lon="6.51075">
        <ele>945</ele>
        <time>2019-06-11T17:11:48Z</time>
      </trkpt>
      <trkpt lat="46.15332" lon="6.51067">
        <ele>938</ele>
        <time>2019-06-11T17:11:54Z</time>
      </trkpt>
      <trkpt lat="46.1531" lon="6.51067">
        <ele>936</ele>
        <time>2019-06-11T17:11:58Z</time>
      </trkpt>
      <trkpt lat="46.15298" lon="6.51072">
        <ele>935</ele>
        <time>2019-06-11T17:12:01Z</time>
      </trkpt>
      <trkpt lat="46.15291" lon="6.51079">
        <ele>934</ele>
        <time>2019-06-11T17:12:02Z</time>
      </trkpt>
      <trkpt lat="46.15235" lon="6.51168">
        <ele>927</ele>
        <time>2019-06-11T17:12:17Z</time>
      </trkpt>
      <trkpt lat="46.15188" lon="6.51227">
        <ele>922</ele>
        <time>2019-06-11T17:12:28Z</time>
      </trkpt>
      <trkpt lat="46.15168" lon="6.51245">
        <ele>920</ele>
        <time>2019-06-11T17:12:32Z</time>
      </trkpt>
      <trkpt lat="46.1515" lon="6.51249">
        <ele>918</ele>
        <time>2019-06-11T17:12:35Z</time>
      </trkpt>
      <trkpt lat="46.15138" lon="6.51245">
        <ele>917</ele>
        <time>2019-06-11T17:12:38Z</time>
      </trkpt>
      <trkpt lat="46.15129" lon="6.51241">
        <ele>916</ele>
        <time>2019-06-11T17:12:39Z</time>
      </trkpt>
      <trkpt lat="46.15113" lon="6.51227">
        <ele>914</ele>
        <time>2019-06-11T17:12:43Z</time>
      </trkpt>
      <trkpt lat="46.15106" lon="6.51214">
        <ele>913</ele>
        <time>2019-06-11T17:12:45Z</time>
      </trkpt>
      <trkpt lat="46.15098" lon="6.51183">
        <ele>912</ele>
        <time>2019-06-11T17:12:49Z</time>
      </trkpt>
      <trkpt lat="46.15089" lon="6.51114">
        <ele>911</ele>
        <time>2019-06-11T17:12:57Z</time>
      </trkpt>
      <trkpt lat="46.15081" lon="6.51094">
        <ele>911</ele>
        <time>2019-06-11T17:13:00Z</time>
      </trkpt>
      <trkpt lat="46.15109" lon="6.51017">
        <ele>913</ele>
        <time>2019-06-11T17:13:11Z</time>
      </trkpt>
      <trkpt lat="46.15119" lon="6.50999">
        <ele>914</ele>
        <time>2019-06-11T17:13:14Z</time>
      </trkpt>
      <trkpt lat="46.15151" lon="6.50953">
        <ele>917</ele>
        <time>2019-06-11T17:13:22Z</time>
      </trkpt>
      <trkpt lat="46.15194" lon="6.50917">
        <ele>923</ele>
        <time>2019-06-11T17:13:31Z</time>
      </trkpt>
      <trkpt lat="46.15204" lon="6.50905">
        <ele>924</ele>
        <time>2019-06-11T17:13:33Z</time>
      </trkpt>
      <trkpt lat="46.15211" lon="6.50891">
        <ele>924</ele>
        <time>2019-06-11T17:13:35Z</time>
      </trkpt>
      <trkpt lat="46.15226" lon="6.50843">
        <ele>925</ele>
        <time>2019-06-11T17:13:42Z</time>
      </trkpt>
      <trkpt lat="46.15238" lon="6.50814">
        <ele>923</ele>
        <time>2019-06-11T17:13:46Z</time>
      </trkpt>
      <trkpt lat="46.15247" lon="6.50799">
        <ele>923</ele>
        <time>2019-06-11T17:13:48Z</time>
      </trkpt>
      <trkpt lat="46.1528" lon="6.5076">
        <ele>924</ele>
        <time>2019-06-11T17:13:56Z</time>
      </trkpt>
      <trkpt lat="46.15325" lon="6.50716">
        <ele>929</ele>
        <time>2019-06-11T17:14:05Z</time>
      </trkpt>
      <trkpt lat="46.15339" lon="6.50707">
        <ele>930</ele>
        <time>2019-06-11T17:14:08Z</time>
      </trkpt>
      <trkpt lat="46.15355" lon="6.50702">
        <ele>930</ele>
        <time>2019-06-11T17:14:11Z</time>
      </trkpt>
      <trkpt lat="46.15392" lon="6.50698">
        <ele>931</ele>
        <time>2019-06-11T17:14:18Z</time>
      </trkpt>
      <trkpt lat="46.15408" lon="6.50693">
        <ele>931</ele>
        <time>2019-06-11T17:14:21Z</time>
      </trkpt>
      <trkpt lat="46.15416" lon="6.50684">
        <ele>931</ele>
        <time>2019-06-11T17:14:22Z</time>
      </trkpt>
      <trkpt lat="46.1542" lon="6.50677">
        <ele>931</ele>
        <time>2019-06-11T17:14:24Z</time>
      </trkpt>
      <trkpt lat="46.15426" lon="6.50647">
        <ele>930</ele>
        <time>2019-06-11T17:14:27Z</time>
      </trkpt>
      <trkpt lat="46.15433" lon="6.5063">
        <ele>930</ele>
        <time>2019-06-11T17:14:30Z</time>
      </trkpt>
      <trkpt lat="46.15437" lon="6.50632">
        <ele>930</ele>
        <time>2019-06-11T17:14:31Z</time>
      </trkpt>
      <trkpt lat="46.15474" lon="6.50623">
        <ele>932</ele>
        <time>2019-06-11T17:14:37Z</time>
      </trkpt>
      <trkpt lat="46.15509" lon="6.50608">
        <ele>934</ele>
        <time>2019-06-11T17:14:44Z</time>
      </trkpt>
      <trkpt lat="46.1556" lon="6.50569">
        <ele>937</ele>
        <time>2019-06-11T17:14:54Z</time>
      </trkpt>
      <trkpt lat="46.15586" lon="6.50574">
        <ele>940</ele>
        <time>2019-06-11T17:14:59Z</time>
      </trkpt>
      <trkpt lat="46.15594" lon="6.50573">
        <ele>940</ele>
        <time>2019-06-11T17:15:00Z</time>
      </trkpt>
      <trkpt lat="46.15639" lon="6.50527">
        <ele>939</ele>
        <time>2019-06-11T17:15:10Z</time>
      </trkpt>
      <trkpt lat="46.15664" lon="6.50514">
        <ele>940</ele>
        <time>2019-06-11T17:15:15Z</time>
      </trkpt>
      <trkpt lat="46.15682" lon="6.50495">
        <ele>941</ele>
        <time>2019-06-11T17:15:19Z</time>
      </trkpt>
      <trkpt lat="46.15728" lon="6.50449">
        <ele>944</ele>
        <time>2019-06-11T17:15:29Z</time>
      </trkpt>
      <trkpt lat="46.15754" lon="6.50415">
        <ele>945</ele>
        <time>2019-06-11T17:15:35Z</time>
      </trkpt>
      <trkpt lat="46.15791" lon="6.50378">
        <ele>948</ele>
        <time>2019-06-11T17:15:43Z</time>
      </trkpt>
      <trkpt lat="46.15824" lon="6.5036">
        <ele>951</ele>
        <time>2019-06-11T17:15:49Z</time>
      </trkpt>
      <trkpt lat="46.15859" lon="6.5035">
        <ele>955</ele>
        <time>2019-06-11T17:15:55Z</time>
      </trkpt>
      <trkpt lat="46.15886" lon="6.50335">
        <ele>957</ele>
        <time>2019-06-11T17:16:01Z</time>
      </trkpt>
      <trkpt lat="46.15948" lon="6.50287">
        <ele>960</ele>
        <time>2019-06-11T17:16:13Z</time>
      </trkpt>
      <trkpt lat="46.15991" lon="6.50249">
        <ele>961</ele>
        <time>2019-06-11T17:16:22Z</time>
      </trkpt>
      <trkpt lat="46.16034" lon="6.50215">
        <ele>963</ele>
        <time>2019-06-11T17:16:31Z</time>
      </trkpt>
      <trkpt lat="46.16048" lon="6.50208">
        <ele>964</ele>
        <time>2019-06-11T17:16:33Z</time>
      </trkpt>
      <trkpt lat="46.16134" lon="6.50177">
        <ele>969</ele>
        <time>2019-06-11T17:16:49Z</time>
      </trkpt>
      <trkpt lat="46.16199" lon="6.5013">
        <ele>967</ele>
        <time>2019-06-11T17:17:02Z</time>
      </trkpt>
      <trkpt lat="46.16212" lon="6.50124">
        <ele>966</ele>
        <time>2019-06-11T17:17:05Z</time>
      </trkpt>
      <trkpt lat="46.16241" lon="6.50114">
        <ele>966</ele>
        <time>2019-06-11T17:17:10Z</time>
      </trkpt>
      <trkpt lat="46.16277" lon="6.50109">
        <ele>965</ele>
        <time>2019-06-11T17:17:16Z</time>
      </trkpt>
      <trkpt lat="46.16379" lon="6.50104">
        <ele>961</ele>
        <time>2019-06-11T17:17:34Z</time>
      </trkpt>
      <trkpt lat="46.16405" lon="6.50108">
        <ele>960</ele>
        <time>2019-06-11T17:17:39Z</time>
      </trkpt>
      <trkpt lat="46.16419" lon="6.50115">
        <ele>961</ele>
        <time>2019-06-11T17:17:42Z</time>
      </trkpt>
      <trkpt lat="46.16428" lon="6.5013">
        <ele>961</ele>
        <time>2019-06-11T17:17:44Z</time>
      </trkpt>
      <trkpt lat="46.16446" lon="6.502">
        <ele>965</ele>
        <time>2019-06-11T17:17:53Z</time>
      </trkpt>
      <trkpt lat="46.16448" lon="6.50194">
        <ele>964</ele>
        <time>2019-06-11T17:17:54Z</time>
      </trkpt>
      <trkpt lat="46.16449" lon="6.50147">
        <ele>961</ele>
        <time>2019-06-11T17:18:00Z</time>
      </trkpt>
      <trkpt lat="46.1646" lon="6.50094">
        <ele>956</ele>
        <time>2019-06-11T17:18:07Z</time>
      </trkpt>
      <trkpt lat="46.16463" lon="6.50088">
        <ele>956</ele>
        <time>2019-06-11T17:18:08Z</time>
      </trkpt>
      <trkpt lat="46.16468" lon="6.50084">
        <ele>955</ele>
        <time>2019-06-11T17:18:09Z</time>
      </trkpt>
      <trkpt lat="46.16505" lon="6.5007">
        <ele>949</ele>
        <time>2019-06-11T17:18:16Z</time>
      </trkpt>
      <trkpt lat="46.16509" lon="6.5007">
        <ele>949</ele>
        <time>2019-06-11T17:18:16Z</time>
      </trkpt>
      <trkpt lat="46.16531" lon="6.50087">
        <ele>950</ele>
        <time>2019-06-11T17:18:21Z</time>
      </trkpt>
      <trkpt lat="46.1656" lon="6.50173">
        <ele>947</ele>
        <time>2019-06-11T17:18:33Z</time>
      </trkpt>
      <trkpt lat="46.16565" lon="6.50182">
        <ele>946</ele>
        <time>2019-06-11T17:18:34Z</time>
      </trkpt>
      <trkpt lat="46.16577" lon="6.50196">
        <ele>944</ele>
        <time>2019-06-11T17:18:37Z</time>
      </trkpt>
      <trkpt lat="46.1659" lon="6.50205">
        <ele>942</ele>
        <time>2019-06-11T17:18:39Z</time>
      </trkpt>
      <trkpt lat="46.16663" lon="6.50235">
        <ele>929</ele>
        <time>2019-06-11T17:18:53Z</time>
      </trkpt>
      <trkpt lat="46.16681" lon="6.5024">
        <ele>926</ele>
        <time>2019-06-11T17:18:56Z</time>
      </trkpt>
      <trkpt lat="46.16711" lon="6.50243">
        <ele>922</ele>
        <time>2019-06-11T17:19:01Z</time>
      </trkpt>
      <trkpt lat="46.16719" lon="6.50248">
        <ele>921</ele>
        <time>2019-06-11T17:19:03Z</time>
      </trkpt>
      <trkpt lat="46.16745" lon="6.50275">
        <ele>919</ele>
        <time>2019-06-11T17:19:09Z</time>
      </trkpt>
      <trkpt lat="46.16749" lon="6.50277">
        <ele>919</ele>
        <time>2019-06-11T17:19:09Z</time>
      </trkpt>
      <trkpt lat="46.16753" lon="6.50278">
        <ele>919</ele>
        <time>2019-06-11T17:19:10Z</time>
      </trkpt>
      <trkpt lat="46.1681" lon="6.50268">
        <ele>911</ele>
        <time>2019-06-11T17:19:20Z</time>
      </trkpt>
      <trkpt lat="46.16816" lon="6.50269">
        <ele>910</ele>
        <time>2019-06-11T17:19:21Z</time>
      </trkpt>
      <trkpt lat="46.16823" lon="6.50272">
        <ele>910</ele>
        <time>2019-06-11T17:19:23Z</time>
      </trkpt>
      <trkpt lat="46.16832" lon="6.50282">
        <ele>910</ele>
        <time>2019-06-11T17:19:25Z</time>
      </trkpt>
      <trkpt lat="46.16838" lon="6.50295">
        <ele>910</ele>
        <time>2019-06-11T17:19:27Z</time>
      </trkpt>
      <trkpt lat="46.16849" lon="6.50331">
        <ele>913</ele>
        <time>2019-06-11T17:19:31Z</time>
      </trkpt>
      <trkpt lat="46.16852" lon="6.50335">
        <ele>913</ele>
        <time>2019-06-11T17:19:32Z</time>
      </trkpt>
      <trkpt lat="46.16862" lon="6.50335">
        <ele>911</ele>
        <time>2019-06-11T17:19:34Z</time>
      </trkpt>
      <trkpt lat="46.16866" lon="6.50333">
        <ele>910</ele>
        <time>2019-06-11T17:19:35Z</time>
      </trkpt>
      <trkpt lat="46.16866" lon="6.50328">
        <ele>910</ele>
        <time>2019-06-11T17:19:35Z</time>
      </trkpt>
      <trkpt lat="46.16872" lon="6.50323">
        <ele>908</ele>
        <time>2019-06-11T17:19:37Z</time>
      </trkpt>
      <trkpt lat="46.16881" lon="6.50324">
        <ele>907</ele>
        <time>2019-06-11T17:19:38Z</time>
      </trkpt>
      <trkpt lat="46.16903" lon="6.50335">
        <ele>905</ele>
        <time>2019-06-11T17:19:42Z</time>
      </trkpt>
      <trkpt lat="46.16909" lon="6.50337">
        <ele>904</ele>
        <time>2019-06-11T17:19:43Z</time>
      </trkpt>
      <trkpt lat="46.16956" lon="6.50332">
        <ele>897</ele>
        <time>2019-06-11T17:19:52Z</time>
      </trkpt>
      <trkpt lat="46.16966" lon="6.50335">
        <ele>896</ele>
        <time>2019-06-11T17:19:54Z</time>
      </trkpt>
      <trkpt lat="46.17032" lon="6.50361">
        <ele>893</ele>
        <time>2019-06-11T17:20:06Z</time>
      </trkpt>
      <trkpt lat="46.17046" lon="6.50366">
        <ele>893</ele>
        <time>2019-06-11T17:20:08Z</time>
      </trkpt>
      <trkpt lat="46.17077" lon="6.5037">
        <ele>891</ele>
        <time>2019-06-11T17:20:14Z</time>
      </trkpt>
      <trkpt lat="46.17109" lon="6.50356">
        <ele>888</ele>
        <time>2019-06-11T17:20:20Z</time>
      </trkpt>
      <trkpt lat="46.17169" lon="6.50346">
        <ele>884</ele>
        <time>2019-06-11T17:20:31Z</time>
      </trkpt>
      <trkpt lat="46.17173" lon="6.50342">
        <ele>883</ele>
        <time>2019-06-11T17:20:31Z</time>
      </trkpt>
      <trkpt lat="46.1718" lon="6.50347">
        <ele>884</ele>
        <time>2019-06-11T17:20:33Z</time>
      </trkpt>
      <trkpt lat="46.17258" lon="6.50366">
        <ele>884</ele>
        <time>2019-06-11T17:20:47Z</time>
      </trkpt>
      <trkpt lat="46.17276" lon="6.5038">
        <ele>883</ele>
        <time>2019-06-11T17:20:51Z</time>
      </trkpt>
      <trkpt lat="46.17302" lon="6.50407">
        <ele>881</ele>
        <time>2019-06-11T17:20:56Z</time>
      </trkpt>
      <trkpt lat="46.17322" lon="6.50446">
        <ele>882</ele>
        <time>2019-06-11T17:21:02Z</time>
      </trkpt>
      <trkpt lat="46.17338" lon="6.5047">
        <ele>881</ele>
        <time>2019-06-11T17:21:06Z</time>
      </trkpt>
      <trkpt lat="46.17346" lon="6.5049">
        <ele>881</ele>
        <time>2019-06-11T17:21:09Z</time>
      </trkpt>
      <trkpt lat="46.17362" lon="6.50544">
        <ele>884</ele>
        <time>2019-06-11T17:21:16Z</time>
      </trkpt>
      <trkpt lat="46.17383" lon="6.50588">
        <ele>885</ele>
        <time>2019-06-11T17:21:23Z</time>
      </trkpt>
      <trkpt lat="46.17394" lon="6.50601">
        <ele>885</ele>
        <time>2019-06-11T17:21:26Z</time>
      </trkpt>
      <trkpt lat="46.17417" lon="6.50611">
        <ele>883</ele>
        <time>2019-06-11T17:21:30Z</time>
      </trkpt>
      <trkpt lat="46.17427" lon="6.50622">
        <ele>882</ele>
        <time>2019-06-11T17:21:32Z</time>
      </trkpt>
      <trkpt lat="46.17432" lon="6.5063">
        <ele>883</ele>
        <time>2019-06-11T17:21:33Z</time>
      </trkpt>
      <trkpt lat="46.17439" lon="6.50649">
        <ele>884</ele>
        <time>2019-06-11T17:21:36Z</time>
      </trkpt>
      <trkpt lat="46.17443" lon="6.50669">
        <ele>886</ele>
        <time>2019-06-11T17:21:39Z</time>
      </trkpt>
      <trkpt lat="46.17446" lon="6.50739">
        <ele>893</ele>
        <time>2019-06-11T17:21:47Z</time>
      </trkpt>
      <trkpt lat="46.17448" lon="6.50748">
        <ele>894</ele>
        <time>2019-06-11T17:21:48Z</time>
      </trkpt>
      <trkpt lat="46.17451" lon="6.50755">
        <ele>895</ele>
        <time>2019-06-11T17:21:49Z</time>
      </trkpt>
      <trkpt lat="46.1746" lon="6.50767">
        <ele>896</ele>
        <time>2019-06-11T17:21:52Z</time>
      </trkpt>
      <trkpt lat="46.17489" lon="6.50776">
        <ele>896</ele>
        <time>2019-06-11T17:21:57Z</time>
      </trkpt>
      <trkpt lat="46.17502" lon="6.50775">
        <ele>896</ele>
        <time>2019-06-11T17:21:59Z</time>
      </trkpt>
      <trkpt lat="46.17508" lon="6.5077">
        <ele>896</ele>
        <time>2019-06-11T17:22:00Z</time>
      </trkpt>
      <trkpt lat="46.17518" lon="6.50757">
        <ele>895</ele>
        <time>2019-06-11T17:22:03Z</time>
      </trkpt>
      <trkpt lat="46.17535" lon="6.50707">
        <ele>891</ele>
        <time>2019-06-11T17:22:10Z</time>
      </trkpt>
      <trkpt lat="46.17538" lon="6.50682">
        <ele>887</ele>
        <time>2019-06-11T17:22:13Z</time>
      </trkpt>
      <trkpt lat="46.17539" lon="6.50641">
        <ele>879</ele>
        <time>2019-06-11T17:22:18Z</time>
      </trkpt>
      <trkpt lat="46.17543" lon="6.50623">
        <ele>877</ele>
        <time>2019-06-11T17:22:20Z</time>
      </trkpt>
      <trkpt lat="46.17564" lon="6.50576">
        <ele>870</ele>
        <time>2019-06-11T17:22:27Z</time>
      </trkpt>
      <trkpt lat="46.17579" lon="6.50548">
        <ele>868</ele>
        <time>2019-06-11T17:22:31Z</time>
      </trkpt>
      <trkpt lat="46.1759" lon="6.50535">
        <ele>867</ele>
        <time>2019-06-11T17:22:34Z</time>
      </trkpt>
      <trkpt lat="46.17601" lon="6.50526">
        <ele>867</ele>
        <time>2019-06-11T17:22:36Z</time>
      </trkpt>
      <trkpt lat="46.17611" lon="6.50522">
        <ele>867</ele>
        <time>2019-06-11T17:22:38Z</time>
      </trkpt>
      <trkpt lat="46.17621" lon="6.5052">
        <ele>868</ele>
        <time>2019-06-11T17:22:40Z</time>
      </trkpt>
      <trkpt lat="46.17676" lon="6.50541">
        <ele>876</ele>
        <time>2019-06-11T17:22:50Z</time>
      </trkpt>
      <trkpt lat="46.17694" lon="6.50541">
        <ele>876</ele>
        <time>2019-06-11T17:22:53Z</time>
      </trkpt>
      <trkpt lat="46.17733" lon="6.50534">
        <ele>876</ele>
        <time>2019-06-11T17:23:00Z</time>
      </trkpt>
      <trkpt lat="46.17754" lon="6.50534">
        <ele>876</ele>
        <time>2019-06-11T17:23:04Z</time>
      </trkpt>
      <trkpt lat="46.17765" lon="6.50535">
        <ele>877</ele>
        <time>2019-06-11T17:23:06Z</time>
      </trkpt>
      <trkpt lat="46.17815" lon="6.5055">
        <ele>880</ele>
        <time>2019-06-11T17:23:15Z</time>
      </trkpt>
      <trkpt lat="46.17832" lon="6.50552">
        <ele>880</ele>
        <time>2019-06-11T17:23:18Z</time>
      </trkpt>
      <trkpt lat="46.17871" lon="6.50537">
        <ele>880</ele>
        <time>2019-06-11T17:23:25Z</time>
      </trkpt>
      <trkpt lat="46.17911" lon="6.50517">
        <ele>879</ele>
        <time>2019-06-11T17:23:33Z</time>
      </trkpt>
      <trkpt lat="46.1802" lon="6.50479">
        <ele>876</ele>
        <time>2019-06-11T17:23:53Z</time>
      </trkpt>
      <trkpt lat="46.18035" lon="6.5048">
        <ele>876</ele>
        <time>2019-06-11T17:23:55Z</time>
      </trkpt>
      <trkpt lat="46.18112" lon="6.50496">
        <ele>877</ele>
        <time>2019-06-11T17:24:09Z</time>
      </trkpt>
      <trkpt lat="46.18159" lon="6.5052">
        <ele>880</ele>
        <time>2019-06-11T17:24:18Z</time>
      </trkpt>
      <trkpt lat="46.18178" lon="6.50524">
        <ele>881</ele>
        <time>2019-06-11T17:24:21Z</time>
      </trkpt>
      <trkpt lat="46.18227" lon="6.50525">
        <ele>883</ele>
        <time>2019-06-11T17:24:30Z</time>
      </trkpt>
      <trkpt lat="46.18301" lon="6.50548">
        <ele>890</ele>
        <time>2019-06-11T17:24:44Z</time>
      </trkpt>
      <trkpt lat="46.18315" lon="6.50548">
        <ele>891</ele>
        <time>2019-06-11T17:24:46Z</time>
      </trkpt>
      <trkpt lat="46.18329" lon="6.50541">
        <ele>892</ele>
        <time>2019-06-11T17:24:49Z</time>
      </trkpt>
      <trkpt lat="46.18341" lon="6.5053">
        <ele>892</ele>
        <time>2019-06-11T17:24:51Z</time>
      </trkpt>
      <trkpt lat="46.18349" lon="6.5051">
        <ele>892</ele>
        <time>2019-06-11T17:24:54Z</time>
      </trkpt>
      <trkpt lat="46.18356" lon="6.50482">
        <ele>891</ele>
        <time>2019-06-11T17:24:58Z</time>
      </trkpt>
      <trkpt lat="46.18368" lon="6.50417">
        <ele>888</ele>
        <time>2019-06-11T17:25:06Z</time>
      </trkpt>
      <trkpt lat="46.18376" lon="6.50396">
        <ele>889</ele>
        <time>2019-06-11T17:25:09Z</time>
      </trkpt>
      <trkpt lat="46.18389" lon="6.50378">
        <ele>891</ele>
        <time>2019-06-11T17:25:12Z</time>
      </trkpt>
      <trkpt lat="46.18406" lon="6.50364">
        <ele>896</ele>
        <time>2019-06-11T17:25:16Z</time>
      </trkpt>
      <trkpt lat="46.18418" lon="6.50358">
        <ele>898</ele>
        <time>2019-06-11T17:25:18Z</time>
      </trkpt>
      <trkpt lat="46.18432" lon="6.50359">
        <ele>899</ele>
        <time>2019-06-11T17:25:21Z</time>
      </trkpt>
      <trkpt lat="46.18474" lon="6.50374">
        <ele>901</ele>
        <time>2019-06-11T17:25:28Z</time>
      </trkpt>
      <trkpt lat="46.18489" lon="6.50376">
        <ele>902</ele>
        <time>2019-06-11T17:25:31Z</time>
      </trkpt>
      <trkpt lat="46.18505" lon="6.50373">
        <ele>902</ele>
        <time>2019-06-11T17:25:34Z</time>
      </trkpt>
      <trkpt lat="46.18539" lon="6.50358">
        <ele>904</ele>
        <time>2019-06-11T17:25:40Z</time>
      </trkpt>
      <trkpt lat="46.18546" lon="6.50357">
        <ele>905</ele>
        <time>2019-06-11T17:25:41Z</time>
      </trkpt>
      <trkpt lat="46.18559" lon="6.50362">
        <ele>906</ele>
        <time>2019-06-11T17:25:44Z</time>
      </trkpt>
      <trkpt lat="46.18576" lon="6.50377">
        <ele>909</ele>
        <time>2019-06-11T17:25:47Z</time>
      </trkpt>
      <trkpt lat="46.18589" lon="6.50379">
        <ele>910</ele>
        <time>2019-06-11T17:25:50Z</time>
      </trkpt>
      <trkpt lat="46.18605" lon="6.50373">
        <ele>910</ele>
        <time>2019-06-11T17:25:53Z</time>
      </trkpt>
      <trkpt lat="46.18623" lon="6.50358">
        <ele>910</ele>
        <time>2019-06-11T17:25:56Z</time>
      </trkpt>
      <trkpt lat="46.18651" lon="6.50325">
        <ele>910</ele>
        <time>2019-06-11T17:26:03Z</time>
      </trkpt>
      <trkpt lat="46.18659" lon="6.50322">
        <ele>910</ele>
        <time>2019-06-11T17:26:04Z</time>
      </trkpt>
      <trkpt lat="46.18667" lon="6.50323">
        <ele>911</ele>
        <time>2019-06-11T17:26:06Z</time>
      </trkpt>
      <trkpt lat="46.18767" lon="6.50348">
        <ele>918</ele>
        <time>2019-06-11T17:26:24Z</time>
      </trkpt>
      <trkpt lat="46.18801" lon="6.50346">
        <ele>918</ele>
        <time>2019-06-11T17:26:30Z</time>
      </trkpt>
      <trkpt lat="46.18828" lon="6.50338">
        <ele>918</ele>
        <time>2019-06-11T17:26:35Z</time>
      </trkpt>
      <trkpt lat="46.18886" lon="6.50311">
        <ele>917</ele>
        <time>2019-06-11T17:26:45Z</time>
      </trkpt>
      <trkpt lat="46.18901" lon="6.50307">
        <ele>916</ele>
        <time>2019-06-11T17:26:48Z</time>
      </trkpt>
      <trkpt lat="46.18955" lon="6.50296">
        <ele>912</ele>
        <time>2019-06-11T17:26:58Z</time>
      </trkpt>
      <trkpt lat="46.18968" lon="6.50296">
        <ele>911</ele>
        <time>2019-06-11T17:27:00Z</time>
      </trkpt>
      <trkpt lat="46.18989" lon="6.50303">
        <ele>910</ele>
        <time>2019-06-11T17:27:04Z</time>
      </trkpt>
      <trkpt lat="46.19043" lon="6.50338">
        <ele>911</ele>
        <time>2019-06-11T17:27:15Z</time>
      </trkpt>
      <trkpt lat="46.19053" lon="6.5034">
        <ele>910</ele>
        <time>2019-06-11T17:27:16Z</time>
      </trkpt>
      <trkpt lat="46.19088" lon="6.50343">
        <ele>908</ele>
        <time>2019-06-11T17:27:23Z</time>
      </trkpt>
      <trkpt lat="46.19156" lon="6.50381">
        <ele>911</ele>
        <time>2019-06-11T17:27:36Z</time>
      </trkpt>
      <trkpt lat="46.19166" lon="6.5039">
        <ele>911</ele>
        <time>2019-06-11T17:27:38Z</time>
      </trkpt>
      <trkpt lat="46.19173" lon="6.50403">
        <ele>912</ele>
        <time>2019-06-11T17:27:40Z</time>
      </trkpt>
      <trkpt lat="46.19202" lon="6.50485">
        <ele>917</ele>
        <time>2019-06-11T17:27:51Z</time>
      </trkpt>
      <trkpt lat="46.19205" lon="6.5049">
        <ele>917</ele>
        <time>2019-06-11T17:27:52Z</time>
      </trkpt>
      <trkpt lat="46.19215" lon="6.50496">
        <ele>916</ele>
        <time>2019-06-11T17:27:54Z</time>
      </trkpt>
      <trkpt lat="46.19233" lon="6.50496">
        <ele>912</ele>
        <time>2019-06-11T17:27:57Z</time>
      </trkpt>
      <trkpt lat="46.19244" lon="6.50493">
        <ele>910</ele>
        <time>2019-06-11T17:27:59Z</time>
      </trkpt>
      <trkpt lat="46.19266" lon="6.50476">
        <ele>909</ele>
        <time>2019-06-11T17:28:03Z</time>
      </trkpt>
      <trkpt lat="46.19281" lon="6.50455">
        <ele>908</ele>
        <time>2019-06-11T17:28:07Z</time>
      </trkpt>
      <trkpt lat="46.19289" lon="6.50447">
        <ele>908</ele>
        <time>2019-06-11T17:28:09Z</time>
      </trkpt>
      <trkpt lat="46.19296" lon="6.50443">
        <ele>909</ele>
        <time>2019-06-11T17:28:10Z</time>
      </trkpt>
      <trkpt lat="46.19306" lon="6.50442">
        <ele>909</ele>
        <time>2019-06-11T17:28:12Z</time>
      </trkpt>
      <trkpt lat="46.19343" lon="6.5045">
        <ele>911</ele>
        <time>2019-06-11T17:28:19Z</time>
      </trkpt>
      <trkpt lat="46.1939" lon="6.50452">
        <ele>910</ele>
        <time>2019-06-11T17:28:27Z</time>
      </trkpt>
      <trkpt lat="46.19482" lon="6.5047">
        <ele>908</ele>
        <time>2019-06-11T17:28:43Z</time>
      </trkpt>
      <trkpt lat="46.19533" lon="6.50458">
        <ele>906</ele>
        <time>2019-06-11T17:28:53Z</time>
      </trkpt>
      <trkpt lat="46.19541" lon="6.50454">
        <ele>905</ele>
        <time>2019-06-11T17:28:54Z</time>
      </trkpt>
      <trkpt lat="46.19547" lon="6.50446">
        <ele>905</ele>
        <time>2019-06-11T17:28:56Z</time>
      </trkpt>
      <trkpt lat="46.1955" lon="6.50438">
        <ele>904</ele>
        <time>2019-06-11T17:28:57Z</time>
      </trkpt>
      <trkpt lat="46.19553" lon="6.50426">
        <ele>902</ele>
        <time>2019-06-11T17:28:58Z</time>
      </trkpt>
      <trkpt lat="46.19555" lon="6.50407">
        <ele>900</ele>
        <time>2019-06-11T17:29:01Z</time>
      </trkpt>
      <trkpt lat="46.19563" lon="6.50384">
        <ele>899</ele>
        <time>2019-06-11T17:29:04Z</time>
      </trkpt>
      <trkpt lat="46.19569" lon="6.50375">
        <ele>898</ele>
        <time>2019-06-11T17:29:05Z</time>
      </trkpt>
      <trkpt lat="46.19575" lon="6.50369">
        <ele>898</ele>
        <time>2019-06-11T17:29:07Z</time>
      </trkpt>
      <trkpt lat="46.196" lon="6.5035">
        <ele>897</ele>
        <time>2019-06-11T17:29:12Z</time>
      </trkpt>
      <trkpt lat="46.19612" lon="6.50346">
        <ele>897</ele>
        <time>2019-06-11T17:29:14Z</time>
      </trkpt>
      <trkpt lat="46.19751" lon="6.50318">
        <ele>895</ele>
        <time>2019-06-11T17:29:39Z</time>
      </trkpt>
      <trkpt lat="46.19846" lon="6.50275">
        <ele>890</ele>
        <time>2019-06-11T17:29:57Z</time>
      </trkpt>
      <trkpt lat="46.19858" lon="6.50264">
        <ele>890</ele>
        <time>2019-06-11T17:29:59Z</time>
      </trkpt>
      <trkpt lat="46.19864" lon="6.50257">
        <ele>890</ele>
        <time>2019-06-11T17:30:01Z</time>
      </trkpt>
      <trkpt lat="46.19867" lon="6.50248">
        <ele>889</ele>
        <time>2019-06-11T17:30:02Z</time>
      </trkpt>
      <trkpt lat="46.1987" lon="6.50234">
        <ele>888</ele>
        <time>2019-06-11T17:30:04Z</time>
      </trkpt>
      <trkpt lat="46.19872" lon="6.5021">
        <ele>887</ele>
        <time>2019-06-11T17:30:07Z</time>
      </trkpt>
      <trkpt lat="46.19869" lon="6.5002">
        <ele>879</ele>
        <time>2019-06-11T17:30:30Z</time>
      </trkpt>
      <trkpt lat="46.19873" lon="6.49988">
        <ele>878</ele>
        <time>2019-06-11T17:30:34Z</time>
      </trkpt>
      <trkpt lat="46.19878" lon="6.49973">
        <ele>878</ele>
        <time>2019-06-11T17:30:36Z</time>
      </trkpt>
      <trkpt lat="46.19883" lon="6.49958">
        <ele>878</ele>
        <time>2019-06-11T17:30:38Z</time>
      </trkpt>
      <trkpt lat="46.19892" lon="6.49943">
        <ele>878</ele>
        <time>2019-06-11T17:30:40Z</time>
      </trkpt>
      <trkpt lat="46.19978" lon="6.49831">
        <ele>886</ele>
        <time>2019-06-11T17:31:01Z</time>
      </trkpt>
      <trkpt lat="46.19983" lon="6.49822">
        <ele>887</ele>
        <time>2019-06-11T17:31:03Z</time>
      </trkpt>
      <trkpt lat="46.19985" lon="6.49811">
        <ele>887</ele>
        <time>2019-06-11T17:31:04Z</time>
      </trkpt>
      <trkpt lat="46.20005" lon="6.49811">
        <ele>887</ele>
        <time>2019-06-11T17:31:07Z</time>
      </trkpt>
      <trkpt lat="46.21013" lon="6.50142">
        <ele>892</ele>
        <time>2019-06-11T17:34:11Z</time>
      </trkpt>
      <trkpt lat="46.21462" lon="6.50294">
        <ele>909</ele>
        <time>2019-06-11T17:35:33Z</time>
      </trkpt>
      <trkpt lat="46.21487" lon="6.50307">
        <ele>910</ele>
        <time>2019-06-11T17:35:38Z</time>
      </trkpt>
      <trkpt lat="46.21511" lon="6.50326">
        <ele>911</ele>
        <time>2019-06-11T17:35:43Z</time>
      </trkpt>
      <trkpt lat="46.21532" lon="6.50347">
        <ele>912</ele>
        <time>2019-06-11T17:35:48Z</time>
      </trkpt>
      <trkpt lat="46.21769" lon="6.50624">
        <ele>942</ele>
        <time>2019-06-11T17:36:42Z</time>
      </trkpt>
      <trkpt lat="46.21812" lon="6.50686">
        <ele>945</ele>
        <time>2019-06-11T17:36:53Z</time>
      </trkpt>
      <trkpt lat="46.2196" lon="6.50841">
        <ele>952</ele>
        <time>2019-06-11T17:37:25Z</time>
      </trkpt>
      <trkpt lat="46.22004" lon="6.5087">
        <ele>954</ele>
        <time>2019-06-11T17:37:34Z</time>
      </trkpt>
      <trkpt lat="46.22052" lon="6.50916">
        <ele>956</ele>
        <time>2019-06-11T17:37:44Z</time>
      </trkpt>
      <trkpt lat="46.22094" lon="6.50945">
        <ele>957</ele>
        <time>2019-06-11T17:37:52Z</time>
      </trkpt>
      <trkpt lat="46.2218" lon="6.51026">
        <ele>966</ele>
        <time>2019-06-11T17:38:11Z</time>
      </trkpt>
      <trkpt lat="46.22263" lon="6.51085">
        <ele>967</ele>
        <time>2019-06-11T17:38:27Z</time>
      </trkpt>
      <trkpt lat="46.22317" lon="6.51135">
        <ele>972</ele>
        <time>2019-06-11T17:38:38Z</time>
      </trkpt>
      <trkpt lat="46.22329" lon="6.51153">
        <ele>976</ele>
        <time>2019-06-11T17:38:41Z</time>
      </trkpt>
      <trkpt lat="46.22342" lon="6.51163">
        <ele>977</ele>
        <time>2019-06-11T17:38:44Z</time>
      </trkpt>
      <trkpt lat="46.22372" lon="6.51169">
        <ele>970</ele>
        <time>2019-06-11T17:38:50Z</time>
      </trkpt>
      <trkpt lat="46.22452" lon="6.51234">
        <ele>974</ele>
        <time>2019-06-11T17:39:06Z</time>
      </trkpt>
      <trkpt lat="46.22498" lon="6.51304">
        <ele>986</ele>
        <time>2019-06-11T17:39:18Z</time>
      </trkpt>
      <trkpt lat="46.22604" lon="6.51362">
        <ele>984</ele>
        <time>2019-06-11T17:39:38Z</time>
      </trkpt>
      <trkpt lat="46.22637" lon="6.51385">
        <ele>987</ele>
        <time>2019-06-11T17:39:44Z</time>
      </trkpt>
      <trkpt lat="46.22674" lon="6.51422">
        <ele>995</ele>
        <time>2019-06-11T17:39:52Z</time>
      </trkpt>
      <trkpt lat="46.22695" lon="6.51438">
        <ele>999</ele>
        <time>2019-06-11T17:39:57Z</time>
      </trkpt>
      <trkpt lat="46.22782" lon="6.51489">
        <ele>1008</ele>
        <time>2019-06-11T17:40:13Z</time>
      </trkpt>
      <trkpt lat="46.22802" lon="6.51491">
        <ele>1006</ele>
        <time>2019-06-11T17:40:17Z</time>
      </trkpt>
      <trkpt lat="46.22816" lon="6.51498">
        <ele>1007</ele>
        <time>2019-06-11T17:40:20Z</time>
      </trkpt>
      <trkpt lat="46.22855" lon="6.51533">
        <ele>1018</ele>
        <time>2019-06-11T17:40:28Z</time>
      </trkpt>
      <trkpt lat="46.22874" lon="6.51543">
        <ele>1020</ele>
        <time>2019-06-11T17:40:31Z</time>
      </trkpt>
      <trkpt lat="46.22887" lon="6.51545">
        <ele>1019</ele>
        <time>2019-06-11T17:40:34Z</time>
      </trkpt>
      <trkpt lat="46.22924" lon="6.51538">
        <ele>1008</ele>
        <time>2019-06-11T17:40:40Z</time>
      </trkpt>
      <trkpt lat="46.22944" lon="6.51547">
        <ele>1009</ele>
        <time>2019-06-11T17:40:44Z</time>
      </trkpt>
      <trkpt lat="46.23042" lon="6.51602">
        <ele>1018</ele>
        <time>2019-06-11T17:41:03Z</time>
      </trkpt>
      <trkpt lat="46.23081" lon="6.51629">
        <ele>1024</ele>
        <time>2019-06-11T17:41:10Z</time>
      </trkpt>
      <trkpt lat="46.23129" lon="6.51673">
        <ele>1027</ele>
        <time>2019-06-11T17:41:21Z</time>
      </trkpt>
      <trkpt lat="46.23161" lon="6.51693">
        <ele>1023</ele>
        <time>2019-06-11T17:41:27Z</time>
      </trkpt>
      <trkpt lat="46.23264" lon="6.51774">
        <ele>1033</ele>
        <time>2019-06-11T17:41:48Z</time>
      </trkpt>
      <trkpt lat="46.23299" lon="6.51794">
        <ele>1034</ele>
        <time>2019-06-11T17:41:54Z</time>
      </trkpt>
      <trkpt lat="46.23344" lon="6.51831">
        <ele>1042</ele>
        <time>2019-06-11T17:42:03Z</time>
      </trkpt>
      <trkpt lat="46.23401" lon="6.51886">
        <ele>1043</ele>
        <time>2019-06-11T17:42:16Z</time>
      </trkpt>
      <trkpt lat="46.23418" lon="6.51896">
        <ele>1041</ele>
        <time>2019-06-11T17:42:19Z</time>
      </trkpt>
      <trkpt lat="46.23458" lon="6.51928">
        <ele>1044</ele>
        <time>2019-06-11T17:42:27Z</time>
      </trkpt>
      <trkpt lat="46.23503" lon="6.51989">
        <ele>1040</ele>
        <time>2019-06-11T17:42:38Z</time>
      </trkpt>
      <trkpt lat="46.23509" lon="6.52004">
        <ele>1041</ele>
        <time>2019-06-11T17:42:40Z</time>
      </trkpt>
      <trkpt lat="46.23511" lon="6.52031">
        <ele>1040</ele>
        <time>2019-06-11T17:42:44Z</time>
      </trkpt>
      <trkpt lat="46.23501" lon="6.52263">
        <ele>1034</ele>
        <time>2019-06-11T17:43:12Z</time>
      </trkpt>
      <trkpt lat="46.23506" lon="6.523">
        <ele>1036</ele>
        <time>2019-06-11T17:43:17Z</time>
      </trkpt>
      <trkpt lat="46.23513" lon="6.52323">
        <ele>1037</ele>
        <time>2019-06-11T17:43:20Z</time>
      </trkpt>
      <trkpt lat="46.23598" lon="6.52524">
        <ele>1024</ele>
        <time>2019-06-11T17:43:49Z</time>
      </trkpt>
      <trkpt lat="46.23612" lon="6.52551">
        <ele>1022</ele>
        <time>2019-06-11T17:43:53Z</time>
      </trkpt>
      <trkpt lat="46.23629" lon="6.5257">
        <ele>1021</ele>
        <time>2019-06-11T17:43:57Z</time>
      </trkpt>
      <trkpt lat="46.23637" lon="6.52575">
        <ele>1021</ele>
        <time>2019-06-11T17:43:58Z</time>
      </trkpt>
      <trkpt lat="46.23679" lon="6.5259">
        <ele>1023</ele>
        <time>2019-06-11T17:44:06Z</time>
      </trkpt>
      <trkpt lat="46.23688" lon="6.52596">
        <ele>1023</ele>
        <time>2019-06-11T17:44:08Z</time>
      </trkpt>
      <trkpt lat="46.23699" lon="6.52611">
        <ele>1022</ele>
        <time>2019-06-11T17:44:11Z</time>
      </trkpt>
      <trkpt lat="46.2372" lon="6.52651">
        <ele>1015</ele>
        <time>2019-06-11T17:44:17Z</time>
      </trkpt>
      <trkpt lat="46.23728" lon="6.5266">
        <ele>1014</ele>
        <time>2019-06-11T17:44:19Z</time>
      </trkpt>
      <trkpt lat="46.23742" lon="6.5267">
        <ele>1013</ele>
        <time>2019-06-11T17:44:21Z</time>
      </trkpt>
      <trkpt lat="46.23757" lon="6.52672">
        <ele>1013</ele>
        <time>2019-06-11T17:44:24Z</time>
      </trkpt>
      <trkpt lat="46.23809" lon="6.52669">
        <ele>1015</ele>
        <time>2019-06-11T17:44:33Z</time>
      </trkpt>
      <trkpt lat="46.23899" lon="6.52693">
        <ele>1014</ele>
        <time>2019-06-11T17:44:50Z</time>
      </trkpt>
      <trkpt lat="46.23917" lon="6.52693">
        <ele>1015</ele>
        <time>2019-06-11T17:44:53Z</time>
      </trkpt>
      <trkpt lat="46.23927" lon="6.52699">
        <ele>1013</ele>
        <time>2019-06-11T17:44:55Z</time>
      </trkpt>
      <trkpt lat="46.23934" lon="6.527">
        <ele>1013</ele>
        <time>2019-06-11T17:44:56Z</time>
      </trkpt>
      <trkpt lat="46.2394" lon="6.52705">
        <ele>1012</ele>
        <time>2019-06-11T17:44:57Z</time>
      </trkpt>
      <trkpt lat="46.24021" lon="6.52708">
        <ele>1004</ele>
        <time>2019-06-11T17:45:12Z</time>
      </trkpt>
      <trkpt lat="46.2403" lon="6.52705">
        <ele>1003</ele>
        <time>2019-06-11T17:45:13Z</time>
      </trkpt>
      <trkpt lat="46.24037" lon="6.52699">
        <ele>1003</ele>
        <time>2019-06-11T17:45:15Z</time>
      </trkpt>
      <trkpt lat="46.24045" lon="6.52684">
        <ele>1004</ele>
        <time>2019-06-11T17:45:17Z</time>
      </trkpt>
      <trkpt lat="46.24061" lon="6.5262">
        <ele>1017</ele>
        <time>2019-06-11T17:45:25Z</time>
      </trkpt>
      <trkpt lat="46.24063" lon="6.52614">
        <ele>1019</ele>
        <time>2019-06-11T17:45:26Z</time>
      </trkpt>
      <trkpt lat="46.24069" lon="6.52604">
        <ele>1020</ele>
        <time>2019-06-11T17:45:28Z</time>
      </trkpt>
      <trkpt lat="46.24077" lon="6.526">
        <ele>1020</ele>
        <time>2019-06-11T17:45:29Z</time>
      </trkpt>
      <trkpt lat="46.24115" lon="6.52599">
        <ele>1018</ele>
        <time>2019-06-11T17:45:36Z</time>
      </trkpt>
      <trkpt lat="46.24121" lon="6.52601">
        <ele>1017</ele>
        <time>2019-06-11T17:45:37Z</time>
      </trkpt>
      <trkpt lat="46.24131" lon="6.52606">
        <ele>1016</ele>
        <time>2019-06-11T17:45:39Z</time>
      </trkpt>
      <trkpt lat="46.24139" lon="6.52616">
        <ele>1013</ele>
        <time>2019-06-11T17:45:41Z</time>
      </trkpt>
      <trkpt lat="46.24143" lon="6.52623">
        <ele>1011</ele>
        <time>2019-06-11T17:45:42Z</time>
      </trkpt>
      <trkpt lat="46.24158" lon="6.52661">
        <ele>1000</ele>
        <time>2019-06-11T17:45:47Z</time>
      </trkpt>
      <trkpt lat="46.24168" lon="6.52677">
        <ele>995</ele>
        <time>2019-06-11T17:45:50Z</time>
      </trkpt>
      <trkpt lat="46.2418" lon="6.52683">
        <ele>996</ele>
        <time>2019-06-11T17:45:52Z</time>
      </trkpt>
      <trkpt lat="46.24219" lon="6.5269">
        <ele>1000</ele>
        <time>2019-06-11T17:45:59Z</time>
      </trkpt>
      <trkpt lat="46.24235" lon="6.527">
        <ele>1000</ele>
        <time>2019-06-11T17:46:02Z</time>
      </trkpt>
      <trkpt lat="46.24247" lon="6.52713">
        <ele>999</ele>
        <time>2019-06-11T17:46:05Z</time>
      </trkpt>
      <trkpt lat="46.24318" lon="6.52807">
        <ele>994</ele>
        <time>2019-06-11T17:46:22Z</time>
      </trkpt>
      <trkpt lat="46.24332" lon="6.52833">
        <ele>993</ele>
        <time>2019-06-11T17:46:26Z</time>
      </trkpt>
      <trkpt lat="46.24341" lon="6.52844">
        <ele>991</ele>
        <time>2019-06-11T17:46:28Z</time>
      </trkpt>
      <trkpt lat="46.2435" lon="6.52847">
        <ele>991</ele>
        <time>2019-06-11T17:46:30Z</time>
      </trkpt>
      <trkpt lat="46.24388" lon="6.52836">
        <ele>993</ele>
        <time>2019-06-11T17:46:37Z</time>
      </trkpt>
      <trkpt lat="46.24435" lon="6.52832">
        <ele>992</ele>
        <time>2019-06-11T17:46:45Z</time>
      </trkpt>
      <trkpt lat="46.24485" lon="6.52812">
        <ele>993</ele>
        <time>2019-06-11T17:46:55Z</time>
      </trkpt>
      <trkpt lat="46.24491" lon="6.52808">
        <ele>994</ele>
        <time>2019-06-11T17:46:56Z</time>
      </trkpt>
      <trkpt lat="46.245" lon="6.52798">
        <ele>996</ele>
        <time>2019-06-11T17:46:58Z</time>
      </trkpt>
      <trkpt lat="46.24514" lon="6.52771">
        <ele>999</ele>
        <time>2019-06-11T17:47:02Z</time>
      </trkpt>
      <trkpt lat="46.24521" lon="6.5276">
        <ele>1000</ele>
        <time>2019-06-11T17:47:04Z</time>
      </trkpt>
      <trkpt lat="46.24525" lon="6.52756">
        <ele>1001</ele>
        <time>2019-06-11T17:47:05Z</time>
      </trkpt>
      <trkpt lat="46.24535" lon="6.5275">
        <ele>1000</ele>
        <time>2019-06-11T17:47:07Z</time>
      </trkpt>
      <trkpt lat="46.24545" lon="6.52749">
        <ele>997</ele>
        <time>2019-06-11T17:47:08Z</time>
      </trkpt>
      <trkpt lat="46.24552" lon="6.52751">
        <ele>995</ele>
        <time>2019-06-11T17:47:10Z</time>
      </trkpt>
      <trkpt lat="46.24588" lon="6.52769">
        <ele>982</ele>
        <time>2019-06-11T17:47:16Z</time>
      </trkpt>
      <trkpt lat="46.24599" lon="6.52773">
        <ele>979</ele>
        <time>2019-06-11T17:47:18Z</time>
      </trkpt>
      <trkpt lat="46.24609" lon="6.52772">
        <ele>977</ele>
        <time>2019-06-11T17:47:20Z</time>
      </trkpt>
      <trkpt lat="46.24638" lon="6.52761">
        <ele>974</ele>
        <time>2019-06-11T17:47:25Z</time>
      </trkpt>
      <trkpt lat="46.24654" lon="6.52751">
        <ele>973</ele>
        <time>2019-06-11T17:47:29Z</time>
      </trkpt>
      <trkpt lat="46.24685" lon="6.52716">
        <ele>977</ele>
        <time>2019-06-11T17:47:36Z</time>
      </trkpt>
      <trkpt lat="46.24704" lon="6.52702">
        <ele>978</ele>
        <time>2019-06-11T17:47:39Z</time>
      </trkpt>
      <trkpt lat="46.24769" lon="6.52677">
        <ele>969</ele>
        <time>2019-06-11T17:47:51Z</time>
      </trkpt>
      <trkpt lat="46.24869" lon="6.52616">
        <ele>967</ele>
        <time>2019-06-11T17:48:11Z</time>
      </trkpt>
      <trkpt lat="46.24906" lon="6.526">
        <ele>967</ele>
        <time>2019-06-11T17:48:18Z</time>
      </trkpt>
      <trkpt lat="46.24925" lon="6.52594">
        <ele>967</ele>
        <time>2019-06-11T17:48:21Z</time>
      </trkpt>
      <trkpt lat="46.24951" lon="6.52589">
        <ele>967</ele>
        <time>2019-06-11T17:48:26Z</time>
      </trkpt>
      <trkpt lat="46.24972" lon="6.52592">
        <ele>964</ele>
        <time>2019-06-11T17:48:29Z</time>
      </trkpt>
      <trkpt lat="46.2498" lon="6.52596">
        <ele>962</ele>
        <time>2019-06-11T17:48:31Z</time>
      </trkpt>
      <trkpt lat="46.25012" lon="6.52619">
        <ele>954</ele>
        <time>2019-06-11T17:48:37Z</time>
      </trkpt>
      <trkpt lat="46.25022" lon="6.52623">
        <ele>953</ele>
        <time>2019-06-11T17:48:39Z</time>
      </trkpt>
      <trkpt lat="46.25066" lon="6.52626">
        <ele>954</ele>
        <time>2019-06-11T17:48:47Z</time>
      </trkpt>
      <trkpt lat="46.25107" lon="6.52634">
        <ele>953</ele>
        <time>2019-06-11T17:48:54Z</time>
      </trkpt>
      <trkpt lat="46.25124" lon="6.5264">
        <ele>951</ele>
        <time>2019-06-11T17:48:57Z</time>
      </trkpt>
      <trkpt lat="46.25225" lon="6.52718">
        <ele>935</ele>
        <time>2019-06-11T17:49:18Z</time>
      </trkpt>
      <trkpt lat="46.25235" lon="6.52722">
        <ele>935</ele>
        <time>2019-06-11T17:49:20Z</time>
      </trkpt>
      <trkpt lat="46.25262" lon="6.5272">
        <ele>937</ele>
        <time>2019-06-11T17:49:24Z</time>
      </trkpt>
      <trkpt lat="46.25281" lon="6.52723">
        <ele>937</ele>
        <time>2019-06-11T17:49:28Z</time>
      </trkpt>
      <trkpt lat="46.25368" lon="6.52768">
        <ele>932</ele>
        <time>2019-06-11T17:49:44Z</time>
      </trkpt>
      <trkpt lat="46.25411" lon="6.52784">
        <ele>932</ele>
        <time>2019-06-11T17:49:52Z</time>
      </trkpt>
      <trkpt lat="46.25425" lon="6.52795">
        <ele>933</ele>
        <time>2019-06-11T17:49:55Z</time>
      </trkpt>
      <trkpt lat="46.25436" lon="6.52809">
        <ele>933</ele>
        <time>2019-06-11T17:49:58Z</time>
      </trkpt>
      <trkpt lat="46.25481" lon="6.52887">
        <ele>924</ele>
        <time>2019-06-11T17:50:10Z</time>
      </trkpt>
      <trkpt lat="46.25493" lon="6.52905">
        <ele>922</ele>
        <time>2019-06-11T17:50:13Z</time>
      </trkpt>
      <trkpt lat="46.25501" lon="6.52913">
        <ele>921</ele>
        <time>2019-06-11T17:50:15Z</time>
      </trkpt>
      <trkpt lat="46.25536" lon="6.52935">
        <ele>921</ele>
        <time>2019-06-11T17:50:22Z</time>
      </trkpt>
      <trkpt lat="46.25585" lon="6.52958">
        <ele>922</ele>
        <time>2019-06-11T17:50:31Z</time>
      </trkpt>
      <trkpt lat="46.25599" lon="6.52969">
        <ele>923</ele>
        <time>2019-06-11T17:50:34Z</time>
      </trkpt>
      <trkpt lat="46.25713" lon="6.53127">
        <ele>909</ele>
        <time>2019-06-11T17:51:02Z</time>
      </trkpt>
      <trkpt lat="46.25745" lon="6.53167">
        <ele>904</ele>
        <time>2019-06-11T17:51:09Z</time>
      </trkpt>
      <trkpt lat="46.25767" lon="6.53191">
        <ele>906</ele>
        <time>2019-06-11T17:51:14Z</time>
      </trkpt>
      <trkpt lat="46.25801" lon="6.53216">
        <ele>908</ele>
        <time>2019-06-11T17:51:21Z</time>
      </trkpt>
      <trkpt lat="46.25837" lon="6.53239">
        <ele>907</ele>
        <time>2019-06-11T17:51:28Z</time>
      </trkpt>
      <trkpt lat="46.25855" lon="6.53252">
        <ele>909</ele>
        <time>2019-06-11T17:51:32Z</time>
      </trkpt>
      <trkpt lat="46.25887" lon="6.53284">
        <ele>909</ele>
        <time>2019-06-11T17:51:39Z</time>
      </trkpt>
      <trkpt lat="46.25955" lon="6.53336">
        <ele>902</ele>
        <time>2019-06-11T17:51:52Z</time>
      </trkpt>
      <trkpt lat="46.26049" lon="6.53418">
        <ele>891</ele>
        <time>2019-06-11T17:52:12Z</time>
      </trkpt>
      <trkpt lat="46.26067" lon="6.53431">
        <ele>892</ele>
        <time>2019-06-11T17:52:15Z</time>
      </trkpt>
      <trkpt lat="46.26101" lon="6.5345">
        <ele>892</ele>
        <time>2019-06-11T17:52:22Z</time>
      </trkpt>
      <trkpt lat="46.26144" lon="6.53486">
        <ele>887</ele>
        <time>2019-06-11T17:52:31Z</time>
      </trkpt>
      <trkpt lat="46.26187" lon="6.53505">
        <ele>885</ele>
        <time>2019-06-11T17:52:39Z</time>
      </trkpt>
      <trkpt lat="46.26208" lon="6.53516">
        <ele>885</ele>
        <time>2019-06-11T17:52:43Z</time>
      </trkpt>
      <trkpt lat="46.26282" lon="6.53569">
        <ele>877</ele>
        <time>2019-06-11T17:52:57Z</time>
      </trkpt>
      <trkpt lat="46.26297" lon="6.53575">
        <ele>875</ele>
        <time>2019-06-11T17:53:00Z</time>
      </trkpt>
      <trkpt lat="46.26315" lon="6.53576">
        <ele>875</ele>
        <time>2019-06-11T17:53:03Z</time>
      </trkpt>
      <trkpt lat="46.26417" lon="6.53561">
        <ele>875</ele>
        <time>2019-06-11T17:53:22Z</time>
      </trkpt>
      <trkpt lat="46.26435" lon="6.53562">
        <ele>876</ele>
        <time>2019-06-11T17:53:25Z</time>
      </trkpt>
      <trkpt lat="46.26446" lon="6.53564">
        <ele>877</ele>
        <time>2019-06-11T17:53:27Z</time>
      </trkpt>
      <trkpt lat="46.2651" lon="6.53593">
        <ele>876</ele>
        <time>2019-06-11T17:53:39Z</time>
      </trkpt>
      <trkpt lat="46.26521" lon="6.536">
        <ele>877</ele>
        <time>2019-06-11T17:53:41Z</time>
      </trkpt>
      <trkpt lat="46.26554" lon="6.53628">
        <ele>877</ele>
        <time>2019-06-11T17:53:48Z</time>
      </trkpt>
      <trkpt lat="46.26606" lon="6.53691">
        <ele>868</ele>
        <time>2019-06-11T17:54:00Z</time>
      </trkpt>
      <trkpt lat="46.26635" lon="6.53721">
        <ele>868</ele>
        <time>2019-06-11T17:54:06Z</time>
      </trkpt>
      <trkpt lat="46.26696" lon="6.53795">
        <ele>866</ele>
        <time>2019-06-11T17:54:20Z</time>
      </trkpt>
      <trkpt lat="46.26799" lon="6.53863">
        <ele>869</ele>
        <time>2019-06-11T17:54:40Z</time>
      </trkpt>
      <trkpt lat="46.26851" lon="6.53922">
        <ele>861</ele>
        <time>2019-06-11T17:54:52Z</time>
      </trkpt>
      <trkpt lat="46.26937" lon="6.54003">
        <ele>864</ele>
        <time>2019-06-11T17:55:10Z</time>
      </trkpt>
      <trkpt lat="46.26944" lon="6.54013">
        <ele>864</ele>
        <time>2019-06-11T17:55:12Z</time>
      </trkpt>
      <trkpt lat="46.26971" lon="6.54071">
        <ele>855</ele>
        <time>2019-06-11T17:55:21Z</time>
      </trkpt>
      <trkpt lat="46.2698" lon="6.54088">
        <ele>852</ele>
        <time>2019-06-11T17:55:23Z</time>
      </trkpt>
      <trkpt lat="46.26999" lon="6.54111">
        <ele>852</ele>
        <time>2019-06-11T17:55:28Z</time>
      </trkpt>
      <trkpt lat="46.27047" lon="6.54153">
        <ele>859</ele>
        <time>2019-06-11T17:55:38Z</time>
      </trkpt>
      <trkpt lat="46.27074" lon="6.54194">
        <ele>854</ele>
        <time>2019-06-11T17:55:45Z</time>
      </trkpt>
      <trkpt lat="46.27083" lon="6.54219">
        <ele>849</ele>
        <time>2019-06-11T17:55:48Z</time>
      </trkpt>
      <trkpt lat="46.27084" lon="6.54232">
        <ele>845</ele>
        <time>2019-06-11T17:55:50Z</time>
      </trkpt>
      <trkpt lat="46.27082" lon="6.54264">
        <ele>838</ele>
        <time>2019-06-11T17:55:54Z</time>
      </trkpt>
      <trkpt lat="46.27083" lon="6.54291">
        <ele>836</ele>
        <time>2019-06-11T17:55:57Z</time>
      </trkpt>
      <trkpt lat="46.27087" lon="6.54316">
        <ele>835</ele>
        <time>2019-06-11T17:56:00Z</time>
      </trkpt>
      <trkpt lat="46.27126" lon="6.54423">
        <ele>832</ele>
        <time>2019-06-11T17:56:15Z</time>
      </trkpt>
      <trkpt lat="46.27132" lon="6.54435">
        <ele>832</ele>
        <time>2019-06-11T17:56:17Z</time>
      </trkpt>
      <trkpt lat="46.27139" lon="6.54446">
        <ele>831</ele>
        <time>2019-06-11T17:56:19Z</time>
      </trkpt>
      <trkpt lat="46.27152" lon="6.54457">
        <ele>831</ele>
        <time>2019-06-11T17:56:21Z</time>
      </trkpt>
      <trkpt lat="46.27196" lon="6.54478">
        <ele>831</ele>
        <time>2019-06-11T17:56:30Z</time>
      </trkpt>
      <trkpt lat="46.27243" lon="6.54509">
        <ele>829</ele>
        <time>2019-06-11T17:56:39Z</time>
      </trkpt>
      <trkpt lat="46.27261" lon="6.54513">
        <ele>830</ele>
        <time>2019-06-11T17:56:42Z</time>
      </trkpt>
      <trkpt lat="46.27307" lon="6.54516">
        <ele>834</ele>
        <time>2019-06-11T17:56:50Z</time>
      </trkpt>
      <trkpt lat="46.27322" lon="6.54519">
        <ele>835</ele>
        <time>2019-06-11T17:56:53Z</time>
      </trkpt>
      <trkpt lat="46.27336" lon="6.54531">
        <ele>834</ele>
        <time>2019-06-11T17:56:56Z</time>
      </trkpt>
      <trkpt lat="46.27407" lon="6.54647">
        <ele>829</ele>
        <time>2019-06-11T17:57:15Z</time>
      </trkpt>
      <trkpt lat="46.27414" lon="6.54657">
        <ele>827</ele>
        <time>2019-06-11T17:57:17Z</time>
      </trkpt>
      <trkpt lat="46.27496" lon="6.54728">
        <ele>836</ele>
        <time>2019-06-11T17:57:34Z</time>
      </trkpt>
      <trkpt lat="46.27681" lon="6.54935">
        <ele>826</ele>
        <time>2019-06-11T17:58:15Z</time>
      </trkpt>
      <trkpt lat="46.27689" lon="6.54947">
        <ele>826</ele>
        <time>2019-06-11T17:58:17Z</time>
      </trkpt>
      <trkpt lat="46.27695" lon="6.5496">
        <ele>824</ele>
        <time>2019-06-11T17:58:19Z</time>
      </trkpt>
      <trkpt lat="46.27706" lon="6.55004">
        <ele>817</ele>
        <time>2019-06-11T17:58:25Z</time>
      </trkpt>
      <trkpt lat="46.27711" lon="6.55016">
        <ele>817</ele>
        <time>2019-06-11T17:58:27Z</time>
      </trkpt>
      <trkpt lat="46.27741" lon="6.55061">
        <ele>816</ele>
        <time>2019-06-11T17:58:34Z</time>
      </trkpt>
      <trkpt lat="46.2776" lon="6.55099">
        <ele>813</ele>
        <time>2019-06-11T17:58:40Z</time>
      </trkpt>
      <trkpt lat="46.27776" lon="6.5512">
        <ele>813</ele>
        <time>2019-06-11T17:58:44Z</time>
      </trkpt>
      <trkpt lat="46.27786" lon="6.55129">
        <ele>813</ele>
        <time>2019-06-11T17:58:46Z</time>
      </trkpt>
      <trkpt lat="46.27813" lon="6.55148">
        <ele>814</ele>
        <time>2019-06-11T17:58:51Z</time>
      </trkpt>
      <trkpt lat="46.27829" lon="6.55153">
        <ele>815</ele>
        <time>2019-06-11T17:58:54Z</time>
      </trkpt>
      <trkpt lat="46.27839" lon="6.55159">
        <ele>815</ele>
        <time>2019-06-11T17:58:56Z</time>
      </trkpt>
      <trkpt lat="46.27935" lon="6.55246">
        <ele>808</ele>
        <time>2019-06-11T17:59:16Z</time>
      </trkpt>
      <trkpt lat="46.27951" lon="6.55254">
        <ele>807</ele>
        <time>2019-06-11T17:59:19Z</time>
      </trkpt>
      <trkpt lat="46.27967" lon="6.55256">
        <ele>807</ele>
        <time>2019-06-11T17:59:22Z</time>
      </trkpt>
      <trkpt lat="46.28118" lon="6.55251">
        <ele>804</ele>
        <time>2019-06-11T17:59:49Z</time>
      </trkpt>
      <trkpt lat="46.28192" lon="6.55226">
        <ele>809</ele>
        <time>2019-06-11T18:00:03Z</time>
      </trkpt>
      <trkpt lat="46.28303" lon="6.55215">
        <ele>797</ele>
        <time>2019-06-11T18:00:23Z</time>
      </trkpt>
      <trkpt lat="46.28317" lon="6.55208">
        <ele>795</ele>
        <time>2019-06-11T18:00:25Z</time>
      </trkpt>
      <trkpt lat="46.2833" lon="6.55194">
        <ele>794</ele>
        <time>2019-06-11T18:00:28Z</time>
      </trkpt>
      <trkpt lat="46.28363" lon="6.55142">
        <ele>790</ele>
        <time>2019-06-11T18:00:37Z</time>
      </trkpt>
      <trkpt lat="46.28373" lon="6.55121">
        <ele>788</ele>
        <time>2019-06-11T18:00:40Z</time>
      </trkpt>
      <trkpt lat="46.28377" lon="6.55108">
        <ele>787</ele>
        <time>2019-06-11T18:00:42Z</time>
      </trkpt>
      <trkpt lat="46.28388" lon="6.55037">
        <ele>782</ele>
        <time>2019-06-11T18:00:51Z</time>
      </trkpt>
      <trkpt lat="46.28408" lon="6.54882">
        <ele>786</ele>
        <time>2019-06-11T18:01:10Z</time>
      </trkpt>
      <trkpt lat="46.28413" lon="6.54862">
        <ele>790</ele>
        <time>2019-06-11T18:01:13Z</time>
      </trkpt>
      <trkpt lat="46.28417" lon="6.54855">
        <ele>790</ele>
        <time>2019-06-11T18:01:14Z</time>
      </trkpt>
      <trkpt lat="46.28434" lon="6.54836">
        <ele>791</ele>
        <time>2019-06-11T18:01:18Z</time>
      </trkpt>
      <trkpt lat="46.28449" lon="6.54825">
        <ele>791</ele>
        <time>2019-06-11T18:01:21Z</time>
      </trkpt>
      <trkpt lat="46.28512" lon="6.5479">
        <ele>785</ele>
        <time>2019-06-11T18:01:33Z</time>
      </trkpt>
      <trkpt lat="46.28524" lon="6.54779">
        <ele>786</ele>
        <time>2019-06-11T18:01:35Z</time>
      </trkpt>
      <trkpt lat="46.28567" lon="6.54717">
        <ele>793</ele>
        <time>2019-06-11T18:01:46Z</time>
      </trkpt>
      <trkpt lat="46.28579" lon="6.54703">
        <ele>793</ele>
        <time>2019-06-11T18:01:49Z</time>
      </trkpt>
      <trkpt lat="46.28594" lon="6.5469">
        <ele>793</ele>
        <time>2019-06-11T18:01:52Z</time>
      </trkpt>
      <trkpt lat="46.28641" lon="6.54663">
        <ele>787</ele>
        <time>2019-06-11T18:02:01Z</time>
      </trkpt>
      <trkpt lat="46.28663" lon="6.54644">
        <ele>785</ele>
        <time>2019-06-11T18:02:05Z</time>
      </trkpt>
      <trkpt lat="46.28674" lon="6.54638">
        <ele>785</ele>
        <time>2019-06-11T18:02:07Z</time>
      </trkpt>
      <trkpt lat="46.28684" lon="6.54637">
        <ele>784</ele>
        <time>2019-06-11T18:02:09Z</time>
      </trkpt>
      <trkpt lat="46.28717" lon="6.54646">
        <ele>781</ele>
        <time>2019-06-11T18:02:15Z</time>
      </trkpt>
      <trkpt lat="46.28737" lon="6.54643">
        <ele>781</ele>
        <time>2019-06-11T18:02:19Z</time>
      </trkpt>
      <trkpt lat="46.28751" lon="6.5463">
        <ele>781</ele>
        <time>2019-06-11T18:02:22Z</time>
      </trkpt>
      <trkpt lat="46.28762" lon="6.54608">
        <ele>781</ele>
        <time>2019-06-11T18:02:25Z</time>
      </trkpt>
      <trkpt lat="46.28777" lon="6.54559">
        <ele>783</ele>
        <time>2019-06-11T18:02:32Z</time>
      </trkpt>
      <trkpt lat="46.28792" lon="6.54531">
        <ele>784</ele>
        <time>2019-06-11T18:02:36Z</time>
      </trkpt>
      <trkpt lat="46.28806" lon="6.54519">
        <ele>784</ele>
        <time>2019-06-11T18:02:39Z</time>
      </trkpt>
      <trkpt lat="46.28877" lon="6.54476">
        <ele>786</ele>
        <time>2019-06-11T18:02:53Z</time>
      </trkpt>
      <trkpt lat="46.28889" lon="6.54472">
        <ele>786</ele>
        <time>2019-06-11T18:02:55Z</time>
      </trkpt>
      <trkpt lat="46.28905" lon="6.54471">
        <ele>785</ele>
        <time>2019-06-11T18:02:58Z</time>
      </trkpt>
      <trkpt lat="46.28923" lon="6.54479">
        <ele>784</ele>
        <time>2019-06-11T18:03:01Z</time>
      </trkpt>
      <trkpt lat="46.28959" lon="6.54504">
        <ele>782</ele>
        <time>2019-06-11T18:03:08Z</time>
      </trkpt>
      <trkpt lat="46.28985" lon="6.54514">
        <ele>782</ele>
        <time>2019-06-11T18:03:13Z</time>
      </trkpt>
      <trkpt lat="46.29016" lon="6.54514">
        <ele>781</ele>
        <time>2019-06-11T18:03:18Z</time>
      </trkpt>
      <trkpt lat="46.29052" lon="6.54507">
        <ele>781</ele>
        <time>2019-06-11T18:03:25Z</time>
      </trkpt>
      <trkpt lat="46.29078" lon="6.54491">
        <ele>781</ele>
        <time>2019-06-11T18:03:30Z</time>
      </trkpt>
      <trkpt lat="46.29127" lon="6.54444">
        <ele>786</ele>
        <time>2019-06-11T18:03:40Z</time>
      </trkpt>
      <trkpt lat="46.29134" lon="6.54437">
        <ele>787</ele>
        <time>2019-06-11T18:03:42Z</time>
      </trkpt>
      <trkpt lat="46.29151" lon="6.54409">
        <ele>788</ele>
        <time>2019-06-11T18:03:46Z</time>
      </trkpt>
      <trkpt lat="46.29178" lon="6.54338">
        <ele>787</ele>
        <time>2019-06-11T18:03:56Z</time>
      </trkpt>
      <trkpt lat="46.29203" lon="6.54282">
        <ele>785</ele>
        <time>2019-06-11T18:04:05Z</time>
      </trkpt>
      <trkpt lat="46.29228" lon="6.54219">
        <ele>783</ele>
        <time>2019-06-11T18:04:13Z</time>
      </trkpt>
      <trkpt lat="46.2924" lon="6.54183">
        <ele>782</ele>
        <time>2019-06-11T18:04:18Z</time>
      </trkpt>
      <trkpt lat="46.29245" lon="6.54158">
        <ele>781</ele>
        <time>2019-06-11T18:04:22Z</time>
      </trkpt>
      <trkpt lat="46.29255" lon="6.54098">
        <ele>783</ele>
        <time>2019-06-11T18:04:29Z</time>
      </trkpt>
      <trkpt lat="46.29265" lon="6.54068">
        <ele>783</ele>
        <time>2019-06-11T18:04:33Z</time>
      </trkpt>
      <trkpt lat="46.29288" lon="6.54014">
        <ele>781</ele>
        <time>2019-06-11T18:04:41Z</time>
      </trkpt>
      <trkpt lat="46.29295" lon="6.53985">
        <ele>781</ele>
        <time>2019-06-11T18:04:45Z</time>
      </trkpt>
      <trkpt lat="46.29296" lon="6.53964">
        <ele>782</ele>
        <time>2019-06-11T18:04:47Z</time>
      </trkpt>
      <trkpt lat="46.29291" lon="6.53904">
        <ele>787</ele>
        <time>2019-06-11T18:04:55Z</time>
      </trkpt>
      <trkpt lat="46.29294" lon="6.53848">
        <ele>790</ele>
        <time>2019-06-11T18:05:02Z</time>
      </trkpt>
      <trkpt lat="46.29297" lon="6.53836">
        <ele>790</ele>
        <time>2019-06-11T18:05:03Z</time>
      </trkpt>
      <trkpt lat="46.29301" lon="6.53828">
        <ele>790</ele>
        <time>2019-06-11T18:05:05Z</time>
      </trkpt>
      <trkpt lat="46.29309" lon="6.53821">
        <ele>789</ele>
        <time>2019-06-11T18:05:06Z</time>
      </trkpt>
      <trkpt lat="46.29342" lon="6.53806">
        <ele>786</ele>
        <time>2019-06-11T18:05:12Z</time>
      </trkpt>
      <trkpt lat="46.29377" lon="6.53774">
        <ele>787</ele>
        <time>2019-06-11T18:05:20Z</time>
      </trkpt>
      <trkpt lat="46.29398" lon="6.53764">
        <ele>787</ele>
        <time>2019-06-11T18:05:24Z</time>
      </trkpt>
      <trkpt lat="46.29554" lon="6.53755">
        <ele>790</ele>
        <time>2019-06-11T18:05:51Z</time>
      </trkpt>
      <trkpt lat="46.29564" lon="6.53758">
        <ele>790</ele>
        <time>2019-06-11T18:05:53Z</time>
      </trkpt>
      <trkpt lat="46.29573" lon="6.53765">
        <ele>790</ele>
        <time>2019-06-11T18:05:55Z</time>
      </trkpt>
      <trkpt lat="46.29627" lon="6.53823">
        <ele>789</ele>
        <time>2019-06-11T18:06:07Z</time>
      </trkpt>
      <trkpt lat="46.29715" lon="6.5386">
        <ele>791</ele>
        <time>2019-06-11T18:06:23Z</time>
      </trkpt>
      <trkpt lat="46.29731" lon="6.53861">
        <ele>792</ele>
        <time>2019-06-11T18:06:26Z</time>
      </trkpt>
      <trkpt lat="46.29746" lon="6.53854">
        <ele>793</ele>
        <time>2019-06-11T18:06:29Z</time>
      </trkpt>
      <trkpt lat="46.2976" lon="6.53839">
        <ele>794</ele>
        <time>2019-06-11T18:06:32Z</time>
      </trkpt>
      <trkpt lat="46.29836" lon="6.53703">
        <ele>797</ele>
        <time>2019-06-11T18:06:54Z</time>
      </trkpt>
      <trkpt lat="46.29843" lon="6.53697">
        <ele>797</ele>
        <time>2019-06-11T18:06:55Z</time>
      </trkpt>
      <trkpt lat="46.29858" lon="6.53695">
        <ele>796</ele>
        <time>2019-06-11T18:06:58Z</time>
      </trkpt>
      <trkpt lat="46.29947" lon="6.53699">
        <ele>790</ele>
        <time>2019-06-11T18:07:14Z</time>
      </trkpt>
      <trkpt lat="46.29964" lon="6.53699">
        <ele>789</ele>
        <time>2019-06-11T18:07:17Z</time>
      </trkpt>
      <trkpt lat="46.30011" lon="6.53687">
        <ele>790</ele>
        <time>2019-06-11T18:07:25Z</time>
      </trkpt>
      <trkpt lat="46.30103" lon="6.53677">
        <ele>792</ele>
        <time>2019-06-11T18:07:41Z</time>
      </trkpt>
      <trkpt lat="46.30115" lon="6.53678">
        <ele>792</ele>
        <time>2019-06-11T18:07:44Z</time>
      </trkpt>
      <trkpt lat="46.30135" lon="6.53682">
        <ele>792</ele>
        <time>2019-06-11T18:07:47Z</time>
      </trkpt>
      <trkpt lat="46.30165" lon="6.53704">
        <ele>792</ele>
        <time>2019-06-11T18:07:53Z</time>
      </trkpt>
      <trkpt lat="46.30211" lon="6.53746">
        <ele>794</ele>
        <time>2019-06-11T18:08:03Z</time>
      </trkpt>
      <trkpt lat="46.30222" lon="6.53762">
        <ele>794</ele>
        <time>2019-06-11T18:08:06Z</time>
      </trkpt>
      <trkpt lat="46.30227" lon="6.53775">
        <ele>795</ele>
        <time>2019-06-11T18:08:07Z</time>
      </trkpt>
      <trkpt lat="46.30231" lon="6.53805">
        <ele>795</ele>
        <time>2019-06-11T18:08:11Z</time>
      </trkpt>
      <trkpt lat="46.30223" lon="6.5405">
        <ele>791</ele>
        <time>2019-06-11T18:08:41Z</time>
      </trkpt>
      <trkpt lat="46.30223" lon="6.54092">
        <ele>790</ele>
        <time>2019-06-11T18:08:47Z</time>
      </trkpt>
      <trkpt lat="46.30228" lon="6.54116">
        <ele>789</ele>
        <time>2019-06-11T18:08:50Z</time>
      </trkpt>
      <trkpt lat="46.30236" lon="6.54138">
        <ele>789</ele>
        <time>2019-06-11T18:08:53Z</time>
      </trkpt>
      <trkpt lat="46.30263" lon="6.54182">
        <ele>790</ele>
        <time>2019-06-11T18:09:00Z</time>
      </trkpt>
      <trkpt lat="46.30272" lon="6.54192">
        <ele>790</ele>
        <time>2019-06-11T18:09:02Z</time>
      </trkpt>
      <trkpt lat="46.30283" lon="6.542">
        <ele>790</ele>
        <time>2019-06-11T18:09:04Z</time>
      </trkpt>
      <trkpt lat="46.30321" lon="6.54212">
        <ele>794</ele>
        <time>2019-06-11T18:09:11Z</time>
      </trkpt>
      <trkpt lat="46.30339" lon="6.54222">
        <ele>796</ele>
        <time>2019-06-11T18:09:14Z</time>
      </trkpt>
      <trkpt lat="46.30346" lon="6.54228">
        <ele>796</ele>
        <time>2019-06-11T18:09:16Z</time>
      </trkpt>
      <trkpt lat="46.3036" lon="6.54253">
        <ele>796</ele>
        <time>2019-06-11T18:09:20Z</time>
      </trkpt>
      <trkpt lat="46.30388" lon="6.54337">
        <ele>792</ele>
        <time>2019-06-11T18:09:31Z</time>
      </trkpt>
      <trkpt lat="46.30401" lon="6.54362">
        <ele>791</ele>
        <time>2019-06-11T18:09:35Z</time>
      </trkpt>
      <trkpt lat="46.30427" lon="6.54401">
        <ele>790</ele>
        <time>2019-06-11T18:09:42Z</time>
      </trkpt>
      <trkpt lat="46.30452" lon="6.54433">
        <ele>788</ele>
        <time>2019-06-11T18:09:48Z</time>
      </trkpt>
      <trkpt lat="46.30483" lon="6.54467">
        <ele>787</ele>
        <time>2019-06-11T18:09:55Z</time>
      </trkpt>
      <trkpt lat="46.30563" lon="6.54569">
        <ele>791</ele>
        <time>2019-06-11T18:10:14Z</time>
      </trkpt>
      <trkpt lat="46.30579" lon="6.54591">
        <ele>792</ele>
        <time>2019-06-11T18:10:18Z</time>
      </trkpt>
      <trkpt lat="46.30588" lon="6.5461">
        <ele>794</ele>
        <time>2019-06-11T18:10:20Z</time>
      </trkpt>
      <trkpt lat="46.30602" lon="6.54683">
        <ele>791</ele>
        <time>2019-06-11T18:10:30Z</time>
      </trkpt>
      <trkpt lat="46.30613" lon="6.54706">
        <ele>791</ele>
        <time>2019-06-11T18:10:33Z</time>
      </trkpt>
      <trkpt lat="46.30673" lon="6.54771">
        <ele>795</ele>
        <time>2019-06-11T18:10:47Z</time>
      </trkpt>
      <trkpt lat="46.30744" lon="6.54837">
        <ele>793</ele>
        <time>2019-06-11T18:11:02Z</time>
      </trkpt>
      <trkpt lat="46.30773" lon="6.54852">
        <ele>791</ele>
        <time>2019-06-11T18:11:07Z</time>
      </trkpt>
      <trkpt lat="46.3081" lon="6.54857">
        <ele>793</ele>
        <time>2019-06-11T18:11:14Z</time>
      </trkpt>
      <trkpt lat="46.30854" lon="6.54871">
        <ele>791</ele>
        <time>2019-06-11T18:11:22Z</time>
      </trkpt>
      <trkpt lat="46.30863" lon="6.54872">
        <ele>791</ele>
        <time>2019-06-11T18:11:23Z</time>
      </trkpt>
      <trkpt lat="46.30872" lon="6.54868">
        <ele>792</ele>
        <time>2019-06-11T18:11:25Z</time>
      </trkpt>
      <trkpt lat="46.30879" lon="6.54862">
        <ele>794</ele>
        <time>2019-06-11T18:11:26Z</time>
      </trkpt>
      <trkpt lat="46.30901" lon="6.54826">
        <ele>802</ele>
        <time>2019-06-11T18:11:32Z</time>
      </trkpt>
      <trkpt lat="46.30916" lon="6.54816">
        <ele>804</ele>
        <time>2019-06-11T18:11:35Z</time>
      </trkpt>
      <trkpt lat="46.30926" lon="6.54815">
        <ele>805</ele>
        <time>2019-06-11T18:11:37Z</time>
      </trkpt>
      <trkpt lat="46.30936" lon="6.54818">
        <ele>806</ele>
        <time>2019-06-11T18:11:39Z</time>
      </trkpt>
      <trkpt lat="46.30954" lon="6.54827">
        <ele>806</ele>
        <time>2019-06-11T18:11:42Z</time>
      </trkpt>
      <trkpt lat="46.30993" lon="6.54856">
        <ele>806</ele>
        <time>2019-06-11T18:11:50Z</time>
      </trkpt>
      <trkpt lat="46.31006" lon="6.54873">
        <ele>806</ele>
        <time>2019-06-11T18:11:53Z</time>
      </trkpt>
      <trkpt lat="46.31017" lon="6.54899">
        <ele>806</ele>
        <time>2019-06-11T18:11:57Z</time>
      </trkpt>
      <trkpt lat="46.31022" lon="6.54913">
        <ele>805</ele>
        <time>2019-06-11T18:11:59Z</time>
      </trkpt>
      <trkpt lat="46.31028" lon="6.54941">
        <ele>804</ele>
        <time>2019-06-11T18:12:02Z</time>
      </trkpt>
      <trkpt lat="46.31037" lon="6.55006">
        <ele>799</ele>
        <time>2019-06-11T18:12:11Z</time>
      </trkpt>
      <trkpt lat="46.31043" lon="6.55037">
        <ele>797</ele>
        <time>2019-06-11T18:12:15Z</time>
      </trkpt>
      <trkpt lat="46.31053" lon="6.55065">
        <ele>798</ele>
        <time>2019-06-11T18:12:18Z</time>
      </trkpt>
      <trkpt lat="46.31067" lon="6.55091">
        <ele>799</ele>
        <time>2019-06-11T18:12:22Z</time>
      </trkpt>
      <trkpt lat="46.31089" lon="6.55118">
        <ele>800</ele>
        <time>2019-06-11T18:12:28Z</time>
      </trkpt>
      <trkpt lat="46.31147" lon="6.55174">
        <ele>803</ele>
        <time>2019-06-11T18:12:40Z</time>
      </trkpt>
      <trkpt lat="46.31193" lon="6.55213">
        <ele>806</ele>
        <time>2019-06-11T18:12:49Z</time>
      </trkpt>
      <trkpt lat="46.31226" lon="6.55248">
        <ele>807</ele>
        <time>2019-06-11T18:12:57Z</time>
      </trkpt>
      <trkpt lat="46.31286" lon="6.55364">
        <ele>802</ele>
        <time>2019-06-11T18:13:15Z</time>
      </trkpt>
      <trkpt lat="46.31306" lon="6.55392">
        <ele>803</ele>
        <time>2019-06-11T18:13:20Z</time>
      </trkpt>
      <trkpt lat="46.31357" lon="6.55445">
        <ele>807</ele>
        <time>2019-06-11T18:13:31Z</time>
      </trkpt>
      <trkpt lat="46.31387" lon="6.5549">
        <ele>803</ele>
        <time>2019-06-11T18:13:38Z</time>
      </trkpt>
      <trkpt lat="46.31401" lon="6.55504">
        <ele>803</ele>
        <time>2019-06-11T18:13:41Z</time>
      </trkpt>
      <trkpt lat="46.31441" lon="6.55533">
        <ele>806</ele>
        <time>2019-06-11T18:13:49Z</time>
      </trkpt>
      <trkpt lat="46.31483" lon="6.55581">
        <ele>802</ele>
        <time>2019-06-11T18:13:59Z</time>
      </trkpt>
      <trkpt lat="46.31532" lon="6.55642">
        <ele>805</ele>
        <time>2019-06-11T18:14:10Z</time>
      </trkpt>
      <trkpt lat="46.31582" lon="6.55726">
        <ele>803</ele>
        <time>2019-06-11T18:14:24Z</time>
      </trkpt>
      <trkpt lat="46.31623" lon="6.55819">
        <ele>801</ele>
        <time>2019-06-11T18:14:38Z</time>
      </trkpt>
      <trkpt lat="46.31637" lon="6.55846">
        <ele>801</ele>
        <time>2019-06-11T18:14:42Z</time>
      </trkpt>
      <trkpt lat="46.31707" lon="6.55949">
        <ele>803</ele>
        <time>2019-06-11T18:14:59Z</time>
      </trkpt>
      <trkpt lat="46.31739" lon="6.55983">
        <ele>806</ele>
        <time>2019-06-11T18:15:07Z</time>
      </trkpt>
      <trkpt lat="46.31831" lon="6.56044">
        <ele>815</ele>
        <time>2019-06-11T18:15:25Z</time>
      </trkpt>
      <trkpt lat="46.3185" lon="6.56059">
        <ele>815</ele>
        <time>2019-06-11T18:15:28Z</time>
      </trkpt>
      <trkpt lat="46.31859" lon="6.56069">
        <ele>814</ele>
        <time>2019-06-11T18:15:30Z</time>
      </trkpt>
      <trkpt lat="46.31894" lon="6.56117">
        <ele>808</ele>
        <time>2019-06-11T18:15:39Z</time>
      </trkpt>
      <trkpt lat="46.3198" lon="6.56219">
        <ele>810</ele>
        <time>2019-06-11T18:15:59Z</time>
      </trkpt>
      <trkpt lat="46.32016" lon="6.56277">
        <ele>801</ele>
        <time>2019-06-11T18:16:08Z</time>
      </trkpt>
      <trkpt lat="46.32027" lon="6.5629">
        <ele>799</ele>
        <time>2019-06-11T18:16:11Z</time>
      </trkpt>
      <trkpt lat="46.32047" lon="6.56305">
        <ele>798</ele>
        <time>2019-06-11T18:16:15Z</time>
      </trkpt>
      <trkpt lat="46.32063" lon="6.56313">
        <ele>799</ele>
        <time>2019-06-11T18:16:18Z</time>
      </trkpt>
      <trkpt lat="46.32136" lon="6.56337">
        <ele>804</ele>
        <time>2019-06-11T18:16:31Z</time>
      </trkpt>
      <trkpt lat="46.32219" lon="6.56367">
        <ele>802</ele>
        <time>2019-06-11T18:16:46Z</time>
      </trkpt>
      <trkpt lat="46.32253" lon="6.56375">
        <ele>801</ele>
        <time>2019-06-11T18:16:53Z</time>
      </trkpt>
      <trkpt lat="46.32264" lon="6.56379">
        <ele>799</ele>
        <time>2019-06-11T18:16:55Z</time>
      </trkpt>
      <trkpt lat="46.32276" lon="6.56388">
        <ele>796</ele>
        <time>2019-06-11T18:16:57Z</time>
      </trkpt>
      <trkpt lat="46.32351" lon="6.56466">
        <ele>778</ele>
        <time>2019-06-11T18:17:13Z</time>
      </trkpt>
      <trkpt lat="46.32369" lon="6.56484">
        <ele>776</ele>
        <time>2019-06-11T18:17:17Z</time>
      </trkpt>
      <trkpt lat="46.32403" lon="6.56506">
        <ele>775</ele>
        <time>2019-06-11T18:17:24Z</time>
      </trkpt>
      <trkpt lat="46.32425" lon="6.56516">
        <ele>775</ele>
        <time>2019-06-11T18:17:28Z</time>
      </trkpt>
      <trkpt lat="46.32441" lon="6.56516">
        <ele>773</ele>
        <time>2019-06-11T18:17:31Z</time>
      </trkpt>
      <trkpt lat="46.32458" lon="6.56508">
        <ele>771</ele>
        <time>2019-06-11T18:17:34Z</time>
      </trkpt>
      <trkpt lat="46.32563" lon="6.56418">
        <ele>768</ele>
        <time>2019-06-11T18:17:56Z</time>
      </trkpt>
      <trkpt lat="46.32584" lon="6.56404">
        <ele>767</ele>
        <time>2019-06-11T18:18:00Z</time>
      </trkpt>
      <trkpt lat="46.32611" lon="6.56392">
        <ele>766</ele>
        <time>2019-06-11T18:18:05Z</time>
      </trkpt>
      <trkpt lat="46.32631" lon="6.56389">
        <ele>765</ele>
        <time>2019-06-11T18:18:08Z</time>
      </trkpt>
      <trkpt lat="46.32668" lon="6.56386">
        <ele>762</ele>
        <time>2019-06-11T18:18:15Z</time>
      </trkpt>
      <trkpt lat="46.32694" lon="6.56387">
        <ele>762</ele>
        <time>2019-06-11T18:18:20Z</time>
      </trkpt>
      <trkpt lat="46.3273" lon="6.56396">
        <ele>759</ele>
        <time>2019-06-11T18:18:26Z</time>
      </trkpt>
      <trkpt lat="46.32778" lon="6.56401">
        <ele>760</ele>
        <time>2019-06-11T18:18:35Z</time>
      </trkpt>
      <trkpt lat="46.32796" lon="6.56405">
        <ele>760</ele>
        <time>2019-06-11T18:18:38Z</time>
      </trkpt>
      <trkpt lat="46.32831" lon="6.56422">
        <ele>757</ele>
        <time>2019-06-11T18:18:45Z</time>
      </trkpt>
      <trkpt lat="46.32907" lon="6.56471">
        <ele>755</ele>
        <time>2019-06-11T18:18:59Z</time>
      </trkpt>
      <trkpt lat="46.33006" lon="6.5651">
        <ele>755</ele>
        <time>2019-06-11T18:19:18Z</time>
      </trkpt>
      <trkpt lat="46.33049" lon="6.56523">
        <ele>753</ele>
        <time>2019-06-11T18:19:25Z</time>
      </trkpt>
      <trkpt lat="46.33092" lon="6.56553">
        <ele>741</ele>
        <time>2019-06-11T18:19:34Z</time>
      </trkpt>
      <trkpt lat="46.33108" lon="6.56559">
        <ele>739</ele>
        <time>2019-06-11T18:19:37Z</time>
      </trkpt>
      <trkpt lat="46.33151" lon="6.56564">
        <ele>739</ele>
        <time>2019-06-11T18:19:45Z</time>
      </trkpt>
      <trkpt lat="46.33202" lon="6.56592">
        <ele>727</ele>
        <time>2019-06-11T18:19:54Z</time>
      </trkpt>
      <trkpt lat="46.33233" lon="6.56598">
        <ele>723</ele>
        <time>2019-06-11T18:20:00Z</time>
      </trkpt>
      <trkpt lat="46.33249" lon="6.56595">
        <ele>724</ele>
        <time>2019-06-11T18:20:03Z</time>
      </trkpt>
      <trkpt lat="46.3326" lon="6.56589">
        <ele>723</ele>
        <time>2019-06-11T18:20:05Z</time>
      </trkpt>
      <trkpt lat="46.33302" lon="6.56546">
        <ele>722</ele>
        <time>2019-06-11T18:20:14Z</time>
      </trkpt>
      <trkpt lat="46.33353" lon="6.56478">
        <ele>723</ele>
        <time>2019-06-11T18:20:26Z</time>
      </trkpt>
      <trkpt lat="46.33384" lon="6.56452">
        <ele>721</ele>
        <time>2019-06-11T18:20:33Z</time>
      </trkpt>
      <trkpt lat="46.3343" lon="6.56378">
        <ele>722</ele>
        <time>2019-06-11T18:20:45Z</time>
      </trkpt>
      <trkpt lat="46.33468" lon="6.56333">
        <ele>714</ele>
        <time>2019-06-11T18:20:54Z</time>
      </trkpt>
      <trkpt lat="46.33477" lon="6.56316">
        <ele>713</ele>
        <time>2019-06-11T18:20:56Z</time>
      </trkpt>
      <trkpt lat="46.33494" lon="6.56237">
        <ele>716</ele>
        <time>2019-06-11T18:21:06Z</time>
      </trkpt>
      <trkpt lat="46.33513" lon="6.56187">
        <ele>713</ele>
        <time>2019-06-11T18:21:13Z</time>
      </trkpt>
      <trkpt lat="46.33528" lon="6.56136">
        <ele>715</ele>
        <time>2019-06-11T18:21:20Z</time>
      </trkpt>
      <trkpt lat="46.33545" lon="6.5609">
        <ele>715</ele>
        <time>2019-06-11T18:21:27Z</time>
      </trkpt>
      <trkpt lat="46.33552" lon="6.56065">
        <ele>715</ele>
        <time>2019-06-11T18:21:30Z</time>
      </trkpt>
      <trkpt lat="46.33562" lon="6.56013">
        <ele>717</ele>
        <time>2019-06-11T18:21:37Z</time>
      </trkpt>
      <trkpt lat="46.33567" lon="6.55998">
        <ele>715</ele>
        <time>2019-06-11T18:21:39Z</time>
      </trkpt>
      <trkpt lat="46.33582" lon="6.55963">
        <ele>711</ele>
        <time>2019-06-11T18:21:44Z</time>
      </trkpt>
      <trkpt lat="46.33591" lon="6.55934">
        <ele>710</ele>
        <time>2019-06-11T18:21:48Z</time>
      </trkpt>
      <trkpt lat="46.33605" lon="6.5586">
        <ele>717</ele>
        <time>2019-06-11T18:21:57Z</time>
      </trkpt>
      <trkpt lat="46.33607" lon="6.55822">
        <ele>724</ele>
        <time>2019-06-11T18:22:02Z</time>
      </trkpt>
      <trkpt lat="46.33607" lon="6.55793">
        <ele>729</ele>
        <time>2019-06-11T18:22:05Z</time>
      </trkpt>
      <trkpt lat="46.3361" lon="6.55772">
        <ele>731</ele>
        <time>2019-06-11T18:22:08Z</time>
      </trkpt>
      <trkpt lat="46.33619" lon="6.55753">
        <ele>728</ele>
        <time>2019-06-11T18:22:11Z</time>
      </trkpt>
      <trkpt lat="46.33646" lon="6.55719">
        <ele>714</ele>
        <time>2019-06-11T18:22:17Z</time>
      </trkpt>
      <trkpt lat="46.33653" lon="6.55707">
        <ele>712</ele>
        <time>2019-06-11T18:22:19Z</time>
      </trkpt>
      <trkpt lat="46.33659" lon="6.55688">
        <ele>711</ele>
        <time>2019-06-11T18:22:22Z</time>
      </trkpt>
      <trkpt lat="46.3366" lon="6.55672">
        <ele>714</ele>
        <time>2019-06-11T18:22:24Z</time>
      </trkpt>
      <trkpt lat="46.33657" lon="6.55606">
        <ele>720</ele>
        <time>2019-06-11T18:22:32Z</time>
      </trkpt>
      <trkpt lat="46.33654" lon="6.5559">
        <ele>723</ele>
        <time>2019-06-11T18:22:34Z</time>
      </trkpt>
      <trkpt lat="46.33636" lon="6.55526">
        <ele>734</ele>
        <time>2019-06-11T18:22:42Z</time>
      </trkpt>
      <trkpt lat="46.33631" lon="6.55447">
        <ele>734</ele>
        <time>2019-06-11T18:22:52Z</time>
      </trkpt>
      <trkpt lat="46.33637" lon="6.55383">
        <ele>732</ele>
        <time>2019-06-11T18:23:00Z</time>
      </trkpt>
      <trkpt lat="46.3365" lon="6.55338">
        <ele>725</ele>
        <time>2019-06-11T18:23:06Z</time>
      </trkpt>
      <trkpt lat="46.33661" lon="6.55276">
        <ele>726</ele>
        <time>2019-06-11T18:23:14Z</time>
      </trkpt>
      <trkpt lat="46.33666" lon="6.55265">
        <ele>724</ele>
        <time>2019-06-11T18:23:15Z</time>
      </trkpt>
      <trkpt lat="46.3369" lon="6.55238">
        <ele>716</ele>
        <time>2019-06-11T18:23:21Z</time>
      </trkpt>
      <trkpt lat="46.33696" lon="6.5523">
        <ele>714</ele>
        <time>2019-06-11T18:23:22Z</time>
      </trkpt>
      <trkpt lat="46.337" lon="6.55218">
        <ele>715</ele>
        <time>2019-06-11T18:23:24Z</time>
      </trkpt>
      <trkpt lat="46.33706" lon="6.55187">
        <ele>719</ele>
        <time>2019-06-11T18:23:28Z</time>
      </trkpt>
      <trkpt lat="46.33716" lon="6.55163">
        <ele>720</ele>
        <time>2019-06-11T18:23:31Z</time>
      </trkpt>
      <trkpt lat="46.33753" lon="6.55122">
        <ele>713</ele>
        <time>2019-06-11T18:23:40Z</time>
      </trkpt>
      <trkpt lat="46.33764" lon="6.55107">
        <ele>712</ele>
        <time>2019-06-11T18:23:42Z</time>
      </trkpt>
      <trkpt lat="46.33771" lon="6.55096">
        <ele>712</ele>
        <time>2019-06-11T18:23:44Z</time>
      </trkpt>
      <trkpt lat="46.33797" lon="6.55033">
        <ele>719</ele>
        <time>2019-06-11T18:23:53Z</time>
      </trkpt>
      <trkpt lat="46.33823" lon="6.54996">
        <ele>719</ele>
        <time>2019-06-11T18:24:00Z</time>
      </trkpt>
      <trkpt lat="46.33837" lon="6.54983">
        <ele>718</ele>
        <time>2019-06-11T18:24:03Z</time>
      </trkpt>
      <trkpt lat="46.33858" lon="6.54971">
        <ele>714</ele>
        <time>2019-06-11T18:24:07Z</time>
      </trkpt>
      <trkpt lat="46.33894" lon="6.54966">
        <ele>700</ele>
        <time>2019-06-11T18:24:13Z</time>
      </trkpt>
      <trkpt lat="46.33907" lon="6.5496">
        <ele>696</ele>
        <time>2019-06-11T18:24:15Z</time>
      </trkpt>
      <trkpt lat="46.33913" lon="6.54951">
        <ele>695</ele>
        <time>2019-06-11T18:24:17Z</time>
      </trkpt>
      <trkpt lat="46.33915" lon="6.54945">
        <ele>696</ele>
        <time>2019-06-11T18:24:18Z</time>
      </trkpt>
      <trkpt lat="46.33915" lon="6.54925">
        <ele>700</ele>
        <time>2019-06-11T18:24:20Z</time>
      </trkpt>
      <trkpt lat="46.33907" lon="6.54879">
        <ele>707</ele>
        <time>2019-06-11T18:24:26Z</time>
      </trkpt>
      <trkpt lat="46.33893" lon="6.54822">
        <ele>717</ele>
        <time>2019-06-11T18:24:33Z</time>
      </trkpt>
      <trkpt lat="46.33891" lon="6.54791">
        <ele>717</ele>
        <time>2019-06-11T18:24:37Z</time>
      </trkpt>
      <trkpt lat="46.33891" lon="6.54768">
        <ele>717</ele>
        <time>2019-06-11T18:24:40Z</time>
      </trkpt>
      <trkpt lat="46.33893" lon="6.54741">
        <ele>716</ele>
        <time>2019-06-11T18:24:43Z</time>
      </trkpt>
      <trkpt lat="46.33896" lon="6.54716">
        <ele>719</ele>
        <time>2019-06-11T18:24:47Z</time>
      </trkpt>
      <trkpt lat="46.33903" lon="6.54684">
        <ele>720</ele>
        <time>2019-06-11T18:24:51Z</time>
      </trkpt>
      <trkpt lat="46.33911" lon="6.5466">
        <ele>720</ele>
        <time>2019-06-11T18:24:54Z</time>
      </trkpt>
      <trkpt lat="46.33923" lon="6.54638">
        <ele>720</ele>
        <time>2019-06-11T18:24:57Z</time>
      </trkpt>
      <trkpt lat="46.33997" lon="6.54553">
        <ele>705</ele>
        <time>2019-06-11T18:25:14Z</time>
      </trkpt>
      <trkpt lat="46.34004" lon="6.5454">
        <ele>706</ele>
        <time>2019-06-11T18:25:16Z</time>
      </trkpt>
      <trkpt lat="46.3402" lon="6.54471">
        <ele>719</ele>
        <time>2019-06-11T18:25:25Z</time>
      </trkpt>
      <trkpt lat="46.34056" lon="6.54377">
        <ele>715</ele>
        <time>2019-06-11T18:25:38Z</time>
      </trkpt>
      <trkpt lat="46.34088" lon="6.54281">
        <ele>708</ele>
        <time>2019-06-11T18:25:52Z</time>
      </trkpt>
      <trkpt lat="46.34116" lon="6.54173">
        <ele>705</ele>
        <time>2019-06-11T18:26:06Z</time>
      </trkpt>
      <trkpt lat="46.3413" lon="6.54142">
        <ele>698</ele>
        <time>2019-06-11T18:26:10Z</time>
      </trkpt>
      <trkpt lat="46.34136" lon="6.54113">
        <ele>696</ele>
        <time>2019-06-11T18:26:14Z</time>
      </trkpt>
      <trkpt lat="46.34124" lon="6.5407">
        <ele>702</ele>
        <time>2019-06-11T18:26:20Z</time>
      </trkpt>
      <trkpt lat="46.34103" lon="6.54017">
        <ele>710</ele>
        <time>2019-06-11T18:26:27Z</time>
      </trkpt>
      <trkpt lat="46.34099" lon="6.53976">
        <ele>711</ele>
        <time>2019-06-11T18:26:32Z</time>
      </trkpt>
      <trkpt lat="46.34115" lon="6.53839">
        <ele>702</ele>
        <time>2019-06-11T18:26:49Z</time>
      </trkpt>
      <trkpt lat="46.34123" lon="6.53754">
        <ele>705</ele>
        <time>2019-06-11T18:27:00Z</time>
      </trkpt>
      <trkpt lat="46.3412" lon="6.53691">
        <ele>711</ele>
        <time>2019-06-11T18:27:08Z</time>
      </trkpt>
      <trkpt lat="46.34126" lon="6.53643">
        <ele>713</ele>
        <time>2019-06-11T18:27:14Z</time>
      </trkpt>
      <trkpt lat="46.34164" lon="6.5356">
        <ele>709</ele>
        <time>2019-06-11T18:27:26Z</time>
      </trkpt>
      <trkpt lat="46.34172" lon="6.5353">
        <ele>706</ele>
        <time>2019-06-11T18:27:30Z</time>
      </trkpt>
      <trkpt lat="46.34173" lon="6.53505">
        <ele>705</ele>
        <time>2019-06-11T18:27:33Z</time>
      </trkpt>
      <trkpt lat="46.34144" lon="6.53425">
        <ele>704</ele>
        <time>2019-06-11T18:27:44Z</time>
      </trkpt>
      <trkpt lat="46.34142" lon="6.53395">
        <ele>705</ele>
        <time>2019-06-11T18:27:48Z</time>
      </trkpt>
      <trkpt lat="46.34149" lon="6.53367">
        <ele>706</ele>
        <time>2019-06-11T18:27:51Z</time>
      </trkpt>
      <trkpt lat="46.34168" lon="6.53343">
        <ele>704</ele>
        <time>2019-06-11T18:27:56Z</time>
      </trkpt>
      <trkpt lat="46.34272" lon="6.53266">
        <ele>695</ele>
        <time>2019-06-11T18:28:17Z</time>
      </trkpt>
      <trkpt lat="46.34287" lon="6.53248">
        <ele>694</ele>
        <time>2019-06-11T18:28:20Z</time>
      </trkpt>
      <trkpt lat="46.34293" lon="6.53225">
        <ele>695</ele>
        <time>2019-06-11T18:28:23Z</time>
      </trkpt>
      <trkpt lat="46.343" lon="6.53028">
        <ele>691</ele>
        <time>2019-06-11T18:28:47Z</time>
      </trkpt>
      <trkpt lat="46.34305" lon="6.53001">
        <ele>688</ele>
        <time>2019-06-11T18:28:51Z</time>
      </trkpt>
      <trkpt lat="46.34312" lon="6.52985">
        <ele>688</ele>
        <time>2019-06-11T18:28:53Z</time>
      </trkpt>
      <trkpt lat="46.34327" lon="6.52975">
        <ele>687</ele>
        <time>2019-06-11T18:28:56Z</time>
      </trkpt>
      <trkpt lat="46.34377" lon="6.52948">
        <ele>679</ele>
        <time>2019-06-11T18:29:05Z</time>
      </trkpt>
      <trkpt lat="46.34401" lon="6.5293">
        <ele>677</ele>
        <time>2019-06-11T18:29:10Z</time>
      </trkpt>
      <trkpt lat="46.34416" lon="6.52909">
        <ele>677</ele>
        <time>2019-06-11T18:29:14Z</time>
      </trkpt>
      <trkpt lat="46.34431" lon="6.52864">
        <ele>677</ele>
        <time>2019-06-11T18:29:20Z</time>
      </trkpt>
      <trkpt lat="46.3445" lon="6.52836">
        <ele>676</ele>
        <time>2019-06-11T18:29:25Z</time>
      </trkpt>
      <trkpt lat="46.34521" lon="6.52771">
        <ele>667</ele>
        <time>2019-06-11T18:29:40Z</time>
      </trkpt>
      <trkpt lat="46.34548" lon="6.52738">
        <ele>668</ele>
        <time>2019-06-11T18:29:46Z</time>
      </trkpt>
      <trkpt lat="46.34566" lon="6.52682">
        <ele>667</ele>
        <time>2019-06-11T18:29:54Z</time>
      </trkpt>
      <trkpt lat="46.34582" lon="6.52652">
        <ele>667</ele>
        <time>2019-06-11T18:29:58Z</time>
      </trkpt>
      <trkpt lat="46.34598" lon="6.52625">
        <ele>664</ele>
        <time>2019-06-11T18:30:03Z</time>
      </trkpt>
      <trkpt lat="46.34622" lon="6.52597">
        <ele>659</ele>
        <time>2019-06-11T18:30:08Z</time>
      </trkpt>
      <trkpt lat="46.34634" lon="6.5257">
        <ele>656</ele>
        <time>2019-06-11T18:30:12Z</time>
      </trkpt>
      <trkpt lat="46.34643" lon="6.52443">
        <ele>653</ele>
        <time>2019-06-11T18:30:28Z</time>
      </trkpt>
      <trkpt lat="46.34644" lon="6.52352">
        <ele>651</ele>
        <time>2019-06-11T18:30:39Z</time>
      </trkpt>
      <trkpt lat="46.34648" lon="6.52326">
        <ele>651</ele>
        <time>2019-06-11T18:30:42Z</time>
      </trkpt>
      <trkpt lat="46.34671" lon="6.52281">
        <ele>651</ele>
        <time>2019-06-11T18:30:49Z</time>
      </trkpt>
      <trkpt lat="46.3474" lon="6.5216">
        <ele>647</ele>
        <time>2019-06-11T18:31:09Z</time>
      </trkpt>
      <trkpt lat="46.34755" lon="6.5213">
        <ele>647</ele>
        <time>2019-06-11T18:31:13Z</time>
      </trkpt>
      <trkpt lat="46.34764" lon="6.52104">
        <ele>648</ele>
        <time>2019-06-11T18:31:17Z</time>
      </trkpt>
      <trkpt lat="46.3477" lon="6.52072">
        <ele>648</ele>
        <time>2019-06-11T18:31:21Z</time>
      </trkpt>
      <trkpt lat="46.34774" lon="6.52032">
        <ele>647</ele>
        <time>2019-06-11T18:31:26Z</time>
      </trkpt>
      <trkpt lat="46.34785" lon="6.52007">
        <ele>645</ele>
        <time>2019-06-11T18:31:29Z</time>
      </trkpt>
      <trkpt lat="46.34799" lon="6.52">
        <ele>643</ele>
        <time>2019-06-11T18:31:32Z</time>
      </trkpt>
      <trkpt lat="46.34816" lon="6.52002">
        <ele>642</ele>
        <time>2019-06-11T18:31:35Z</time>
      </trkpt>
      <trkpt lat="46.34854" lon="6.52021">
        <ele>640</ele>
        <time>2019-06-11T18:31:42Z</time>
      </trkpt>
      <trkpt lat="46.34884" lon="6.52044">
        <ele>640</ele>
        <time>2019-06-11T18:31:48Z</time>
      </trkpt>
      <trkpt lat="46.34934" lon="6.52112">
        <ele>640</ele>
        <time>2019-06-11T18:32:00Z</time>
      </trkpt>
      <trkpt lat="46.34945" lon="6.5212">
        <ele>639</ele>
        <time>2019-06-11T18:32:03Z</time>
      </trkpt>
      <trkpt lat="46.34972" lon="6.52125">
        <ele>639</ele>
        <time>2019-06-11T18:32:07Z</time>
      </trkpt>
      <trkpt lat="46.34997" lon="6.52125">
        <ele>638</ele>
        <time>2019-06-11T18:32:12Z</time>
      </trkpt>
      <trkpt lat="46.35012" lon="6.52114">
        <ele>636</ele>
        <time>2019-06-11T18:32:15Z</time>
      </trkpt>
      <trkpt lat="46.35021" lon="6.52096">
        <ele>634</ele>
        <time>2019-06-11T18:32:18Z</time>
      </trkpt>
      <trkpt lat="46.35043" lon="6.52009">
        <ele>633</ele>
        <time>2019-06-11T18:32:29Z</time>
      </trkpt>
      <trkpt lat="46.35061" lon="6.5187">
        <ele>631</ele>
        <time>2019-06-11T18:32:46Z</time>
      </trkpt>
      <trkpt lat="46.3507" lon="6.51831">
        <ele>630</ele>
        <time>2019-06-11T18:32:51Z</time>
      </trkpt>
      <trkpt lat="46.35133" lon="6.51688">
        <ele>627</ele>
        <time>2019-06-11T18:33:12Z</time>
      </trkpt>
      <trkpt lat="46.35194" lon="6.51562">
        <ele>626</ele>
        <time>2019-06-11T18:33:31Z</time>
      </trkpt>
      <trkpt lat="46.35208" lon="6.51545">
        <ele>625</ele>
        <time>2019-06-11T18:33:34Z</time>
      </trkpt>
      <trkpt lat="46.35227" lon="6.51534">
        <ele>622</ele>
        <time>2019-06-11T18:33:38Z</time>
      </trkpt>
      <trkpt lat="46.35445" lon="6.51461">
        <ele>616</ele>
        <time>2019-06-11T18:34:18Z</time>
      </trkpt>
      <trkpt lat="46.35497" lon="6.51452">
        <ele>616</ele>
        <time>2019-06-11T18:34:27Z</time>
      </trkpt>
      <trkpt lat="46.35559" lon="6.51445">
        <ele>614</ele>
        <time>2019-06-11T18:34:38Z</time>
      </trkpt>
      <trkpt lat="46.35635" lon="6.51456">
        <ele>613</ele>
        <time>2019-06-11T18:34:52Z</time>
      </trkpt>
      <trkpt lat="46.35665" lon="6.51458">
        <ele>613</ele>
        <time>2019-06-11T18:34:57Z</time>
      </trkpt>
      <trkpt lat="46.35707" lon="6.5145">
        <ele>613</ele>
        <time>2019-06-11T18:35:05Z</time>
      </trkpt>
      <trkpt lat="46.35744" lon="6.51438">
        <ele>615</ele>
        <time>2019-06-11T18:35:11Z</time>
      </trkpt>
      <trkpt lat="46.35773" lon="6.51425">
        <ele>614</ele>
        <time>2019-06-11T18:35:17Z</time>
      </trkpt>
      <trkpt lat="46.35836" lon="6.51429">
        <ele>610</ele>
        <time>2019-06-11T18:35:28Z</time>
      </trkpt>
      <trkpt lat="46.35846" lon="6.51434">
        <ele>610</ele>
        <time>2019-06-11T18:35:30Z</time>
      </trkpt>
      <trkpt lat="46.35857" lon="6.51447">
        <ele>609</ele>
        <time>2019-06-11T18:35:32Z</time>
      </trkpt>
      <trkpt lat="46.35866" lon="6.51469">
        <ele>608</ele>
        <time>2019-06-11T18:35:36Z</time>
      </trkpt>
      <trkpt lat="46.35882" lon="6.51518">
        <ele>604</ele>
        <time>2019-06-11T18:35:42Z</time>
      </trkpt>
      <trkpt lat="46.35892" lon="6.51532">
        <ele>603</ele>
        <time>2019-06-11T18:35:45Z</time>
      </trkpt>
      <trkpt lat="46.35929" lon="6.51559">
        <ele>594</ele>
        <time>2019-06-11T18:35:52Z</time>
      </trkpt>
      <trkpt lat="46.35941" lon="6.51561">
        <ele>591</ele>
        <time>2019-06-11T18:35:54Z</time>
      </trkpt>
      <trkpt lat="46.35953" lon="6.51552">
        <ele>589</ele>
        <time>2019-06-11T18:35:57Z</time>
      </trkpt>
      <trkpt lat="46.3596" lon="6.5154">
        <ele>590</ele>
        <time>2019-06-11T18:35:59Z</time>
      </trkpt>
      <trkpt lat="46.35967" lon="6.51522">
        <ele>591</ele>
        <time>2019-06-11T18:36:01Z</time>
      </trkpt>
      <trkpt lat="46.35983" lon="6.51368">
        <ele>594</ele>
        <time>2019-06-11T18:36:20Z</time>
      </trkpt>
      <trkpt lat="46.3601" lon="6.5124">
        <ele>597</ele>
        <time>2019-06-11T18:36:37Z</time>
      </trkpt>
      <trkpt lat="46.3603" lon="6.51184">
        <ele>595</ele>
        <time>2019-06-11T18:36:44Z</time>
      </trkpt>
      <trkpt lat="46.36046" lon="6.51101">
        <ele>592</ele>
        <time>2019-06-11T18:36:55Z</time>
      </trkpt>
      <trkpt lat="46.36062" lon="6.50972">
        <ele>589</ele>
        <time>2019-06-11T18:37:11Z</time>
      </trkpt>
      <trkpt lat="46.36089" lon="6.50878">
        <ele>583</ele>
        <time>2019-06-11T18:37:24Z</time>
      </trkpt>
      <trkpt lat="46.36111" lon="6.50825">
        <ele>582</ele>
        <time>2019-06-11T18:37:31Z</time>
      </trkpt>
      <trkpt lat="46.36125" lon="6.50814">
        <ele>581</ele>
        <time>2019-06-11T18:37:34Z</time>
      </trkpt>
      <trkpt lat="46.3624" lon="6.50766">
        <ele>572</ele>
        <time>2019-06-11T18:37:55Z</time>
      </trkpt>
      <trkpt lat="46.36255" lon="6.50749">
        <ele>569</ele>
        <time>2019-06-11T18:37:59Z</time>
      </trkpt>
      <trkpt lat="46.36271" lon="6.50718">
        <ele>562</ele>
        <time>2019-06-11T18:38:03Z</time>
      </trkpt>
      <trkpt lat="46.36276" lon="6.50688">
        <ele>559</ele>
        <time>2019-06-11T18:38:07Z</time>
      </trkpt>
      <trkpt lat="46.36276" lon="6.50576">
        <ele>562</ele>
        <time>2019-06-11T18:38:21Z</time>
      </trkpt>
      <trkpt lat="46.36283" lon="6.50533">
        <ele>561</ele>
        <time>2019-06-11T18:38:26Z</time>
      </trkpt>
      <trkpt lat="46.36311" lon="6.50449">
        <ele>551</ele>
        <time>2019-06-11T18:38:38Z</time>
      </trkpt>
      <trkpt lat="46.36311" lon="6.50428">
        <ele>550</ele>
        <time>2019-06-11T18:38:40Z</time>
      </trkpt>
      <trkpt lat="46.36288" lon="6.50346">
        <ele>550</ele>
        <time>2019-06-11T18:38:51Z</time>
      </trkpt>
      <trkpt lat="46.36213" lon="6.50261">
        <ele>550</ele>
        <time>2019-06-11T18:39:08Z</time>
      </trkpt>
      <trkpt lat="46.36142" lon="6.50212">
        <ele>549</ele>
        <time>2019-06-11T18:39:22Z</time>
      </trkpt>
      <trkpt lat="46.36074" lon="6.50154">
        <ele>548</ele>
        <time>2019-06-11T18:39:36Z</time>
      </trkpt>
      <trkpt lat="46.36036" lon="6.50075">
        <ele>546</ele>
        <time>2019-06-11T18:39:48Z</time>
      </trkpt>
      <trkpt lat="46.3601" lon="6.50013">
        <ele>543</ele>
        <time>2019-06-11T18:39:57Z</time>
      </trkpt>
      <trkpt lat="46.35998" lon="6.49937">
        <ele>539</ele>
        <time>2019-06-11T18:40:07Z</time>
      </trkpt>
      <trkpt lat="46.36004" lon="6.49847">
        <ele>533</ele>
        <time>2019-06-11T18:40:18Z</time>
      </trkpt>
      <trkpt lat="46.36004" lon="6.498">
        <ele>531</ele>
        <time>2019-06-11T18:40:23Z</time>
      </trkpt>
      <trkpt lat="46.35994" lon="6.49765">
        <ele>530</ele>
        <time>2019-06-11T18:40:28Z</time>
      </trkpt>
      <trkpt lat="46.35944" lon="6.49693">
        <ele>526</ele>
        <time>2019-06-11T18:40:41Z</time>
      </trkpt>
      <trkpt lat="46.35919" lon="6.49664">
        <ele>522</ele>
        <time>2019-06-11T18:40:46Z</time>
      </trkpt>
      <trkpt lat="46.35915" lon="6.49647">
        <ele>520</ele>
        <time>2019-06-11T18:40:49Z</time>
      </trkpt>
      <trkpt lat="46.35913" lon="6.4962">
        <ele>517</ele>
        <time>2019-06-11T18:40:52Z</time>
      </trkpt>
      <trkpt lat="46.35918" lon="6.49598">
        <ele>516</ele>
        <time>2019-06-11T18:40:55Z</time>
      </trkpt>
      <trkpt lat="46.35957" lon="6.49521">
        <ele>516</ele>
        <time>2019-06-11T18:41:06Z</time>
      </trkpt>
      <trkpt lat="46.3599" lon="6.49463">
        <ele>516</ele>
        <time>2019-06-11T18:41:16Z</time>
      </trkpt>
      <trkpt lat="46.36002" lon="6.49438">
        <ele>515</ele>
        <time>2019-06-11T18:41:19Z</time>
      </trkpt>
      <trkpt lat="46.36011" lon="6.49413">
        <ele>514</ele>
        <time>2019-06-11T18:41:23Z</time>
      </trkpt>
      <trkpt lat="46.36028" lon="6.49276">
        <ele>505</ele>
        <time>2019-06-11T18:41:40Z</time>
      </trkpt>
      <trkpt lat="46.36041" lon="6.49188">
        <ele>499</ele>
        <time>2019-06-11T18:41:51Z</time>
      </trkpt>
      <trkpt lat="46.36051" lon="6.49164">
        <ele>498</ele>
        <time>2019-06-11T18:41:55Z</time>
      </trkpt>
      <trkpt lat="46.3606" lon="6.49151">
        <ele>497</ele>
        <time>2019-06-11T18:41:57Z</time>
      </trkpt>
      <trkpt lat="46.36082" lon="6.49137">
        <ele>498</ele>
        <time>2019-06-11T18:42:01Z</time>
      </trkpt>
      <trkpt lat="46.36097" lon="6.49136">
        <ele>496</ele>
        <time>2019-06-11T18:42:04Z</time>
      </trkpt>
      <trkpt lat="46.36117" lon="6.49139">
        <ele>494</ele>
        <time>2019-06-11T18:42:07Z</time>
      </trkpt>
      <trkpt lat="46.36134" lon="6.49148">
        <ele>492</ele>
        <time>2019-06-11T18:42:11Z</time>
      </trkpt>
      <trkpt lat="46.36146" lon="6.49164">
        <ele>491</ele>
        <time>2019-06-11T18:42:13Z</time>
      </trkpt>
      <trkpt lat="46.36158" lon="6.4919">
        <ele>491</ele>
        <time>2019-06-11T18:42:17Z</time>
      </trkpt>
      <trkpt lat="46.36184" lon="6.49266">
        <ele>495</ele>
        <time>2019-06-11T18:42:28Z</time>
      </trkpt>
      <trkpt lat="46.36195" lon="6.49283">
        <ele>494</ele>
        <time>2019-06-11T18:42:31Z</time>
      </trkpt>
      <trkpt lat="46.36205" lon="6.49294">
        <ele>492</ele>
        <time>2019-06-11T18:42:33Z</time>
      </trkpt>
      <trkpt lat="46.36204" lon="6.49305">
        <ele>493</ele>
        <time>2019-06-11T18:42:34Z</time>
      </trkpt>
      <trkpt lat="46.36207" lon="6.49317">
        <ele>493</ele>
        <time>2019-06-11T18:42:36Z</time>
      </trkpt>
      <trkpt lat="46.36213" lon="6.49324">
        <ele>492</ele>
        <time>2019-06-11T18:42:37Z</time>
      </trkpt>
      <trkpt lat="46.36217" lon="6.49325">
        <ele>491</ele>
        <time>2019-06-11T18:42:38Z</time>
      </trkpt>
      <trkpt lat="46.36217" lon="6.49341">
        <ele>491</ele>
        <time>2019-06-11T18:42:40Z</time>
      </trkpt>
      <trkpt lat="46.3622" lon="6.49358">
        <ele>491</ele>
        <time>2019-06-11T18:42:42Z</time>
      </trkpt>
      <trkpt lat="46.36247" lon="6.4945">
        <ele>484</ele>
        <time>2019-06-11T18:42:54Z</time>
      </trkpt>
      <trkpt lat="46.36251" lon="6.49546">
        <ele>483</ele>
        <time>2019-06-11T18:43:06Z</time>
      </trkpt>
      <trkpt lat="46.36254" lon="6.49563">
        <ele>483</ele>
        <time>2019-06-11T18:43:08Z</time>
      </trkpt>
      <trkpt lat="46.3626" lon="6.49575">
        <ele>483</ele>
        <time>2019-06-11T18:43:10Z</time>
      </trkpt>
      <trkpt lat="46.36269" lon="6.49584">
        <ele>482</ele>
        <time>2019-06-11T18:43:12Z</time>
      </trkpt>
      <trkpt lat="46.36274" lon="6.49587">
        <ele>482</ele>
        <time>2019-06-11T18:43:13Z</time>
      </trkpt>
      <trkpt lat="46.36307" lon="6.49591">
        <ele>480</ele>
        <time>2019-06-11T18:43:19Z</time>
      </trkpt>
      <trkpt lat="46.36323" lon="6.49597">
        <ele>479</ele>
        <time>2019-06-11T18:43:22Z</time>
      </trkpt>
      <trkpt lat="46.36373" lon="6.49638">
        <ele>478</ele>
        <time>2019-06-11T18:43:32Z</time>
      </trkpt>
      <trkpt lat="46.36395" lon="6.49666">
        <ele>478</ele>
        <time>2019-06-11T18:43:37Z</time>
      </trkpt>
      <trkpt lat="46.36412" lon="6.49691">
        <ele>478</ele>
        <time>2019-06-11T18:43:41Z</time>
      </trkpt>
      <trkpt lat="46.36428" lon="6.49738">
        <ele>480</ele>
        <time>2019-06-11T18:43:48Z</time>
      </trkpt>
      <trkpt lat="46.36436" lon="6.49747">
        <ele>479</ele>
        <time>2019-06-11T18:43:50Z</time>
      </trkpt>
      <trkpt lat="46.36445" lon="6.49751">
        <ele>478</ele>
        <time>2019-06-11T18:43:51Z</time>
      </trkpt>
      <trkpt lat="46.36456" lon="6.4975">
        <ele>475</ele>
        <time>2019-06-11T18:43:53Z</time>
      </trkpt>
      <trkpt lat="46.36508" lon="6.49722">
        <ele>466</ele>
        <time>2019-06-11T18:44:03Z</time>
      </trkpt>
      <trkpt lat="46.3654" lon="6.49691">
        <ele>466</ele>
        <time>2019-06-11T18:44:10Z</time>
      </trkpt>
      <trkpt lat="46.36549" lon="6.49684">
        <ele>467</ele>
        <time>2019-06-11T18:44:12Z</time>
      </trkpt>
      <trkpt lat="46.36565" lon="6.49676">
        <ele>469</ele>
        <time>2019-06-11T18:44:15Z</time>
      </trkpt>
      <trkpt lat="46.36582" lon="6.49675">
        <ele>470</ele>
        <time>2019-06-11T18:44:18Z</time>
      </trkpt>
      <trkpt lat="46.36633" lon="6.49688">
        <ele>461</ele>
        <time>2019-06-11T18:44:27Z</time>
      </trkpt>
      <trkpt lat="46.36647" lon="6.49687">
        <ele>460</ele>
        <time>2019-06-11T18:44:30Z</time>
      </trkpt>
      <trkpt lat="46.36662" lon="6.49679">
        <ele>459</ele>
        <time>2019-06-11T18:44:32Z</time>
      </trkpt>
      <trkpt lat="46.36689" lon="6.49656">
        <ele>458</ele>
        <time>2019-06-11T18:44:38Z</time>
      </trkpt>
      <trkpt lat="46.36717" lon="6.49629">
        <ele>457</ele>
        <time>2019-06-11T18:44:44Z</time>
      </trkpt>
      <trkpt lat="46.36777" lon="6.49549">
        <ele>455</ele>
        <time>2019-06-11T18:44:59Z</time>
      </trkpt>
      <trkpt lat="46.36789" lon="6.49531">
        <ele>454</ele>
        <time>2019-06-11T18:45:02Z</time>
      </trkpt>
      <trkpt lat="46.3682" lon="6.49467">
        <ele>451</ele>
        <time>2019-06-11T18:45:11Z</time>
      </trkpt>
      <trkpt lat="46.36856" lon="6.49408">
        <ele>450</ele>
        <time>2019-06-11T18:45:21Z</time>
      </trkpt>
      <trkpt lat="46.36882" lon="6.49373">
        <ele>448</ele>
        <time>2019-06-11T18:45:27Z</time>
      </trkpt>
      <trkpt lat="46.36897" lon="6.49346">
        <ele>447</ele>
        <time>2019-06-11T18:45:31Z</time>
      </trkpt>
      <trkpt lat="46.3692" lon="6.4928">
        <ele>446</ele>
        <time>2019-06-11T18:45:41Z</time>
      </trkpt>
      <trkpt lat="46.36935" lon="6.49254">
        <ele>445</ele>
        <time>2019-06-11T18:45:45Z</time>
      </trkpt>
      <trkpt lat="46.36949" lon="6.49236">
        <ele>445</ele>
        <time>2019-06-11T18:45:48Z</time>
      </trkpt>
      <trkpt lat="46.36984" lon="6.49207">
        <ele>445</ele>
        <time>2019-06-11T18:45:55Z</time>
      </trkpt>
      <trkpt lat="46.37011" lon="6.49174">
        <ele>446</ele>
        <time>2019-06-11T18:46:01Z</time>
      </trkpt>
      <trkpt lat="46.37021" lon="6.49155">
        <ele>446</ele>
        <time>2019-06-11T18:46:04Z</time>
      </trkpt>
      <trkpt lat="46.37028" lon="6.49137">
        <ele>446</ele>
        <time>2019-06-11T18:46:07Z</time>
      </trkpt>
      <trkpt lat="46.37037" lon="6.49123">
        <ele>446</ele>
        <time>2019-06-11T18:46:09Z</time>
      </trkpt>
      <trkpt lat="46.37049" lon="6.49117">
        <ele>444</ele>
        <time>2019-06-11T18:46:12Z</time>
      </trkpt>
      <trkpt lat="46.3705" lon="6.49121">
        <ele>444</ele>
        <time>2019-06-11T18:46:12Z</time>
      </trkpt>
      <trkpt lat="46.37054" lon="6.49128">
        <ele>443</ele>
        <time>2019-06-11T18:46:13Z</time>
      </trkpt>
      <trkpt lat="46.37057" lon="6.4913">
        <ele>442</ele>
        <time>2019-06-11T18:46:14Z</time>
      </trkpt>
      <trkpt lat="46.37063" lon="6.4913">
        <ele>441</ele>
        <time>2019-06-11T18:46:15Z</time>
      </trkpt>
      <trkpt lat="46.37068" lon="6.49125">
        <ele>440</ele>
        <time>2019-06-11T18:46:16Z</time>
      </trkpt>
      <trkpt lat="46.37083" lon="6.49145">
        <ele>438</ele>
        <time>2019-06-11T18:46:20Z</time>
      </trkpt>
      <trkpt lat="46.37135" lon="6.49242">
        <ele>438</ele>
        <time>2019-06-11T18:46:35Z</time>
      </trkpt>
      <trkpt lat="46.3716" lon="6.49297">
        <ele>438</ele>
        <time>2019-06-11T18:46:43Z</time>
      </trkpt>
      <trkpt lat="46.3717" lon="6.49334">
        <ele>438</ele>
        <time>2019-06-11T18:46:48Z</time>
      </trkpt>
      <trkpt lat="46.3718" lon="6.49387">
        <ele>437</ele>
        <time>2019-06-11T18:46:54Z</time>
      </trkpt>
      <trkpt lat="46.37187" lon="6.49447">
        <ele>437</ele>
        <time>2019-06-11T18:47:02Z</time>
      </trkpt>
      <trkpt lat="46.37183" lon="6.49451">
        <ele>437</ele>
        <time>2019-06-11T18:47:03Z</time>
      </trkpt>
      <trkpt lat="46.37182" lon="6.49457">
        <ele>437</ele>
        <time>2019-06-11T18:47:03Z</time>
      </trkpt>
      <trkpt lat="46.37185" lon="6.49462">
        <ele>437</ele>
        <time>2019-06-11T18:47:04Z</time>
      </trkpt>
      <trkpt lat="46.37189" lon="6.49462">
        <ele>437</ele>
        <time>2019-06-11T18:47:05Z</time>
      </trkpt>
      <trkpt lat="46.37209" lon="6.49561">
        <ele>438</ele>
        <time>2019-06-11T18:47:18Z</time>
      </trkpt>
      <trkpt lat="46.37244" lon="6.49604">
        <ele>437</ele>
        <time>2019-06-11T18:47:26Z</time>
      </trkpt>
      <trkpt lat="46.37278" lon="6.49648">
        <ele>434</ele>
        <time>2019-06-11T18:47:34Z</time>
      </trkpt>
      <trkpt lat="46.37311" lon="6.49724">
        <ele>432</ele>
        <time>2019-06-11T18:47:45Z</time>
      </trkpt>
      <trkpt lat="46.37344" lon="6.49774">
        <ele>430</ele>
        <time>2019-06-11T18:47:53Z</time>
      </trkpt>
      <trkpt lat="46.37431" lon="6.49878">
        <ele>428</ele>
        <time>2019-06-11T18:48:13Z</time>
      </trkpt>
      <trkpt lat="46.37463" lon="6.49928">
        <ele>427</ele>
        <time>2019-06-11T18:48:22Z</time>
      </trkpt>
      <trkpt lat="46.37479" lon="6.49946">
        <ele>425</ele>
        <time>2019-06-11T18:48:25Z</time>
      </trkpt>
      <trkpt lat="46.37487" lon="6.49951">
        <ele>425</ele>
        <time>2019-06-11T18:48:27Z</time>
      </trkpt>
      <trkpt lat="46.37505" lon="6.49959">
        <ele>423</ele>
        <time>2019-06-11T18:48:30Z</time>
      </trkpt>
      <trkpt lat="46.37523" lon="6.4996">
        <ele>422</ele>
        <time>2019-06-11T18:48:34Z</time>
      </trkpt>
      <trkpt lat="46.37582" lon="6.49944">
        <ele>421</ele>
        <time>2019-06-11T18:48:44Z</time>
      </trkpt>
      <trkpt lat="46.37596" lon="6.49944">
        <ele>421</ele>
        <time>2019-06-11T18:48:47Z</time>
      </trkpt>
      <trkpt lat="46.37626" lon="6.49949">
        <ele>421</ele>
        <time>2019-06-11T18:48:52Z</time>
      </trkpt>
      <trkpt lat="46.37686" lon="6.49964">
        <ele>419</ele>
        <time>2019-06-11T18:49:03Z</time>
      </trkpt>
      <trkpt lat="46.37695" lon="6.49965">
        <ele>419</ele>
        <time>2019-06-11T18:49:05Z</time>
      </trkpt>
      <trkpt lat="46.37741" lon="6.49961">
        <ele>419</ele>
        <time>2019-06-11T18:49:13Z</time>
      </trkpt>
      <trkpt lat="46.37765" lon="6.49964">
        <ele>419</ele>
        <time>2019-06-11T18:49:17Z</time>
      </trkpt>
      <trkpt lat="46.37833" lon="6.49996">
        <ele>416</ele>
        <time>2019-06-11T18:49:30Z</time>
      </trkpt>
      <trkpt lat="46.37848" lon="6.50007">
        <ele>415</ele>
        <time>2019-06-11T18:49:33Z</time>
      </trkpt>
      <trkpt lat="46.37864" lon="6.50024">
        <ele>412</ele>
        <time>2019-06-11T18:49:36Z</time>
      </trkpt>
      <trkpt lat="46.37875" lon="6.5004">
        <ele>410</ele>
        <time>2019-06-11T18:49:39Z</time>
      </trkpt>
      <trkpt lat="46.37936" lon="6.50144">
        <ele>405</ele>
        <time>2019-06-11T18:49:56Z</time>
      </trkpt>
      <trkpt lat="46.37966" lon="6.50207">
        <ele>404</ele>
        <time>2019-06-11T18:50:05Z</time>
      </trkpt>
      <trkpt lat="46.37987" lon="6.50241">
        <ele>403</ele>
        <time>2019-06-11T18:50:11Z</time>
      </trkpt>
      <trkpt lat="46.37999" lon="6.50256">
        <ele>403</ele>
        <time>2019-06-11T18:50:14Z</time>
      </trkpt>
      <trkpt lat="46.38072" lon="6.50322">
        <ele>403</ele>
        <time>2019-06-11T18:50:29Z</time>
      </trkpt>
      <trkpt lat="46.38088" lon="6.50331">
        <ele>403</ele>
        <time>2019-06-11T18:50:32Z</time>
      </trkpt>
      <trkpt lat="46.38145" lon="6.50358">
        <ele>402</ele>
        <time>2019-06-11T18:50:43Z</time>
      </trkpt>
      <trkpt lat="46.38192" lon="6.50403">
        <ele>401</ele>
        <time>2019-06-11T18:50:53Z</time>
      </trkpt>
      <trkpt lat="46.38209" lon="6.50417">
        <ele>402</ele>
        <time>2019-06-11T18:50:56Z</time>
      </trkpt>
      <trkpt lat="46.38271" lon="6.50442">
        <ele>401</ele>
        <time>2019-06-11T18:51:08Z</time>
      </trkpt>
      <trkpt lat="46.38289" lon="6.50531">
        <ele>399</ele>
        <time>2019-06-11T18:51:19Z</time>
      </trkpt>
      <trkpt lat="46.38294" lon="6.50564">
        <ele>398</ele>
        <time>2019-06-11T18:51:23Z</time>
      </trkpt>
      <trkpt lat="46.38295" lon="6.5059">
        <ele>397</ele>
        <time>2019-06-11T18:51:26Z</time>
      </trkpt>
      <trkpt lat="46.38292" lon="6.50715">
        <ele>394</ele>
        <time>2019-06-11T18:51:42Z</time>
      </trkpt>
      <trkpt lat="46.38287" lon="6.50852">
        <ele>397</ele>
        <time>2019-06-11T18:51:59Z</time>
      </trkpt>
      <trkpt lat="46.38285" lon="6.50989">
        <ele>398</ele>
        <time>2019-06-11T18:52:15Z</time>
      </trkpt>
      <trkpt lat="46.38286" lon="6.51019">
        <ele>398</ele>
        <time>2019-06-11T18:52:19Z</time>
      </trkpt>
      <trkpt lat="46.3829" lon="6.51067">
        <ele>398</ele>
        <time>2019-06-11T18:52:25Z</time>
      </trkpt>
      <trkpt lat="46.38299" lon="6.51111">
        <ele>398</ele>
        <time>2019-06-11T18:52:31Z</time>
      </trkpt>
      <trkpt lat="46.38307" lon="6.51139">
        <ele>398</ele>
        <time>2019-06-11T18:52:34Z</time>
      </trkpt>
      <trkpt lat="46.38321" lon="6.51174">
        <ele>397</ele>
        <time>2019-06-11T18:52:39Z</time>
      </trkpt>
      <trkpt lat="46.38321" lon="6.51187">
        <ele>398</ele>
        <time>2019-06-11T18:52:41Z</time>
      </trkpt>
      <trkpt lat="46.38341" lon="6.51235">
        <ele>399</ele>
        <time>2019-06-11T18:52:48Z</time>
      </trkpt>
      <trkpt lat="46.38352" lon="6.51257">
        <ele>400</ele>
        <time>2019-06-11T18:52:51Z</time>
      </trkpt>
      <trkpt lat="46.38372" lon="6.51294">
        <ele>400</ele>
        <time>2019-06-11T18:52:57Z</time>
      </trkpt>
      <trkpt lat="46.38384" lon="6.51311">
        <ele>399</ele>
        <time>2019-06-11T18:53:00Z</time>
      </trkpt>
      <trkpt lat="46.38396" lon="6.51322">
        <ele>398</ele>
        <time>2019-06-11T18:53:02Z</time>
      </trkpt>
      <trkpt lat="46.38402" lon="6.51325">
        <ele>397</ele>
        <time>2019-06-11T18:53:03Z</time>
      </trkpt>
      <trkpt lat="46.38413" lon="6.51322">
        <ele>396</ele>
        <time>2019-06-11T18:53:05Z</time>
      </trkpt>
      <trkpt lat="46.38425" lon="6.51311">
        <ele>395</ele>
        <time>2019-06-11T18:53:08Z</time>
      </trkpt>
      <trkpt lat="46.3843" lon="6.5131">
        <ele>395</ele>
        <time>2019-06-11T18:53:09Z</time>
      </trkpt>
      <trkpt lat="46.38435" lon="6.51315">
        <ele>395</ele>
        <time>2019-06-11T18:53:10Z</time>
      </trkpt>
      <trkpt lat="46.38531" lon="6.51536">
        <ele>395</ele>
        <time>2019-06-11T18:53:42Z</time>
      </trkpt>
      <trkpt lat="46.38544" lon="6.51558">
        <ele>395</ele>
        <time>2019-06-11T18:53:46Z</time>
      </trkpt>
      <trkpt lat="46.38555" lon="6.51566">
        <ele>395</ele>
        <time>2019-06-11T18:53:48Z</time>
      </trkpt>
      <trkpt lat="46.38572" lon="6.51575">
        <ele>394</ele>
        <time>2019-06-11T18:53:51Z</time>
      </trkpt>
      <trkpt lat="46.38577" lon="6.51581">
        <ele>393</ele>
        <time>2019-06-11T18:53:52Z</time>
      </trkpt>
      <trkpt lat="46.38581" lon="6.51589">
        <ele>393</ele>
        <time>2019-06-11T18:53:53Z</time>
      </trkpt>
      <trkpt lat="46.38583" lon="6.51605">
        <ele>393</ele>
        <time>2019-06-11T18:53:55Z</time>
      </trkpt>
      <trkpt lat="46.38581" lon="6.51641">
        <ele>394</ele>
        <time>2019-06-11T18:54:00Z</time>
      </trkpt>
      <trkpt lat="46.38582" lon="6.51658">
        <ele>394</ele>
        <time>2019-06-11T18:54:02Z</time>
      </trkpt>
      <trkpt lat="46.38696" lon="6.51919">
        <ele>393</ele>
        <time>2019-06-11T18:54:40Z</time>
      </trkpt>
      <trkpt lat="46.38717" lon="6.51963">
        <ele>393</ele>
        <time>2019-06-11T18:54:46Z</time>
      </trkpt>
      <trkpt lat="46.38721" lon="6.51975">
        <ele>393</ele>
        <time>2019-06-11T18:54:48Z</time>
      </trkpt>
      <trkpt lat="46.3873" lon="6.52021">
        <ele>393</ele>
        <time>2019-06-11T18:54:54Z</time>
      </trkpt>
      <trkpt lat="46.38779" lon="6.52208">
        <ele>393</ele>
        <time>2019-06-11T18:55:18Z</time>
      </trkpt>
      <trkpt lat="46.38789" lon="6.52241">
        <ele>393</ele>
        <time>2019-06-11T18:55:23Z</time>
      </trkpt>
      <trkpt lat="46.388" lon="6.52269">
        <ele>394</ele>
        <time>2019-06-11T18:55:27Z</time>
      </trkpt>
      <trkpt lat="46.38809" lon="6.52285">
        <ele>394</ele>
        <time>2019-06-11T18:55:29Z</time>
      </trkpt>
      <trkpt lat="46.38821" lon="6.52301">
        <ele>392</ele>
        <time>2019-06-11T18:55:32Z</time>
      </trkpt>
      <trkpt lat="46.38882" lon="6.52372">
        <ele>388</ele>
        <time>2019-06-11T18:55:46Z</time>
      </trkpt>
      <trkpt lat="46.38896" lon="6.52386">
        <ele>388</ele>
        <time>2019-06-11T18:55:49Z</time>
      </trkpt>
      <trkpt lat="46.38922" lon="6.52406">
        <ele>386</ele>
        <time>2019-06-11T18:55:54Z</time>
      </trkpt>
      <trkpt lat="46.3894" lon="6.52428">
        <ele>386</ele>
        <time>2019-06-11T18:55:59Z</time>
      </trkpt>
      <trkpt lat="46.38925" lon="6.52453">
        <ele>386</ele>
        <time>2019-06-11T18:56:03Z</time>
      </trkpt>
      <trkpt lat="46.38902" lon="6.5247">
        <ele>388</ele>
        <time>2019-06-11T18:56:07Z</time>
      </trkpt>
      <trkpt lat="46.38894" lon="6.52473">
        <ele>389</ele>
        <time>2019-06-11T18:56:09Z</time>
      </trkpt>
      <trkpt lat="46.3888" lon="6.52475">
        <ele>390</ele>
        <time>2019-06-11T18:56:11Z</time>
      </trkpt>
      <trkpt lat="46.38872" lon="6.52478">
        <ele>390</ele>
        <time>2019-06-11T18:56:13Z</time>
      </trkpt>
      <trkpt lat="46.38864" lon="6.52487">
        <ele>391</ele>
        <time>2019-06-11T18:56:15Z</time>
      </trkpt>
      <trkpt lat="46.3886" lon="6.52497">
        <ele>392</ele>
        <time>2019-06-11T18:56:16Z</time>
      </trkpt>
      <trkpt lat="46.38859" lon="6.5251">
        <ele>392</ele>
        <time>2019-06-11T18:56:18Z</time>
      </trkpt>
      <trkpt lat="46.3886" lon="6.52522">
        <ele>392</ele>
        <time>2019-06-11T18:56:19Z</time>
      </trkpt>
      <trkpt lat="46.38865" lon="6.52531">
        <ele>392</ele>
        <time>2019-06-11T18:56:20Z</time>
      </trkpt>
      <trkpt lat="46.38889" lon="6.52558">
        <ele>391</ele>
        <time>2019-06-11T18:56:26Z</time>
      </trkpt>
      <trkpt lat="46.38909" lon="6.52602">
        <ele>391</ele>
        <time>2019-06-11T18:56:32Z</time>
      </trkpt>
      <trkpt lat="46.3892" lon="6.52619">
        <ele>391</ele>
        <time>2019-06-11T18:56:35Z</time>
      </trkpt>
      <trkpt lat="46.3899" lon="6.52699">
        <ele>387</ele>
        <time>2019-06-11T18:56:51Z</time>
      </trkpt>
      <trkpt lat="46.39003" lon="6.52716">
        <ele>387</ele>
        <time>2019-06-11T18:56:54Z</time>
      </trkpt>
      <trkpt lat="46.39019" lon="6.52744">
        <ele>386</ele>
        <time>2019-06-11T18:56:59Z</time>
      </trkpt>
      <trkpt lat="46.39031" lon="6.52753">
        <ele>386</ele>
        <time>2019-06-11T18:57:01Z</time>
      </trkpt>
      <trkpt lat="46.39052" lon="6.5276">
        <ele>386</ele>
        <time>2019-06-11T18:57:05Z</time>
      </trkpt>
      <trkpt lat="46.39055" lon="6.52765">
        <ele>386</ele>
        <time>2019-06-11T18:57:06Z</time>
      </trkpt>
      <trkpt lat="46.39061" lon="6.52783">
        <ele>386</ele>
        <time>2019-06-11T18:57:08Z</time>
      </trkpt>
      <trkpt lat="46.39078" lon="6.52859">
        <ele>387</ele>
        <time>2019-06-11T18:57:18Z</time>
      </trkpt>
      <trkpt lat="46.3909" lon="6.52931">
        <ele>386</ele>
        <time>2019-06-11T18:57:27Z</time>
      </trkpt>
      <trkpt lat="46.39098" lon="6.52999">
        <ele>384</ele>
        <time>2019-06-11T18:57:35Z</time>
      </trkpt>
      <trkpt lat="46.39117" lon="6.53097">
        <ele>386</ele>
        <time>2019-06-11T18:57:48Z</time>
      </trkpt>
      <trkpt lat="46.39133" lon="6.53151">
        <ele>386</ele>
        <time>2019-06-11T18:57:55Z</time>
      </trkpt>
      <trkpt lat="46.39148" lon="6.53193">
        <ele>386</ele>
        <time>2019-06-11T18:58:01Z</time>
      </trkpt>
      <trkpt lat="46.39236" lon="6.53368">
        <ele>382</ele>
        <time>2019-06-11T18:58:28Z</time>
      </trkpt>
      <trkpt lat="46.39257" lon="6.53421">
        <ele>381</ele>
        <time>2019-06-11T18:58:35Z</time>
      </trkpt>
      <trkpt lat="46.3927" lon="6.53475">
        <ele>379</ele>
        <time>2019-06-11T18:58:42Z</time>
      </trkpt>
      <trkpt lat="46.39274" lon="6.53509">
        <ele>378</ele>
        <time>2019-06-11T18:58:46Z</time>
      </trkpt>
      <trkpt lat="46.3927" lon="6.53517">
        <ele>378</ele>
        <time>2019-06-11T18:58:48Z</time>
      </trkpt>
      <trkpt lat="46.39269" lon="6.53525">
        <ele>378</ele>
        <time>2019-06-11T18:58:49Z</time>
      </trkpt>
      <trkpt lat="46.3927" lon="6.53538">
        <ele>378</ele>
        <time>2019-06-11T18:58:50Z</time>
      </trkpt>
      <trkpt lat="46.39274" lon="6.53546">
        <ele>378</ele>
        <time>2019-06-11T18:58:51Z</time>
      </trkpt>
      <trkpt lat="46.39284" lon="6.53553">
        <ele>378</ele>
        <time>2019-06-11T18:58:53Z</time>
      </trkpt>
      <trkpt lat="46.39292" lon="6.53552">
        <ele>378</ele>
        <time>2019-06-11T18:58:55Z</time>
      </trkpt>
      <trkpt lat="46.39323" lon="6.53628">
        <ele>379</ele>
        <time>2019-06-11T18:59:06Z</time>
      </trkpt>
      <trkpt lat="46.39415" lon="6.53883">
        <ele>378</ele>
        <time>2019-06-11T18:59:41Z</time>
      </trkpt>
      <trkpt lat="46.39423" lon="6.53899">
        <ele>378</ele>
        <time>2019-06-11T18:59:43Z</time>
      </trkpt>
      <trkpt lat="46.39447" lon="6.53937">
        <ele>378</ele>
        <time>2019-06-11T18:59:50Z</time>
      </trkpt>
      <trkpt lat="46.39433" lon="6.53953">
        <ele>378</ele>
        <time>2019-06-11T18:59:53Z</time>
      </trkpt>
      <trkpt lat="46.39413" lon="6.53965">
        <ele>378</ele>
        <time>2019-06-11T18:59:57Z</time>
      </trkpt>
      <trkpt lat="46.39391" lon="6.53971">
        <ele>378</ele>
        <time>2019-06-11T19:00:01Z</time>
      </trkpt>
      <trkpt lat="46.39377" lon="6.5397">
        <ele>378</ele>
        <time>2019-06-11T19:00:03Z</time>
      </trkpt>
      <trkpt lat="46.39331" lon="6.53942">
        <ele>379</ele>
        <time>2019-06-11T19:00:12Z</time>
      </trkpt>
      <trkpt lat="46.39312" lon="6.53927">
        <ele>381</ele>
        <time>2019-06-11T19:00:16Z</time>
      </trkpt>
      <trkpt lat="46.39307" lon="6.53916">
        <ele>382</ele>
        <time>2019-06-11T19:00:17Z</time>
      </trkpt>
      <trkpt lat="46.39415" lon="6.53883">
        <ele>378</ele>
        <time>2019-06-11T19:00:37Z</time>
      </trkpt>
      <trkpt lat="46.39423" lon="6.53899">
        <ele>378</ele>
        <time>2019-06-11T19:00:40Z</time>
      </trkpt>
      <trkpt lat="46.39472" lon="6.53973">
        <ele>378</ele>
        <time>2019-06-11T19:00:52Z</time>
      </trkpt>
      <trkpt lat="46.39487" lon="6.54001">
        <ele>377</ele>
        <time>2019-06-11T19:00:56Z</time>
      </trkpt>
      <trkpt lat="46.39493" lon="6.54021">
        <ele>377</ele>
        <time>2019-06-11T19:00:59Z</time>
      </trkpt>
      <trkpt lat="46.395" lon="6.54063">
        <ele>378</ele>
        <time>2019-06-11T19:01:04Z</time>
      </trkpt>
      <trkpt lat="46.39502" lon="6.54095">
        <ele>378</ele>
        <time>2019-06-11T19:01:08Z</time>
      </trkpt>
      <trkpt lat="46.39501" lon="6.54226">
        <ele>379</ele>
        <time>2019-06-11T19:01:24Z</time>
      </trkpt>
      <trkpt lat="46.39494" lon="6.5429">
        <ele>378</ele>
        <time>2019-06-11T19:01:32Z</time>
      </trkpt>
      <trkpt lat="46.39464" lon="6.5445">
        <ele>375</ele>
        <time>2019-06-11T19:01:53Z</time>
      </trkpt>
      <trkpt lat="46.39459" lon="6.54511">
        <ele>376</ele>
        <time>2019-06-11T19:02:00Z</time>
      </trkpt>
      <trkpt lat="46.39379" lon="6.54518">
        <ele>387</ele>
        <time>2019-06-11T19:02:15Z</time>
      </trkpt>
      <trkpt lat="46.39361" lon="6.5447">
        <ele>388</ele>
        <time>2019-06-11T19:02:21Z</time>
      </trkpt>
      <trkpt lat="46.39356" lon="6.5445">
        <ele>388</ele>
        <time>2019-06-11T19:02:24Z</time>
      </trkpt>
      <trkpt lat="46.39351" lon="6.54441">
        <ele>389</ele>
        <time>2019-06-11T19:02:25Z</time>
      </trkpt>
      <trkpt lat="46.39356" lon="6.546">
        <ele>395</ele>
        <time>2019-06-11T19:02:45Z</time>
      </trkpt>
      <trkpt lat="46.3935" lon="6.5461">
        <ele>397</ele>
        <time>2019-06-11T19:02:46Z</time>
      </trkpt>
      <trkpt lat="46.39346" lon="6.54623">
        <ele>399</ele>
        <time>2019-06-11T19:02:48Z</time>
      </trkpt>
      <trkpt lat="46.39346" lon="6.54636">
        <ele>400</ele>
        <time>2019-06-11T19:02:50Z</time>
      </trkpt>
      <trkpt lat="46.39356" lon="6.54672">
        <ele>400</ele>
        <time>2019-06-11T19:02:55Z</time>
      </trkpt>
      <trkpt lat="46.39359" lon="6.54688">
        <ele>400</ele>
        <time>2019-06-11T19:02:57Z</time>
      </trkpt>
      <trkpt lat="46.39362" lon="6.54742">
        <ele>401</ele>
        <time>2019-06-11T19:03:03Z</time>
      </trkpt>
      <trkpt lat="46.39359" lon="6.54758">
        <ele>402</ele>
        <time>2019-06-11T19:03:05Z</time>
      </trkpt>
      <trkpt lat="46.39352" lon="6.54767">
        <ele>404</ele>
        <time>2019-06-11T19:03:07Z</time>
      </trkpt>
      <trkpt lat="46.39335" lon="6.5478">
        <ele>407</ele>
        <time>2019-06-11T19:03:10Z</time>
      </trkpt>
      <trkpt lat="46.3933" lon="6.54787">
        <ele>409</ele>
        <time>2019-06-11T19:03:12Z</time>
      </trkpt>
      <trkpt lat="46.39328" lon="6.54801">
        <ele>410</ele>
        <time>2019-06-11T19:03:13Z</time>
      </trkpt>
      <trkpt lat="46.39335" lon="6.54841">
        <ele>410</ele>
        <time>2019-06-11T19:03:18Z</time>
      </trkpt>
      <trkpt lat="46.39339" lon="6.54851">
        <ele>410</ele>
        <time>2019-06-11T19:03:20Z</time>
      </trkpt>
      <trkpt lat="46.39363" lon="6.54863">
        <ele>406</ele>
        <time>2019-06-11T19:03:24Z</time>
      </trkpt>
      <trkpt lat="46.39369" lon="6.54871">
        <ele>406</ele>
        <time>2019-06-11T19:03:26Z</time>
      </trkpt>
      <trkpt lat="46.39375" lon="6.54889">
        <ele>407</ele>
        <time>2019-06-11T19:03:28Z</time>
      </trkpt>
      <trkpt lat="46.39378" lon="6.54909">
        <ele>409</ele>
        <time>2019-06-11T19:03:31Z</time>
      </trkpt>
      <trkpt lat="46.3938" lon="6.55008">
        <ele>417</ele>
        <time>2019-06-11T19:03:43Z</time>
      </trkpt>
      <trkpt lat="46.39374" lon="6.55037">
        <ele>420</ele>
        <time>2019-06-11T19:03:47Z</time>
      </trkpt>
      <trkpt lat="46.39373" lon="6.55052">
        <ele>421</ele>
        <time>2019-06-11T19:03:49Z</time>
      </trkpt>
      <trkpt lat="46.39388" lon="6.5513">
        <ele>420</ele>
        <time>2019-06-11T19:03:58Z</time>
      </trkpt>
      <trkpt lat="46.39393" lon="6.55171">
        <ele>420</ele>
        <time>2019-06-11T19:04:04Z</time>
      </trkpt>
      <trkpt lat="46.39394" lon="6.55202">
        <ele>422</ele>
        <time>2019-06-11T19:04:07Z</time>
      </trkpt>
      <trkpt lat="46.39388" lon="6.55286">
        <ele>429</ele>
        <time>2019-06-11T19:04:18Z</time>
      </trkpt>
      <trkpt lat="46.39376" lon="6.55341">
        <ele>435</ele>
        <time>2019-06-11T19:04:25Z</time>
      </trkpt>
      <trkpt lat="46.39376" lon="6.55452">
        <ele>439</ele>
        <time>2019-06-11T19:04:38Z</time>
      </trkpt>
      <trkpt lat="46.39373" lon="6.55476">
        <ele>440</ele>
        <time>2019-06-11T19:04:41Z</time>
      </trkpt>
      <trkpt lat="46.39353" lon="6.55544">
        <ele>446</ele>
        <time>2019-06-11T19:04:51Z</time>
      </trkpt>
      <trkpt lat="46.3935" lon="6.55568">
        <ele>448</ele>
        <time>2019-06-11T19:04:53Z</time>
      </trkpt>
      <trkpt lat="46.39346" lon="6.55723">
        <ele>454</ele>
        <time>2019-06-11T19:05:13Z</time>
      </trkpt>
      <trkpt lat="46.39343" lon="6.55738">
        <ele>454</ele>
        <time>2019-06-11T19:05:14Z</time>
      </trkpt>
      <trkpt lat="46.39336" lon="6.55748">
        <ele>456</ele>
        <time>2019-06-11T19:05:16Z</time>
      </trkpt>
      <trkpt lat="46.39325" lon="6.55761">
        <ele>458</ele>
        <time>2019-06-11T19:05:19Z</time>
      </trkpt>
      <trkpt lat="46.39308" lon="6.55773">
        <ele>461</ele>
        <time>2019-06-11T19:05:22Z</time>
      </trkpt>
      <trkpt lat="46.39375" lon="6.55988">
        <ele>453</ele>
        <time>2019-06-11T19:05:51Z</time>
      </trkpt>
      <trkpt lat="46.39391" lon="6.56069">
        <ele>454</ele>
        <time>2019-06-11T19:06:01Z</time>
      </trkpt>
      <trkpt lat="46.39399" lon="6.56154">
        <ele>455</ele>
        <time>2019-06-11T19:06:12Z</time>
      </trkpt>
      <trkpt lat="46.39398" lon="6.56266">
        <ele>457</ele>
        <time>2019-06-11T19:06:26Z</time>
      </trkpt>
      <trkpt lat="46.39428" lon="6.56429">
        <ele>452</ele>
        <time>2019-06-11T19:06:46Z</time>
      </trkpt>
      <trkpt lat="46.39461" lon="6.56489">
        <ele>446</ele>
        <time>2019-06-11T19:06:56Z</time>
      </trkpt>
      <trkpt lat="46.39477" lon="6.56547">
        <ele>443</ele>
        <time>2019-06-11T19:07:03Z</time>
      </trkpt>
      <trkpt lat="46.39487" lon="6.56623">
        <ele>443</ele>
        <time>2019-06-11T19:07:13Z</time>
      </trkpt>
      <trkpt lat="46.39549" lon="6.56921">
        <ele>438</ele>
        <time>2019-06-11T19:07:51Z</time>
      </trkpt>
      <trkpt lat="46.39577" lon="6.56981">
        <ele>434</ele>
        <time>2019-06-11T19:08:00Z</time>
      </trkpt>
      <trkpt lat="46.39611" lon="6.57031">
        <ele>427</ele>
        <time>2019-06-11T19:08:09Z</time>
      </trkpt>
      <trkpt lat="46.3967" lon="6.57171">
        <ele>416</ele>
        <time>2019-06-11T19:08:29Z</time>
      </trkpt>
      <trkpt lat="46.39707" lon="6.57197">
        <ele>411</ele>
        <time>2019-06-11T19:08:36Z</time>
      </trkpt>
      <trkpt lat="46.39716" lon="6.57206">
        <ele>409</ele>
        <time>2019-06-11T19:08:38Z</time>
      </trkpt>
      <trkpt lat="46.39748" lon="6.5731">
        <ele>408</ele>
        <time>2019-06-11T19:08:52Z</time>
      </trkpt>
      <trkpt lat="46.39787" lon="6.57455">
        <ele>405</ele>
        <time>2019-06-11T19:09:11Z</time>
      </trkpt>
      <trkpt lat="46.39814" lon="6.5758">
        <ele>408</ele>
        <time>2019-06-11T19:09:27Z</time>
      </trkpt>
      <trkpt lat="46.3986" lon="6.57689">
        <ele>402</ele>
        <time>2019-06-11T19:09:43Z</time>
      </trkpt>
      <trkpt lat="46.3987" lon="6.57708">
        <ele>400</ele>
        <time>2019-06-11T19:09:46Z</time>
      </trkpt>
      <trkpt lat="46.39873" lon="6.57709">
        <ele>400</ele>
        <time>2019-06-11T19:09:46Z</time>
      </trkpt>
      <trkpt lat="46.39874" lon="6.5772">
        <ele>400</ele>
        <time>2019-06-11T19:09:48Z</time>
      </trkpt>
      <trkpt lat="46.39877" lon="6.57724">
        <ele>399</ele>
        <time>2019-06-11T19:09:48Z</time>
      </trkpt>
      <trkpt lat="46.39883" lon="6.57727">
        <ele>399</ele>
        <time>2019-06-11T19:09:50Z</time>
      </trkpt>
      <trkpt lat="46.39933" lon="6.58078">
        <ele>392</ele>
        <time>2019-06-11T19:10:34Z</time>
      </trkpt>
      <trkpt lat="46.39932" lon="6.58116">
        <ele>392</ele>
        <time>2019-06-11T19:10:38Z</time>
      </trkpt>
      <trkpt lat="46.39933" lon="6.58129">
        <ele>392</ele>
        <time>2019-06-11T19:10:40Z</time>
      </trkpt>
      <trkpt lat="46.39948" lon="6.58146">
        <ele>389</ele>
        <time>2019-06-11T19:10:43Z</time>
      </trkpt>
      <trkpt lat="46.39955" lon="6.58149">
        <ele>388</ele>
        <time>2019-06-11T19:10:44Z</time>
      </trkpt>
      <trkpt lat="46.4004" lon="6.58332">
        <ele>381</ele>
        <time>2019-06-11T19:11:12Z</time>
      </trkpt>
      <trkpt lat="46.40046" lon="6.58356">
        <ele>381</ele>
        <time>2019-06-11T19:11:15Z</time>
      </trkpt>
      <trkpt lat="46.40059" lon="6.58384">
        <ele>381</ele>
        <time>2019-06-11T19:11:19Z</time>
      </trkpt>
      <trkpt lat="46.40062" lon="6.58392">
        <ele>381</ele>
        <time>2019-06-11T19:11:20Z</time>
      </trkpt>
      <trkpt lat="46.40067" lon="6.58396">
        <ele>380</ele>
        <time>2019-06-11T19:11:21Z</time>
      </trkpt>
      <trkpt lat="46.40089" lon="6.58443">
        <ele>379</ele>
        <time>2019-06-11T19:11:28Z</time>
      </trkpt>
      <trkpt lat="46.4009" lon="6.58448">
        <ele>379</ele>
        <time>2019-06-11T19:11:29Z</time>
      </trkpt>
      <trkpt lat="46.4014" lon="6.58558">
        <ele>376</ele>
        <time>2019-06-11T19:11:45Z</time>
      </trkpt>
      <trkpt lat="46.40157" lon="6.58603">
        <ele>376</ele>
        <time>2019-06-11T19:11:51Z</time>
      </trkpt>
      <trkpt lat="46.40167" lon="6.58643">
        <ele>376</ele>
        <time>2019-06-11T19:11:56Z</time>
      </trkpt>
      <trkpt lat="46.40175" lon="6.58695">
        <ele>376</ele>
        <time>2019-06-11T19:12:03Z</time>
      </trkpt>
      <trkpt lat="46.4017" lon="6.58699">
        <ele>376</ele>
        <time>2019-06-11T19:12:04Z</time>
      </trkpt>
      <trkpt lat="46.40167" lon="6.58707">
        <ele>376</ele>
        <time>2019-06-11T19:12:05Z</time>
      </trkpt>
      <trkpt lat="46.40166" lon="6.58717">
        <ele>377</ele>
        <time>2019-06-11T19:12:06Z</time>
      </trkpt>
      <trkpt lat="46.40167" lon="6.58724">
        <ele>377</ele>
        <time>2019-06-11T19:12:07Z</time>
      </trkpt>
      <trkpt lat="46.40172" lon="6.58732">
        <ele>376</ele>
        <time>2019-06-11T19:12:08Z</time>
      </trkpt>
      <trkpt lat="46.40179" lon="6.58735">
        <ele>376</ele>
        <time>2019-06-11T19:12:10Z</time>
      </trkpt>
      <trkpt lat="46.40184" lon="6.58734">
        <ele>375</ele>
        <time>2019-06-11T19:12:11Z</time>
      </trkpt>
      <trkpt lat="46.40184" lon="6.5874">
        <ele>375</ele>
        <time>2019-06-11T19:12:11Z</time>
      </trkpt>
      <trkpt lat="46.40189" lon="6.58755">
        <ele>375</ele>
        <time>2019-06-11T19:12:13Z</time>
      </trkpt>
      <trkpt lat="46.40198" lon="6.58803">
        <ele>375</ele>
        <time>2019-06-11T19:12:19Z</time>
      </trkpt>
      <trkpt lat="46.40201" lon="6.58832">
        <ele>375</ele>
        <time>2019-06-11T19:12:23Z</time>
      </trkpt>
      <trkpt lat="46.40201" lon="6.58855">
        <ele>375</ele>
        <time>2019-06-11T19:12:26Z</time>
      </trkpt>
      <trkpt lat="46.40205" lon="6.58916">
        <ele>375</ele>
        <time>2019-06-11T19:12:33Z</time>
      </trkpt>
      <trkpt lat="46.40203" lon="6.58984">
        <ele>375</ele>
        <time>2019-06-11T19:12:42Z</time>
      </trkpt>
      <trkpt lat="46.40195" lon="6.59072">
        <ele>374</ele>
        <time>2019-06-11T19:12:53Z</time>
      </trkpt>
      <trkpt lat="46.40189" lon="6.5912">
        <ele>375</ele>
        <time>2019-06-11T19:12:59Z</time>
      </trkpt>
      <trkpt lat="46.40179" lon="6.59168">
        <ele>376</ele>
        <time>2019-06-11T19:13:05Z</time>
      </trkpt>
      <trkpt lat="46.40153" lon="6.59252">
        <ele>382</ele>
        <time>2019-06-11T19:13:16Z</time>
      </trkpt>
      <trkpt lat="46.40144" lon="6.59299">
        <ele>382</ele>
        <time>2019-06-11T19:13:22Z</time>
      </trkpt>
      <trkpt lat="46.40129" lon="6.59412">
        <ele>378</ele>
        <time>2019-06-11T19:13:36Z</time>
      </trkpt>
      <trkpt lat="46.40128" lon="6.59435">
        <ele>378</ele>
        <time>2019-06-11T19:13:39Z</time>
      </trkpt>
      <trkpt lat="46.40148" lon="6.59595">
        <ele>377</ele>
        <time>2019-06-11T19:13:59Z</time>
      </trkpt>
      <trkpt lat="46.40146" lon="6.59624">
        <ele>379</ele>
        <time>2019-06-11T19:14:03Z</time>
      </trkpt>
      <trkpt lat="46.40142" lon="6.59635">
        <ele>380</ele>
        <time>2019-06-11T19:14:04Z</time>
      </trkpt>
      <trkpt lat="46.40147" lon="6.59663">
        <ele>381</ele>
        <time>2019-06-11T19:14:08Z</time>
      </trkpt>
      <trkpt lat="46.40148" lon="6.59711">
        <ele>380</ele>
        <time>2019-06-11T19:14:13Z</time>
      </trkpt>
      <trkpt lat="46.40143" lon="6.59854">
        <ele>379</ele>
        <time>2019-06-11T19:14:31Z</time>
      </trkpt>
      <trkpt lat="46.40141" lon="6.59927">
        <ele>380</ele>
        <time>2019-06-11T19:14:40Z</time>
      </trkpt>
      <trkpt lat="46.40142" lon="6.59963">
        <ele>379</ele>
        <time>2019-06-11T19:14:44Z</time>
      </trkpt>
      <trkpt lat="46.40174" lon="6.60375">
        <ele>377</ele>
        <time>2019-06-11T19:15:35Z</time>
      </trkpt>
      <trkpt lat="46.40141" lon="6.6038">
        <ele>381</ele>
        <time>2019-06-11T19:15:41Z</time>
      </trkpt>
    </trkseg>
  </trk>
</gpx>